<?xml version="1.0" encoding="UTF-8" standalone="no" ?>
<gpx xmlns="http://www.topografix.com/GPX/1/1" xmlns:xsi="http://www.w3.org/2001/XMLSchema-instance" xsi:schemaLocation="http://www.topografix.com/GPX/1/1 http://www.topografix.com/GPX/1/1/gpx.xsd" version="1.1" creator="VisuGPX - https://www.visugpx.com">
  <metadata>
    <name>coublevitaine 2009</name>
    <desc><![CDATA[30 mai 2009 coublevitaine
avec olivier
sympa à refaire]]></desc>
  </metadata>
  <trk>
    <name><![CDATA[track]]></name>
    <trkseg>
      <trkpt lat="45.35414" lon="5.61301">
        <ele>314</ele>
        <time>2009-05-30T08:06:37Z</time>
      </trkpt>
      <trkpt lat="45.35416" lon="5.61322">
        <ele>306</ele>
        <time>2009-05-30T08:06:45Z</time>
      </trkpt>
      <trkpt lat="45.35403" lon="5.61318">
        <ele>291</ele>
        <time>2009-05-30T08:07:15Z</time>
      </trkpt>
      <trkpt lat="45.35401" lon="5.61311">
        <ele>307</ele>
        <time>2009-05-30T08:08:55Z</time>
      </trkpt>
      <trkpt lat="45.35407" lon="5.61311">
        <ele>307</ele>
        <time>2009-05-30T08:08:57Z</time>
      </trkpt>
      <trkpt lat="45.35407" lon="5.61309">
        <ele>308</ele>
        <time>2009-05-30T08:09:00Z</time>
      </trkpt>
      <trkpt lat="45.35405" lon="5.61296">
        <ele>308</ele>
        <time>2009-05-30T08:09:19Z</time>
      </trkpt>
      <trkpt lat="45.35403" lon="5.61294">
        <ele>308</ele>
        <time>2009-05-30T08:09:21Z</time>
      </trkpt>
      <trkpt lat="45.35403" lon="5.61294">
        <ele>308</ele>
        <time>2009-05-30T08:09:23Z</time>
      </trkpt>
      <trkpt lat="45.35401" lon="5.61294">
        <ele>308</ele>
        <time>2009-05-30T08:09:26Z</time>
      </trkpt>
      <trkpt lat="45.35397" lon="5.61292">
        <ele>308</ele>
        <time>2009-05-30T08:09:45Z</time>
      </trkpt>
      <trkpt lat="45.35416" lon="5.61326">
        <ele>308</ele>
        <time>2009-05-30T08:10:58Z</time>
      </trkpt>
      <trkpt lat="45.35379" lon="5.61234">
        <ele>347</ele>
        <time>2009-05-30T08:11:04Z</time>
      </trkpt>
      <trkpt lat="45.35388" lon="5.6126">
        <ele>329</ele>
        <time>2009-05-30T08:11:10Z</time>
      </trkpt>
      <trkpt lat="45.35388" lon="5.61273">
        <ele>328</ele>
        <time>2009-05-30T08:11:12Z</time>
      </trkpt>
      <trkpt lat="45.35388" lon="5.61279">
        <ele>329</ele>
        <time>2009-05-30T08:11:15Z</time>
      </trkpt>
      <trkpt lat="45.3539" lon="5.61283">
        <ele>327</ele>
        <time>2009-05-30T08:11:35Z</time>
      </trkpt>
      <trkpt lat="45.35394" lon="5.61281">
        <ele>327</ele>
        <time>2009-05-30T08:11:38Z</time>
      </trkpt>
      <trkpt lat="45.35397" lon="5.61281">
        <ele>326</ele>
        <time>2009-05-30T08:11:39Z</time>
      </trkpt>
      <trkpt lat="45.35407" lon="5.61294">
        <ele>324</ele>
        <time>2009-05-30T08:11:44Z</time>
      </trkpt>
      <trkpt lat="45.35412" lon="5.61298">
        <ele>324</ele>
        <time>2009-05-30T08:11:46Z</time>
      </trkpt>
      <trkpt lat="45.35424" lon="5.61307">
        <ele>323</ele>
        <time>2009-05-30T08:11:51Z</time>
      </trkpt>
      <trkpt lat="45.35427" lon="5.61309">
        <ele>323</ele>
        <time>2009-05-30T08:11:52Z</time>
      </trkpt>
      <trkpt lat="45.35435" lon="5.6132">
        <ele>324</ele>
        <time>2009-05-30T08:11:56Z</time>
      </trkpt>
      <trkpt lat="45.35439" lon="5.61326">
        <ele>323</ele>
        <time>2009-05-30T08:11:58Z</time>
      </trkpt>
      <trkpt lat="45.35444" lon="5.61339">
        <ele>321</ele>
        <time>2009-05-30T08:12:01Z</time>
      </trkpt>
      <trkpt lat="45.3545" lon="5.61352">
        <ele>321</ele>
        <time>2009-05-30T08:12:04Z</time>
      </trkpt>
      <trkpt lat="45.3545" lon="5.61356">
        <ele>320</ele>
        <time>2009-05-30T08:12:05Z</time>
      </trkpt>
      <trkpt lat="45.35461" lon="5.61373">
        <ele>319</ele>
        <time>2009-05-30T08:12:13Z</time>
      </trkpt>
      <trkpt lat="45.35465" lon="5.61371">
        <ele>318</ele>
        <time>2009-05-30T08:12:14Z</time>
      </trkpt>
      <trkpt lat="45.35472" lon="5.61371">
        <ele>317</ele>
        <time>2009-05-30T08:12:16Z</time>
      </trkpt>
      <trkpt lat="45.35478" lon="5.61371">
        <ele>316</ele>
        <time>2009-05-30T08:12:19Z</time>
      </trkpt>
      <trkpt lat="45.35478" lon="5.61386">
        <ele>316</ele>
        <time>2009-05-30T08:12:23Z</time>
      </trkpt>
      <trkpt lat="45.35476" lon="5.61395">
        <ele>316</ele>
        <time>2009-05-30T08:12:25Z</time>
      </trkpt>
      <trkpt lat="45.35474" lon="5.61401">
        <ele>316</ele>
        <time>2009-05-30T08:12:27Z</time>
      </trkpt>
      <trkpt lat="45.35472" lon="5.61416">
        <ele>316</ele>
        <time>2009-05-30T08:12:31Z</time>
      </trkpt>
      <trkpt lat="45.35467" lon="5.61442">
        <ele>316</ele>
        <time>2009-05-30T08:12:38Z</time>
      </trkpt>
      <trkpt lat="45.35465" lon="5.61453">
        <ele>316</ele>
        <time>2009-05-30T08:12:41Z</time>
      </trkpt>
      <trkpt lat="45.35461" lon="5.61489">
        <ele>317</ele>
        <time>2009-05-30T08:12:51Z</time>
      </trkpt>
      <trkpt lat="45.35461" lon="5.61498">
        <ele>318</ele>
        <time>2009-05-30T08:12:53Z</time>
      </trkpt>
      <trkpt lat="45.35463" lon="5.61511">
        <ele>319</ele>
        <time>2009-05-30T08:12:56Z</time>
      </trkpt>
      <trkpt lat="45.35493" lon="5.61522">
        <ele>323</ele>
        <time>2009-05-30T08:13:06Z</time>
      </trkpt>
      <trkpt lat="45.35525" lon="5.61513">
        <ele>325</ele>
        <time>2009-05-30T08:13:16Z</time>
      </trkpt>
      <trkpt lat="45.3556" lon="5.61524">
        <ele>327</ele>
        <time>2009-05-30T08:13:27Z</time>
      </trkpt>
      <trkpt lat="45.3557" lon="5.6153">
        <ele>328</ele>
        <time>2009-05-30T08:13:31Z</time>
      </trkpt>
      <trkpt lat="45.35575" lon="5.61534">
        <ele>329</ele>
        <time>2009-05-30T08:13:33Z</time>
      </trkpt>
      <trkpt lat="45.35588" lon="5.61554">
        <ele>331</ele>
        <time>2009-05-30T08:13:40Z</time>
      </trkpt>
      <trkpt lat="45.3559" lon="5.61564">
        <ele>331</ele>
        <time>2009-05-30T08:13:43Z</time>
      </trkpt>
      <trkpt lat="45.35598" lon="5.61599">
        <ele>332</ele>
        <time>2009-05-30T08:13:52Z</time>
      </trkpt>
      <trkpt lat="45.35594" lon="5.61629">
        <ele>335</ele>
        <time>2009-05-30T08:14:03Z</time>
      </trkpt>
      <trkpt lat="45.35588" lon="5.61631">
        <ele>336</ele>
        <time>2009-05-30T08:14:05Z</time>
      </trkpt>
      <trkpt lat="45.3556" lon="5.61657">
        <ele>335</ele>
        <time>2009-05-30T08:14:19Z</time>
      </trkpt>
      <trkpt lat="45.35555" lon="5.61667">
        <ele>336</ele>
        <time>2009-05-30T08:14:22Z</time>
      </trkpt>
      <trkpt lat="45.35555" lon="5.61672">
        <ele>336</ele>
        <time>2009-05-30T08:14:23Z</time>
      </trkpt>
      <trkpt lat="45.35553" lon="5.61687">
        <ele>336</ele>
        <time>2009-05-30T08:14:27Z</time>
      </trkpt>
      <trkpt lat="45.35555" lon="5.61691">
        <ele>336</ele>
        <time>2009-05-30T08:14:28Z</time>
      </trkpt>
      <trkpt lat="45.3556" lon="5.61708">
        <ele>336</ele>
        <time>2009-05-30T08:14:32Z</time>
      </trkpt>
      <trkpt lat="45.35568" lon="5.61734">
        <ele>337</ele>
        <time>2009-05-30T08:14:38Z</time>
      </trkpt>
      <trkpt lat="45.35573" lon="5.61743">
        <ele>337</ele>
        <time>2009-05-30T08:14:40Z</time>
      </trkpt>
      <trkpt lat="45.35585" lon="5.6176">
        <ele>337</ele>
        <time>2009-05-30T08:14:45Z</time>
      </trkpt>
      <trkpt lat="45.3563" lon="5.61826">
        <ele>336</ele>
        <time>2009-05-30T08:14:59Z</time>
      </trkpt>
      <trkpt lat="45.35643" lon="5.61865">
        <ele>336</ele>
        <time>2009-05-30T08:15:06Z</time>
      </trkpt>
      <trkpt lat="45.35667" lon="5.61865">
        <ele>335</ele>
        <time>2009-05-30T08:15:11Z</time>
      </trkpt>
      <trkpt lat="45.35695" lon="5.61843">
        <ele>334</ele>
        <time>2009-05-30T08:15:17Z</time>
      </trkpt>
      <trkpt lat="45.35712" lon="5.61861">
        <ele>333</ele>
        <time>2009-05-30T08:15:22Z</time>
      </trkpt>
      <trkpt lat="45.35729" lon="5.61906">
        <ele>333</ele>
        <time>2009-05-30T08:15:28Z</time>
      </trkpt>
      <trkpt lat="45.35736" lon="5.61919">
        <ele>333</ele>
        <time>2009-05-30T08:15:30Z</time>
      </trkpt>
      <trkpt lat="45.35751" lon="5.61931">
        <ele>332</ele>
        <time>2009-05-30T08:15:33Z</time>
      </trkpt>
      <trkpt lat="45.35791" lon="5.61955">
        <ele>331</ele>
        <time>2009-05-30T08:15:42Z</time>
      </trkpt>
      <trkpt lat="45.35804" lon="5.61953">
        <ele>331</ele>
        <time>2009-05-30T08:15:45Z</time>
      </trkpt>
      <trkpt lat="45.35875" lon="5.61929">
        <ele>333</ele>
        <time>2009-05-30T08:16:02Z</time>
      </trkpt>
      <trkpt lat="45.35929" lon="5.61919">
        <ele>335</ele>
        <time>2009-05-30T08:16:17Z</time>
      </trkpt>
      <trkpt lat="45.35935" lon="5.61916">
        <ele>336</ele>
        <time>2009-05-30T08:16:20Z</time>
      </trkpt>
      <trkpt lat="45.35937" lon="5.61916">
        <ele>336</ele>
        <time>2009-05-30T08:16:21Z</time>
      </trkpt>
      <trkpt lat="45.35944" lon="5.61916">
        <ele>337</ele>
        <time>2009-05-30T08:16:23Z</time>
      </trkpt>
      <trkpt lat="45.36008" lon="5.61901">
        <ele>340</ele>
        <time>2009-05-30T08:16:40Z</time>
      </trkpt>
      <trkpt lat="45.3609" lon="5.6188">
        <ele>344</ele>
        <time>2009-05-30T08:17:04Z</time>
      </trkpt>
      <trkpt lat="45.36156" lon="5.61833">
        <ele>346</ele>
        <time>2009-05-30T08:17:26Z</time>
      </trkpt>
      <trkpt lat="45.36163" lon="5.61828">
        <ele>346</ele>
        <time>2009-05-30T08:17:28Z</time>
      </trkpt>
      <trkpt lat="45.36173" lon="5.61826">
        <ele>347</ele>
        <time>2009-05-30T08:17:32Z</time>
      </trkpt>
      <trkpt lat="45.36186" lon="5.61828">
        <ele>349</ele>
        <time>2009-05-30T08:17:36Z</time>
      </trkpt>
      <trkpt lat="45.36221" lon="5.61839">
        <ele>349</ele>
        <time>2009-05-30T08:17:50Z</time>
      </trkpt>
      <trkpt lat="45.36225" lon="5.61841">
        <ele>350</ele>
        <time>2009-05-30T08:17:52Z</time>
      </trkpt>
      <trkpt lat="45.36231" lon="5.61843">
        <ele>350</ele>
        <time>2009-05-30T08:17:57Z</time>
      </trkpt>
      <trkpt lat="45.3624" lon="5.61848">
        <ele>350</ele>
        <time>2009-05-30T08:18:01Z</time>
      </trkpt>
      <trkpt lat="45.36244" lon="5.61848">
        <ele>351</ele>
        <time>2009-05-30T08:18:04Z</time>
      </trkpt>
      <trkpt lat="45.36261" lon="5.61854">
        <ele>351</ele>
        <time>2009-05-30T08:18:12Z</time>
      </trkpt>
      <trkpt lat="45.3627" lon="5.61856">
        <ele>352</ele>
        <time>2009-05-30T08:18:19Z</time>
      </trkpt>
      <trkpt lat="45.36272" lon="5.61858">
        <ele>353</ele>
        <time>2009-05-30T08:18:21Z</time>
      </trkpt>
      <trkpt lat="45.36298" lon="5.61891">
        <ele>356</ele>
        <time>2009-05-30T08:18:38Z</time>
      </trkpt>
      <trkpt lat="45.36302" lon="5.61895">
        <ele>358</ele>
        <time>2009-05-30T08:18:41Z</time>
      </trkpt>
      <trkpt lat="45.36309" lon="5.61899">
        <ele>359</ele>
        <time>2009-05-30T08:18:45Z</time>
      </trkpt>
      <trkpt lat="45.36321" lon="5.61901">
        <ele>359</ele>
        <time>2009-05-30T08:18:52Z</time>
      </trkpt>
      <trkpt lat="45.36326" lon="5.61906">
        <ele>360</ele>
        <time>2009-05-30T08:18:55Z</time>
      </trkpt>
      <trkpt lat="45.3633" lon="5.6191">
        <ele>361</ele>
        <time>2009-05-30T08:18:58Z</time>
      </trkpt>
      <trkpt lat="45.36332" lon="5.61912">
        <ele>361</ele>
        <time>2009-05-30T08:18:59Z</time>
      </trkpt>
      <trkpt lat="45.36334" lon="5.61916">
        <ele>361</ele>
        <time>2009-05-30T08:19:02Z</time>
      </trkpt>
      <trkpt lat="45.36336" lon="5.61919">
        <ele>362</ele>
        <time>2009-05-30T08:19:03Z</time>
      </trkpt>
      <trkpt lat="45.36341" lon="5.61925">
        <ele>362</ele>
        <time>2009-05-30T08:19:06Z</time>
      </trkpt>
      <trkpt lat="45.36343" lon="5.61931">
        <ele>362</ele>
        <time>2009-05-30T08:19:09Z</time>
      </trkpt>
      <trkpt lat="45.36347" lon="5.61938">
        <ele>363</ele>
        <time>2009-05-30T08:19:12Z</time>
      </trkpt>
      <trkpt lat="45.36349" lon="5.61944">
        <ele>364</ele>
        <time>2009-05-30T08:19:15Z</time>
      </trkpt>
      <trkpt lat="45.36349" lon="5.61953">
        <ele>365</ele>
        <time>2009-05-30T08:19:18Z</time>
      </trkpt>
      <trkpt lat="45.36351" lon="5.6197">
        <ele>366</ele>
        <time>2009-05-30T08:19:25Z</time>
      </trkpt>
      <trkpt lat="45.36354" lon="5.61981">
        <ele>367</ele>
        <time>2009-05-30T08:19:30Z</time>
      </trkpt>
      <trkpt lat="45.36354" lon="5.61994">
        <ele>368</ele>
        <time>2009-05-30T08:19:35Z</time>
      </trkpt>
      <trkpt lat="45.36354" lon="5.62013">
        <ele>369</ele>
        <time>2009-05-30T08:19:42Z</time>
      </trkpt>
      <trkpt lat="45.36356" lon="5.62024">
        <ele>369</ele>
        <time>2009-05-30T08:19:46Z</time>
      </trkpt>
      <trkpt lat="45.36356" lon="5.62041">
        <ele>371</ele>
        <time>2009-05-30T08:19:53Z</time>
      </trkpt>
      <trkpt lat="45.36358" lon="5.62047">
        <ele>372</ele>
        <time>2009-05-30T08:19:56Z</time>
      </trkpt>
      <trkpt lat="45.3636" lon="5.6206">
        <ele>372</ele>
        <time>2009-05-30T08:20:01Z</time>
      </trkpt>
      <trkpt lat="45.3636" lon="5.62064">
        <ele>372</ele>
        <time>2009-05-30T08:20:03Z</time>
      </trkpt>
      <trkpt lat="45.36362" lon="5.62077">
        <ele>373</ele>
        <time>2009-05-30T08:20:08Z</time>
      </trkpt>
      <trkpt lat="45.36366" lon="5.62082">
        <ele>373</ele>
        <time>2009-05-30T08:20:11Z</time>
      </trkpt>
      <trkpt lat="45.36369" lon="5.62084">
        <ele>373</ele>
        <time>2009-05-30T08:20:12Z</time>
      </trkpt>
      <trkpt lat="45.36373" lon="5.62086">
        <ele>373</ele>
        <time>2009-05-30T08:20:14Z</time>
      </trkpt>
      <trkpt lat="45.36379" lon="5.62088">
        <ele>375</ele>
        <time>2009-05-30T08:20:17Z</time>
      </trkpt>
      <trkpt lat="45.36422" lon="5.62092">
        <ele>380</ele>
        <time>2009-05-30T08:20:41Z</time>
      </trkpt>
      <trkpt lat="45.36431" lon="5.6209">
        <ele>381</ele>
        <time>2009-05-30T08:20:45Z</time>
      </trkpt>
      <trkpt lat="45.36478" lon="5.62086">
        <ele>388</ele>
        <time>2009-05-30T08:21:09Z</time>
      </trkpt>
      <trkpt lat="45.36484" lon="5.62082">
        <ele>388</ele>
        <time>2009-05-30T08:21:12Z</time>
      </trkpt>
      <trkpt lat="45.36487" lon="5.62077">
        <ele>389</ele>
        <time>2009-05-30T08:21:14Z</time>
      </trkpt>
      <trkpt lat="45.36519" lon="5.6203">
        <ele>391</ele>
        <time>2009-05-30T08:21:31Z</time>
      </trkpt>
      <trkpt lat="45.36527" lon="5.62021">
        <ele>392</ele>
        <time>2009-05-30T08:21:35Z</time>
      </trkpt>
      <trkpt lat="45.36532" lon="5.62011">
        <ele>392</ele>
        <time>2009-05-30T08:21:39Z</time>
      </trkpt>
      <trkpt lat="45.36534" lon="5.62009">
        <ele>392</ele>
        <time>2009-05-30T08:21:40Z</time>
      </trkpt>
      <trkpt lat="45.36538" lon="5.62009">
        <ele>393</ele>
        <time>2009-05-30T08:21:47Z</time>
      </trkpt>
      <trkpt lat="45.36536" lon="5.62013">
        <ele>399</ele>
        <time>2009-05-30T08:22:16Z</time>
      </trkpt>
      <trkpt lat="45.36532" lon="5.62028">
        <ele>400</ele>
        <time>2009-05-30T08:22:21Z</time>
      </trkpt>
      <trkpt lat="45.36519" lon="5.62069">
        <ele>401</ele>
        <time>2009-05-30T08:22:32Z</time>
      </trkpt>
      <trkpt lat="45.36519" lon="5.62103">
        <ele>400</ele>
        <time>2009-05-30T08:22:39Z</time>
      </trkpt>
      <trkpt lat="45.36519" lon="5.62112">
        <ele>400</ele>
        <time>2009-05-30T08:22:41Z</time>
      </trkpt>
      <trkpt lat="45.36525" lon="5.62131">
        <ele>399</ele>
        <time>2009-05-30T08:22:45Z</time>
      </trkpt>
      <trkpt lat="45.36527" lon="5.62135">
        <ele>399</ele>
        <time>2009-05-30T08:22:46Z</time>
      </trkpt>
      <trkpt lat="45.36587" lon="5.62221">
        <ele>397</ele>
        <time>2009-05-30T08:23:04Z</time>
      </trkpt>
      <trkpt lat="45.3662" lon="5.62266">
        <ele>395</ele>
        <time>2009-05-30T08:23:12Z</time>
      </trkpt>
      <trkpt lat="45.36665" lon="5.62401">
        <ele>393</ele>
        <time>2009-05-30T08:23:30Z</time>
      </trkpt>
      <trkpt lat="45.36684" lon="5.62558">
        <ele>391</ele>
        <time>2009-05-30T08:23:48Z</time>
      </trkpt>
      <trkpt lat="45.36699" lon="5.62682">
        <ele>390</ele>
        <time>2009-05-30T08:24:01Z</time>
      </trkpt>
      <trkpt lat="45.36703" lon="5.62704">
        <ele>390</ele>
        <time>2009-05-30T08:24:04Z</time>
      </trkpt>
      <trkpt lat="45.36748" lon="5.62839">
        <ele>389</ele>
        <time>2009-05-30T08:24:22Z</time>
      </trkpt>
      <trkpt lat="45.36763" lon="5.62876">
        <ele>390</ele>
        <time>2009-05-30T08:24:28Z</time>
      </trkpt>
      <trkpt lat="45.36778" lon="5.62873">
        <ele>390</ele>
        <time>2009-05-30T08:24:32Z</time>
      </trkpt>
      <trkpt lat="45.36806" lon="5.62854">
        <ele>391</ele>
        <time>2009-05-30T08:24:40Z</time>
      </trkpt>
      <trkpt lat="45.36819" lon="5.62839">
        <ele>392</ele>
        <time>2009-05-30T08:24:45Z</time>
      </trkpt>
      <trkpt lat="45.36826" lon="5.6283">
        <ele>394</ele>
        <time>2009-05-30T08:24:48Z</time>
      </trkpt>
      <trkpt lat="45.36836" lon="5.62826">
        <ele>394</ele>
        <time>2009-05-30T08:24:52Z</time>
      </trkpt>
      <trkpt lat="45.36841" lon="5.62826">
        <ele>394</ele>
        <time>2009-05-30T08:24:54Z</time>
      </trkpt>
      <trkpt lat="45.36849" lon="5.62826">
        <ele>395</ele>
        <time>2009-05-30T08:24:58Z</time>
      </trkpt>
      <trkpt lat="45.3686" lon="5.6283">
        <ele>396</ele>
        <time>2009-05-30T08:25:03Z</time>
      </trkpt>
      <trkpt lat="45.36877" lon="5.62845">
        <ele>397</ele>
        <time>2009-05-30T08:25:16Z</time>
      </trkpt>
      <trkpt lat="45.36886" lon="5.62843">
        <ele>398</ele>
        <time>2009-05-30T08:25:22Z</time>
      </trkpt>
      <trkpt lat="45.3689" lon="5.62839">
        <ele>399</ele>
        <time>2009-05-30T08:25:26Z</time>
      </trkpt>
      <trkpt lat="45.36896" lon="5.62826">
        <ele>403</ele>
        <time>2009-05-30T08:25:34Z</time>
      </trkpt>
      <trkpt lat="45.36896" lon="5.6282">
        <ele>404</ele>
        <time>2009-05-30T08:25:36Z</time>
      </trkpt>
      <trkpt lat="45.36899" lon="5.6279">
        <ele>403</ele>
        <time>2009-05-30T08:25:48Z</time>
      </trkpt>
      <trkpt lat="45.3689" lon="5.62738">
        <ele>410</ele>
        <time>2009-05-30T08:26:08Z</time>
      </trkpt>
      <trkpt lat="45.36884" lon="5.6271">
        <ele>414</ele>
        <time>2009-05-30T08:26:18Z</time>
      </trkpt>
      <trkpt lat="45.36884" lon="5.62706">
        <ele>417</ele>
        <time>2009-05-30T08:26:20Z</time>
      </trkpt>
      <trkpt lat="45.36886" lon="5.62693">
        <ele>417</ele>
        <time>2009-05-30T08:26:25Z</time>
      </trkpt>
      <trkpt lat="45.36888" lon="5.62672">
        <ele>420</ele>
        <time>2009-05-30T08:26:33Z</time>
      </trkpt>
      <trkpt lat="45.36892" lon="5.62661">
        <ele>419</ele>
        <time>2009-05-30T08:26:38Z</time>
      </trkpt>
      <trkpt lat="45.36894" lon="5.62655">
        <ele>421</ele>
        <time>2009-05-30T08:26:41Z</time>
      </trkpt>
      <trkpt lat="45.36896" lon="5.62652">
        <ele>421</ele>
        <time>2009-05-30T08:26:43Z</time>
      </trkpt>
      <trkpt lat="45.36901" lon="5.6265">
        <ele>421</ele>
        <time>2009-05-30T08:26:46Z</time>
      </trkpt>
      <trkpt lat="45.36903" lon="5.62648">
        <ele>422</ele>
        <time>2009-05-30T08:26:48Z</time>
      </trkpt>
      <trkpt lat="45.36907" lon="5.62646">
        <ele>422</ele>
        <time>2009-05-30T08:26:51Z</time>
      </trkpt>
      <trkpt lat="45.36911" lon="5.62646">
        <ele>422</ele>
        <time>2009-05-30T08:26:55Z</time>
      </trkpt>
      <trkpt lat="45.36916" lon="5.62644">
        <ele>423</ele>
        <time>2009-05-30T08:26:58Z</time>
      </trkpt>
      <trkpt lat="45.3692" lon="5.62644">
        <ele>423</ele>
        <time>2009-05-30T08:27:01Z</time>
      </trkpt>
      <trkpt lat="45.36922" lon="5.62644">
        <ele>425</ele>
        <time>2009-05-30T08:27:04Z</time>
      </trkpt>
      <trkpt lat="45.36927" lon="5.62646">
        <ele>426</ele>
        <time>2009-05-30T08:27:08Z</time>
      </trkpt>
      <trkpt lat="45.36931" lon="5.62644">
        <ele>427</ele>
        <time>2009-05-30T08:27:11Z</time>
      </trkpt>
      <trkpt lat="45.36933" lon="5.62642">
        <ele>428</ele>
        <time>2009-05-30T08:27:14Z</time>
      </trkpt>
      <trkpt lat="45.36948" lon="5.62627">
        <ele>429</ele>
        <time>2009-05-30T08:27:25Z</time>
      </trkpt>
      <trkpt lat="45.3695" lon="5.62622">
        <ele>430</ele>
        <time>2009-05-30T08:27:34Z</time>
      </trkpt>
      <trkpt lat="45.36952" lon="5.6262">
        <ele>431</ele>
        <time>2009-05-30T08:27:37Z</time>
      </trkpt>
      <trkpt lat="45.36969" lon="5.62588">
        <ele>432</ele>
        <time>2009-05-30T08:27:55Z</time>
      </trkpt>
      <trkpt lat="45.36976" lon="5.62584">
        <ele>435</ele>
        <time>2009-05-30T08:28:00Z</time>
      </trkpt>
      <trkpt lat="45.36978" lon="5.62582">
        <ele>437</ele>
        <time>2009-05-30T08:28:02Z</time>
      </trkpt>
      <trkpt lat="45.36982" lon="5.62573">
        <ele>438</ele>
        <time>2009-05-30T08:28:07Z</time>
      </trkpt>
      <trkpt lat="45.36995" lon="5.62534">
        <ele>440</ele>
        <time>2009-05-30T08:28:22Z</time>
      </trkpt>
      <trkpt lat="45.36995" lon="5.6253">
        <ele>441</ele>
        <time>2009-05-30T08:28:24Z</time>
      </trkpt>
      <trkpt lat="45.37021" lon="5.62459">
        <ele>444</ele>
        <time>2009-05-30T08:28:47Z</time>
      </trkpt>
      <trkpt lat="45.37027" lon="5.62442">
        <ele>445</ele>
        <time>2009-05-30T08:28:52Z</time>
      </trkpt>
      <trkpt lat="45.37053" lon="5.62391">
        <ele>448</ele>
        <time>2009-05-30T08:29:11Z</time>
      </trkpt>
      <trkpt lat="45.3706" lon="5.62388">
        <ele>450</ele>
        <time>2009-05-30T08:29:14Z</time>
      </trkpt>
      <trkpt lat="45.37064" lon="5.62384">
        <ele>451</ele>
        <time>2009-05-30T08:29:17Z</time>
      </trkpt>
      <trkpt lat="45.37066" lon="5.62382">
        <ele>451</ele>
        <time>2009-05-30T08:29:18Z</time>
      </trkpt>
      <trkpt lat="45.37079" lon="5.62367">
        <ele>451</ele>
        <time>2009-05-30T08:29:25Z</time>
      </trkpt>
      <trkpt lat="45.37085" lon="5.62361">
        <ele>449</ele>
        <time>2009-05-30T08:29:29Z</time>
      </trkpt>
      <trkpt lat="45.37096" lon="5.62354">
        <ele>450</ele>
        <time>2009-05-30T08:29:34Z</time>
      </trkpt>
      <trkpt lat="45.37126" lon="5.62322">
        <ele>455</ele>
        <time>2009-05-30T08:29:54Z</time>
      </trkpt>
      <trkpt lat="45.37135" lon="5.62313">
        <ele>457</ele>
        <time>2009-05-30T08:30:00Z</time>
      </trkpt>
      <trkpt lat="45.3715" lon="5.62305">
        <ele>461</ele>
        <time>2009-05-30T08:30:10Z</time>
      </trkpt>
      <trkpt lat="45.3716" lon="5.62296">
        <ele>461</ele>
        <time>2009-05-30T08:30:17Z</time>
      </trkpt>
      <trkpt lat="45.37165" lon="5.62292">
        <ele>463</ele>
        <time>2009-05-30T08:30:20Z</time>
      </trkpt>
      <trkpt lat="45.37167" lon="5.62292">
        <ele>463</ele>
        <time>2009-05-30T08:30:22Z</time>
      </trkpt>
      <trkpt lat="45.37178" lon="5.62281">
        <ele>465</ele>
        <time>2009-05-30T08:30:30Z</time>
      </trkpt>
      <trkpt lat="45.3718" lon="5.62279">
        <ele>466</ele>
        <time>2009-05-30T08:30:32Z</time>
      </trkpt>
      <trkpt lat="45.37182" lon="5.62273">
        <ele>467</ele>
        <time>2009-05-30T08:30:35Z</time>
      </trkpt>
      <trkpt lat="45.37184" lon="5.62273">
        <ele>467</ele>
        <time>2009-05-30T08:30:36Z</time>
      </trkpt>
      <trkpt lat="45.37199" lon="5.6224">
        <ele>469</ele>
        <time>2009-05-30T08:30:51Z</time>
      </trkpt>
      <trkpt lat="45.37203" lon="5.62234">
        <ele>470</ele>
        <time>2009-05-30T08:30:53Z</time>
      </trkpt>
      <trkpt lat="45.3721" lon="5.62219">
        <ele>470</ele>
        <time>2009-05-30T08:30:58Z</time>
      </trkpt>
      <trkpt lat="45.37214" lon="5.6221">
        <ele>470</ele>
        <time>2009-05-30T08:31:01Z</time>
      </trkpt>
      <trkpt lat="45.37216" lon="5.62206">
        <ele>470</ele>
        <time>2009-05-30T08:31:03Z</time>
      </trkpt>
      <trkpt lat="45.37227" lon="5.62189">
        <ele>470</ele>
        <time>2009-05-30T08:31:10Z</time>
      </trkpt>
      <trkpt lat="45.37231" lon="5.62182">
        <ele>470</ele>
        <time>2009-05-30T08:31:13Z</time>
      </trkpt>
      <trkpt lat="45.37236" lon="5.62174">
        <ele>469</ele>
        <time>2009-05-30T08:31:17Z</time>
      </trkpt>
      <trkpt lat="45.37244" lon="5.62163">
        <ele>469</ele>
        <time>2009-05-30T08:31:23Z</time>
      </trkpt>
      <trkpt lat="45.37248" lon="5.62157">
        <ele>469</ele>
        <time>2009-05-30T08:31:26Z</time>
      </trkpt>
      <trkpt lat="45.37253" lon="5.6215">
        <ele>469</ele>
        <time>2009-05-30T08:31:30Z</time>
      </trkpt>
      <trkpt lat="45.37257" lon="5.62144">
        <ele>470</ele>
        <time>2009-05-30T08:31:33Z</time>
      </trkpt>
      <trkpt lat="45.37261" lon="5.62142">
        <ele>470</ele>
        <time>2009-05-30T08:31:35Z</time>
      </trkpt>
      <trkpt lat="45.37266" lon="5.62137">
        <ele>470</ele>
        <time>2009-05-30T08:31:38Z</time>
      </trkpt>
      <trkpt lat="45.37272" lon="5.62133">
        <ele>471</ele>
        <time>2009-05-30T08:31:41Z</time>
      </trkpt>
      <trkpt lat="45.37274" lon="5.62131">
        <ele>471</ele>
        <time>2009-05-30T08:31:43Z</time>
      </trkpt>
      <trkpt lat="45.37291" lon="5.62116">
        <ele>474</ele>
        <time>2009-05-30T08:31:52Z</time>
      </trkpt>
      <trkpt lat="45.37293" lon="5.62109">
        <ele>475</ele>
        <time>2009-05-30T08:31:55Z</time>
      </trkpt>
      <trkpt lat="45.37298" lon="5.62097">
        <ele>476</ele>
        <time>2009-05-30T08:32:00Z</time>
      </trkpt>
      <trkpt lat="45.37304" lon="5.62082">
        <ele>477</ele>
        <time>2009-05-30T08:32:07Z</time>
      </trkpt>
      <trkpt lat="45.37311" lon="5.62069">
        <ele>477</ele>
        <time>2009-05-30T08:32:13Z</time>
      </trkpt>
      <trkpt lat="45.37313" lon="5.62064">
        <ele>478</ele>
        <time>2009-05-30T08:32:15Z</time>
      </trkpt>
      <trkpt lat="45.37319" lon="5.62052">
        <ele>479</ele>
        <time>2009-05-30T08:32:21Z</time>
      </trkpt>
      <trkpt lat="45.37319" lon="5.62049">
        <ele>479</ele>
        <time>2009-05-30T08:32:22Z</time>
      </trkpt>
      <trkpt lat="45.37326" lon="5.62034">
        <ele>481</ele>
        <time>2009-05-30T08:32:29Z</time>
      </trkpt>
      <trkpt lat="45.37328" lon="5.62032">
        <ele>482</ele>
        <time>2009-05-30T08:32:31Z</time>
      </trkpt>
      <trkpt lat="45.3733" lon="5.62028">
        <ele>482</ele>
        <time>2009-05-30T08:32:33Z</time>
      </trkpt>
      <trkpt lat="45.37332" lon="5.62021">
        <ele>483</ele>
        <time>2009-05-30T08:32:36Z</time>
      </trkpt>
      <trkpt lat="45.37334" lon="5.62019">
        <ele>483</ele>
        <time>2009-05-30T08:32:37Z</time>
      </trkpt>
      <trkpt lat="45.37339" lon="5.62009">
        <ele>485</ele>
        <time>2009-05-30T08:32:43Z</time>
      </trkpt>
      <trkpt lat="45.37341" lon="5.62002">
        <ele>486</ele>
        <time>2009-05-30T08:32:46Z</time>
      </trkpt>
      <trkpt lat="45.37349" lon="5.62">
        <ele>489</ele>
        <time>2009-05-30T08:32:52Z</time>
      </trkpt>
      <trkpt lat="45.37351" lon="5.62002">
        <ele>489</ele>
        <time>2009-05-30T08:32:53Z</time>
      </trkpt>
      <trkpt lat="45.37358" lon="5.62028">
        <ele>492</ele>
        <time>2009-05-30T08:33:06Z</time>
      </trkpt>
      <trkpt lat="45.37362" lon="5.62034">
        <ele>493</ele>
        <time>2009-05-30T08:33:10Z</time>
      </trkpt>
      <trkpt lat="45.37364" lon="5.62037">
        <ele>493</ele>
        <time>2009-05-30T08:33:11Z</time>
      </trkpt>
      <trkpt lat="45.37369" lon="5.62039">
        <ele>493</ele>
        <time>2009-05-30T08:33:14Z</time>
      </trkpt>
      <trkpt lat="45.37371" lon="5.62039">
        <ele>493</ele>
        <time>2009-05-30T08:33:16Z</time>
      </trkpt>
      <trkpt lat="45.37377" lon="5.62043">
        <ele>495</ele>
        <time>2009-05-30T08:33:21Z</time>
      </trkpt>
      <trkpt lat="45.37381" lon="5.62045">
        <ele>496</ele>
        <time>2009-05-30T08:33:25Z</time>
      </trkpt>
      <trkpt lat="45.37392" lon="5.62045">
        <ele>500</ele>
        <time>2009-05-30T08:33:34Z</time>
      </trkpt>
      <trkpt lat="45.37394" lon="5.62045">
        <ele>500</ele>
        <time>2009-05-30T08:33:36Z</time>
      </trkpt>
      <trkpt lat="45.37403" lon="5.62047">
        <ele>501</ele>
        <time>2009-05-30T08:33:42Z</time>
      </trkpt>
      <trkpt lat="45.37407" lon="5.62047">
        <ele>502</ele>
        <time>2009-05-30T08:33:45Z</time>
      </trkpt>
      <trkpt lat="45.37409" lon="5.62047">
        <ele>502</ele>
        <time>2009-05-30T08:33:47Z</time>
      </trkpt>
      <trkpt lat="45.37418" lon="5.62047">
        <ele>503</ele>
        <time>2009-05-30T08:33:53Z</time>
      </trkpt>
      <trkpt lat="45.37426" lon="5.62047">
        <ele>504</ele>
        <time>2009-05-30T08:34:01Z</time>
      </trkpt>
      <trkpt lat="45.37429" lon="5.62049">
        <ele>504</ele>
        <time>2009-05-30T08:34:03Z</time>
      </trkpt>
      <trkpt lat="45.37435" lon="5.62052">
        <ele>505</ele>
        <time>2009-05-30T08:34:08Z</time>
      </trkpt>
      <trkpt lat="45.37441" lon="5.62052">
        <ele>506</ele>
        <time>2009-05-30T08:34:12Z</time>
      </trkpt>
      <trkpt lat="45.37446" lon="5.6206">
        <ele>508</ele>
        <time>2009-05-30T08:34:18Z</time>
      </trkpt>
      <trkpt lat="45.37454" lon="5.62039">
        <ele>512</ele>
        <time>2009-05-30T08:34:30Z</time>
      </trkpt>
      <trkpt lat="45.37457" lon="5.62028">
        <ele>514</ele>
        <time>2009-05-30T08:34:36Z</time>
      </trkpt>
      <trkpt lat="45.37457" lon="5.62026">
        <ele>514</ele>
        <time>2009-05-30T08:34:37Z</time>
      </trkpt>
      <trkpt lat="45.37457" lon="5.62015">
        <ele>515</ele>
        <time>2009-05-30T08:34:42Z</time>
      </trkpt>
      <trkpt lat="45.37459" lon="5.61994">
        <ele>516</ele>
        <time>2009-05-30T08:34:51Z</time>
      </trkpt>
      <trkpt lat="45.37461" lon="5.61985">
        <ele>516</ele>
        <time>2009-05-30T08:34:54Z</time>
      </trkpt>
      <trkpt lat="45.37461" lon="5.61983">
        <ele>516</ele>
        <time>2009-05-30T08:34:55Z</time>
      </trkpt>
      <trkpt lat="45.37463" lon="5.61972">
        <ele>516</ele>
        <time>2009-05-30T08:34:59Z</time>
      </trkpt>
      <trkpt lat="45.37467" lon="5.61949">
        <ele>517</ele>
        <time>2009-05-30T08:35:08Z</time>
      </trkpt>
      <trkpt lat="45.37467" lon="5.61942">
        <ele>517</ele>
        <time>2009-05-30T08:35:11Z</time>
      </trkpt>
      <trkpt lat="45.37472" lon="5.61927">
        <ele>519</ele>
        <time>2009-05-30T08:35:17Z</time>
      </trkpt>
      <trkpt lat="45.37474" lon="5.61921">
        <ele>519</ele>
        <time>2009-05-30T08:35:19Z</time>
      </trkpt>
      <trkpt lat="45.37476" lon="5.61912">
        <ele>520</ele>
        <time>2009-05-30T08:35:23Z</time>
      </trkpt>
      <trkpt lat="45.37478" lon="5.61903">
        <ele>520</ele>
        <time>2009-05-30T08:35:26Z</time>
      </trkpt>
      <trkpt lat="45.37482" lon="5.61891">
        <ele>521</ele>
        <time>2009-05-30T08:35:32Z</time>
      </trkpt>
      <trkpt lat="45.37484" lon="5.61886">
        <ele>522</ele>
        <time>2009-05-30T08:35:34Z</time>
      </trkpt>
      <trkpt lat="45.37487" lon="5.61876">
        <ele>522</ele>
        <time>2009-05-30T08:35:38Z</time>
      </trkpt>
      <trkpt lat="45.37487" lon="5.61871">
        <ele>522</ele>
        <time>2009-05-30T08:35:40Z</time>
      </trkpt>
      <trkpt lat="45.37491" lon="5.61854">
        <ele>524</ele>
        <time>2009-05-30T08:35:47Z</time>
      </trkpt>
      <trkpt lat="45.37495" lon="5.61848">
        <ele>524</ele>
        <time>2009-05-30T08:35:50Z</time>
      </trkpt>
      <trkpt lat="45.37497" lon="5.61839">
        <ele>525</ele>
        <time>2009-05-30T08:35:54Z</time>
      </trkpt>
      <trkpt lat="45.37499" lon="5.61831">
        <ele>525</ele>
        <time>2009-05-30T08:35:57Z</time>
      </trkpt>
      <trkpt lat="45.37499" lon="5.61828">
        <ele>525</ele>
        <time>2009-05-30T08:35:58Z</time>
      </trkpt>
      <trkpt lat="45.37502" lon="5.61818">
        <ele>526</ele>
        <time>2009-05-30T08:36:02Z</time>
      </trkpt>
      <trkpt lat="45.37502" lon="5.61811">
        <ele>526</ele>
        <time>2009-05-30T08:36:04Z</time>
      </trkpt>
      <trkpt lat="45.37502" lon="5.61803">
        <ele>526</ele>
        <time>2009-05-30T08:36:07Z</time>
      </trkpt>
      <trkpt lat="45.37502" lon="5.61796">
        <ele>526</ele>
        <time>2009-05-30T08:36:09Z</time>
      </trkpt>
      <trkpt lat="45.37502" lon="5.61781">
        <ele>525</ele>
        <time>2009-05-30T08:36:12Z</time>
      </trkpt>
      <trkpt lat="45.37504" lon="5.61695">
        <ele>522</ele>
        <time>2009-05-30T08:36:23Z</time>
      </trkpt>
      <trkpt lat="45.3751" lon="5.61584">
        <ele>519</ele>
        <time>2009-05-30T08:36:33Z</time>
      </trkpt>
      <trkpt lat="45.37538" lon="5.61522">
        <ele>515</ele>
        <time>2009-05-30T08:36:38Z</time>
      </trkpt>
      <trkpt lat="45.37577" lon="5.61461">
        <ele>512</ele>
        <time>2009-05-30T08:36:44Z</time>
      </trkpt>
      <trkpt lat="45.37613" lon="5.61337">
        <ele>505</ele>
        <time>2009-05-30T08:36:55Z</time>
      </trkpt>
      <trkpt lat="45.37624" lon="5.61313">
        <ele>503</ele>
        <time>2009-05-30T08:36:57Z</time>
      </trkpt>
      <trkpt lat="45.37663" lon="5.61258">
        <ele>501</ele>
        <time>2009-05-30T08:37:04Z</time>
      </trkpt>
      <trkpt lat="45.37688" lon="5.6124">
        <ele>504</ele>
        <time>2009-05-30T08:37:13Z</time>
      </trkpt>
      <trkpt lat="45.37701" lon="5.61228">
        <ele>505</ele>
        <time>2009-05-30T08:37:20Z</time>
      </trkpt>
      <trkpt lat="45.37705" lon="5.61223">
        <ele>506</ele>
        <time>2009-05-30T08:37:22Z</time>
      </trkpt>
      <trkpt lat="45.3771" lon="5.61221">
        <ele>506</ele>
        <time>2009-05-30T08:37:24Z</time>
      </trkpt>
      <trkpt lat="45.37725" lon="5.61208">
        <ele>506</ele>
        <time>2009-05-30T08:37:30Z</time>
      </trkpt>
      <trkpt lat="45.37729" lon="5.61204">
        <ele>506</ele>
        <time>2009-05-30T08:37:32Z</time>
      </trkpt>
      <trkpt lat="45.3775" lon="5.61191">
        <ele>509</ele>
        <time>2009-05-30T08:37:42Z</time>
      </trkpt>
      <trkpt lat="45.37768" lon="5.61185">
        <ele>511</ele>
        <time>2009-05-30T08:37:49Z</time>
      </trkpt>
      <trkpt lat="45.37783" lon="5.6118">
        <ele>512</ele>
        <time>2009-05-30T08:37:55Z</time>
      </trkpt>
      <trkpt lat="45.37787" lon="5.6118">
        <ele>513</ele>
        <time>2009-05-30T08:37:57Z</time>
      </trkpt>
      <trkpt lat="45.37793" lon="5.61178">
        <ele>513</ele>
        <time>2009-05-30T08:38:00Z</time>
      </trkpt>
      <trkpt lat="45.37821" lon="5.61174">
        <ele>516</ele>
        <time>2009-05-30T08:38:12Z</time>
      </trkpt>
      <trkpt lat="45.3783" lon="5.61174">
        <ele>517</ele>
        <time>2009-05-30T08:38:16Z</time>
      </trkpt>
      <trkpt lat="45.37834" lon="5.61174">
        <ele>517</ele>
        <time>2009-05-30T08:38:18Z</time>
      </trkpt>
      <trkpt lat="45.37841" lon="5.61172">
        <ele>517</ele>
        <time>2009-05-30T08:38:21Z</time>
      </trkpt>
      <trkpt lat="45.37864" lon="5.61163">
        <ele>518</ele>
        <time>2009-05-30T08:38:31Z</time>
      </trkpt>
      <trkpt lat="45.37875" lon="5.61161">
        <ele>519</ele>
        <time>2009-05-30T08:38:35Z</time>
      </trkpt>
      <trkpt lat="45.37877" lon="5.61161">
        <ele>519</ele>
        <time>2009-05-30T08:38:36Z</time>
      </trkpt>
      <trkpt lat="45.37937" lon="5.61161">
        <ele>519</ele>
        <time>2009-05-30T08:38:53Z</time>
      </trkpt>
      <trkpt lat="45.37961" lon="5.61161">
        <ele>519</ele>
        <time>2009-05-30T08:39:00Z</time>
      </trkpt>
      <trkpt lat="45.38036" lon="5.61122">
        <ele>518</ele>
        <time>2009-05-30T08:39:20Z</time>
      </trkpt>
      <trkpt lat="45.38083" lon="5.61101">
        <ele>518</ele>
        <time>2009-05-30T08:39:31Z</time>
      </trkpt>
      <trkpt lat="45.38132" lon="5.61095">
        <ele>517</ele>
        <time>2009-05-30T08:39:41Z</time>
      </trkpt>
      <trkpt lat="45.38268" lon="5.61191">
        <ele>515</ele>
        <time>2009-05-30T08:39:56Z</time>
      </trkpt>
      <trkpt lat="45.38317" lon="5.6123">
        <ele>514</ele>
        <time>2009-05-30T08:40:09Z</time>
      </trkpt>
      <trkpt lat="45.38326" lon="5.61223">
        <ele>514</ele>
        <time>2009-05-30T08:40:12Z</time>
      </trkpt>
      <trkpt lat="45.38326" lon="5.61217">
        <ele>514</ele>
        <time>2009-05-30T08:40:14Z</time>
      </trkpt>
      <trkpt lat="45.38328" lon="5.61206">
        <ele>514</ele>
        <time>2009-05-30T08:40:17Z</time>
      </trkpt>
      <trkpt lat="45.3833" lon="5.61204">
        <ele>514</ele>
        <time>2009-05-30T08:40:18Z</time>
      </trkpt>
      <trkpt lat="45.38351" lon="5.61172">
        <ele>515</ele>
        <time>2009-05-30T08:40:33Z</time>
      </trkpt>
      <trkpt lat="45.38362" lon="5.61161">
        <ele>517</ele>
        <time>2009-05-30T08:40:40Z</time>
      </trkpt>
      <trkpt lat="45.38366" lon="5.61159">
        <ele>518</ele>
        <time>2009-05-30T08:40:43Z</time>
      </trkpt>
      <trkpt lat="45.38366" lon="5.61157">
        <ele>518</ele>
        <time>2009-05-30T08:40:44Z</time>
      </trkpt>
      <trkpt lat="45.38373" lon="5.6115">
        <ele>520</ele>
        <time>2009-05-30T08:40:48Z</time>
      </trkpt>
      <trkpt lat="45.38375" lon="5.61125">
        <ele>523</ele>
        <time>2009-05-30T08:40:59Z</time>
      </trkpt>
      <trkpt lat="45.38373" lon="5.6112">
        <ele>524</ele>
        <time>2009-05-30T08:41:01Z</time>
      </trkpt>
      <trkpt lat="45.38371" lon="5.6111">
        <ele>525</ele>
        <time>2009-05-30T08:41:05Z</time>
      </trkpt>
      <trkpt lat="45.38373" lon="5.61097">
        <ele>528</ele>
        <time>2009-05-30T08:41:11Z</time>
      </trkpt>
      <trkpt lat="45.38373" lon="5.6109">
        <ele>529</ele>
        <time>2009-05-30T08:41:13Z</time>
      </trkpt>
      <trkpt lat="45.38375" lon="5.61084">
        <ele>529</ele>
        <time>2009-05-30T08:41:16Z</time>
      </trkpt>
      <trkpt lat="45.38377" lon="5.61077">
        <ele>530</ele>
        <time>2009-05-30T08:41:19Z</time>
      </trkpt>
      <trkpt lat="45.38379" lon="5.61071">
        <ele>530</ele>
        <time>2009-05-30T08:41:22Z</time>
      </trkpt>
      <trkpt lat="45.38379" lon="5.61064">
        <ele>531</ele>
        <time>2009-05-30T08:41:25Z</time>
      </trkpt>
      <trkpt lat="45.38381" lon="5.61054">
        <ele>531</ele>
        <time>2009-05-30T08:41:29Z</time>
      </trkpt>
      <trkpt lat="45.38383" lon="5.61047">
        <ele>532</ele>
        <time>2009-05-30T08:41:32Z</time>
      </trkpt>
      <trkpt lat="45.38383" lon="5.61043">
        <ele>532</ele>
        <time>2009-05-30T08:41:34Z</time>
      </trkpt>
      <trkpt lat="45.38386" lon="5.61041">
        <ele>532</ele>
        <time>2009-05-30T08:41:36Z</time>
      </trkpt>
      <trkpt lat="45.38394" lon="5.61049">
        <ele>534</ele>
        <time>2009-05-30T08:41:47Z</time>
      </trkpt>
      <trkpt lat="45.38394" lon="5.61052">
        <ele>534</ele>
        <time>2009-05-30T08:41:48Z</time>
      </trkpt>
      <trkpt lat="45.38394" lon="5.61054">
        <ele>534</ele>
        <time>2009-05-30T08:41:49Z</time>
      </trkpt>
      <trkpt lat="45.38405" lon="5.61054">
        <ele>536</ele>
        <time>2009-05-30T08:41:58Z</time>
      </trkpt>
      <trkpt lat="45.38405" lon="5.61052">
        <ele>537</ele>
        <time>2009-05-30T08:41:59Z</time>
      </trkpt>
      <trkpt lat="45.38407" lon="5.61024">
        <ele>538</ele>
        <time>2009-05-30T08:42:11Z</time>
      </trkpt>
      <trkpt lat="45.38409" lon="5.61015">
        <ele>539</ele>
        <time>2009-05-30T08:42:15Z</time>
      </trkpt>
      <trkpt lat="45.38411" lon="5.61011">
        <ele>540</ele>
        <time>2009-05-30T08:42:18Z</time>
      </trkpt>
      <trkpt lat="45.38416" lon="5.60994">
        <ele>542</ele>
        <time>2009-05-30T08:42:26Z</time>
      </trkpt>
      <trkpt lat="45.3842" lon="5.60983">
        <ele>543</ele>
        <time>2009-05-30T08:42:31Z</time>
      </trkpt>
      <trkpt lat="45.38422" lon="5.60981">
        <ele>543</ele>
        <time>2009-05-30T08:42:33Z</time>
      </trkpt>
      <trkpt lat="45.38426" lon="5.60974">
        <ele>543</ele>
        <time>2009-05-30T08:42:36Z</time>
      </trkpt>
      <trkpt lat="45.38429" lon="5.6097">
        <ele>543</ele>
        <time>2009-05-30T08:42:39Z</time>
      </trkpt>
      <trkpt lat="45.38437" lon="5.60961">
        <ele>544</ele>
        <time>2009-05-30T08:42:43Z</time>
      </trkpt>
      <trkpt lat="45.38448" lon="5.60951">
        <ele>545</ele>
        <time>2009-05-30T08:42:50Z</time>
      </trkpt>
      <trkpt lat="45.38461" lon="5.60944">
        <ele>546</ele>
        <time>2009-05-30T08:42:57Z</time>
      </trkpt>
      <trkpt lat="45.38474" lon="5.60942">
        <ele>547</ele>
        <time>2009-05-30T08:43:03Z</time>
      </trkpt>
      <trkpt lat="45.3848" lon="5.60942">
        <ele>548</ele>
        <time>2009-05-30T08:43:07Z</time>
      </trkpt>
      <trkpt lat="45.38482" lon="5.60942">
        <ele>548</ele>
        <time>2009-05-30T08:43:08Z</time>
      </trkpt>
      <trkpt lat="45.38491" lon="5.60944">
        <ele>550</ele>
        <time>2009-05-30T08:43:12Z</time>
      </trkpt>
      <trkpt lat="45.38495" lon="5.60944">
        <ele>550</ele>
        <time>2009-05-30T08:43:14Z</time>
      </trkpt>
      <trkpt lat="45.3851" lon="5.60923">
        <ele>552</ele>
        <time>2009-05-30T08:43:26Z</time>
      </trkpt>
      <trkpt lat="45.3851" lon="5.60916">
        <ele>552</ele>
        <time>2009-05-30T08:43:28Z</time>
      </trkpt>
      <trkpt lat="45.3851" lon="5.6091">
        <ele>552</ele>
        <time>2009-05-30T08:43:30Z</time>
      </trkpt>
      <trkpt lat="45.38512" lon="5.60906">
        <ele>552</ele>
        <time>2009-05-30T08:43:32Z</time>
      </trkpt>
      <trkpt lat="45.38512" lon="5.60897">
        <ele>552</ele>
        <time>2009-05-30T08:43:34Z</time>
      </trkpt>
      <trkpt lat="45.38512" lon="5.60889">
        <ele>552</ele>
        <time>2009-05-30T08:43:37Z</time>
      </trkpt>
      <trkpt lat="45.38508" lon="5.60867">
        <ele>553</ele>
        <time>2009-05-30T08:43:45Z</time>
      </trkpt>
      <trkpt lat="45.38504" lon="5.60831">
        <ele>552</ele>
        <time>2009-05-30T08:43:57Z</time>
      </trkpt>
      <trkpt lat="45.38497" lon="5.60794">
        <ele>554</ele>
        <time>2009-05-30T08:44:09Z</time>
      </trkpt>
      <trkpt lat="45.38495" lon="5.6079">
        <ele>554</ele>
        <time>2009-05-30T08:44:11Z</time>
      </trkpt>
      <trkpt lat="45.38478" lon="5.60743">
        <ele>553</ele>
        <time>2009-05-30T08:44:27Z</time>
      </trkpt>
      <trkpt lat="45.38476" lon="5.60736">
        <ele>553</ele>
        <time>2009-05-30T08:44:29Z</time>
      </trkpt>
      <trkpt lat="45.38467" lon="5.60706">
        <ele>552</ele>
        <time>2009-05-30T08:44:36Z</time>
      </trkpt>
      <trkpt lat="45.38459" lon="5.60637">
        <ele>550</ele>
        <time>2009-05-30T08:44:56Z</time>
      </trkpt>
      <trkpt lat="45.38459" lon="5.60629">
        <ele>555</ele>
        <time>2009-05-30T08:44:59Z</time>
      </trkpt>
      <trkpt lat="45.38456" lon="5.60599">
        <ele>557</ele>
        <time>2009-05-30T08:45:10Z</time>
      </trkpt>
      <trkpt lat="45.38456" lon="5.60597">
        <ele>558</ele>
        <time>2009-05-30T08:45:14Z</time>
      </trkpt>
      <trkpt lat="45.38459" lon="5.60582">
        <ele>558</ele>
        <time>2009-05-30T08:45:20Z</time>
      </trkpt>
      <trkpt lat="45.38465" lon="5.60541">
        <ele>560</ele>
        <time>2009-05-30T08:45:37Z</time>
      </trkpt>
      <trkpt lat="45.38467" lon="5.60526">
        <ele>562</ele>
        <time>2009-05-30T08:45:43Z</time>
      </trkpt>
      <trkpt lat="45.38467" lon="5.60519">
        <ele>562</ele>
        <time>2009-05-30T08:45:46Z</time>
      </trkpt>
      <trkpt lat="45.38467" lon="5.60513">
        <ele>563</ele>
        <time>2009-05-30T08:45:49Z</time>
      </trkpt>
      <trkpt lat="45.38471" lon="5.60498">
        <ele>563</ele>
        <time>2009-05-30T08:45:55Z</time>
      </trkpt>
      <trkpt lat="45.38471" lon="5.60489">
        <ele>564</ele>
        <time>2009-05-30T08:45:59Z</time>
      </trkpt>
      <trkpt lat="45.38474" lon="5.60479">
        <ele>564</ele>
        <time>2009-05-30T08:46:04Z</time>
      </trkpt>
      <trkpt lat="45.38474" lon="5.60474">
        <ele>565</ele>
        <time>2009-05-30T08:46:06Z</time>
      </trkpt>
      <trkpt lat="45.38476" lon="5.60468">
        <ele>566</ele>
        <time>2009-05-30T08:46:10Z</time>
      </trkpt>
      <trkpt lat="45.38476" lon="5.60464">
        <ele>567</ele>
        <time>2009-05-30T08:46:12Z</time>
      </trkpt>
      <trkpt lat="45.38476" lon="5.60459">
        <ele>568</ele>
        <time>2009-05-30T08:46:14Z</time>
      </trkpt>
      <trkpt lat="45.38478" lon="5.60451">
        <ele>572</ele>
        <time>2009-05-30T08:46:19Z</time>
      </trkpt>
      <trkpt lat="45.3848" lon="5.60436">
        <ele>575</ele>
        <time>2009-05-30T08:46:26Z</time>
      </trkpt>
      <trkpt lat="45.38482" lon="5.60423">
        <ele>576</ele>
        <time>2009-05-30T08:46:33Z</time>
      </trkpt>
      <trkpt lat="45.38484" lon="5.60414">
        <ele>578</ele>
        <time>2009-05-30T08:46:37Z</time>
      </trkpt>
      <trkpt lat="45.38486" lon="5.6041">
        <ele>577</ele>
        <time>2009-05-30T08:46:40Z</time>
      </trkpt>
      <trkpt lat="45.38486" lon="5.60408">
        <ele>578</ele>
        <time>2009-05-30T08:46:41Z</time>
      </trkpt>
      <trkpt lat="45.38493" lon="5.60386">
        <ele>578</ele>
        <time>2009-05-30T08:46:53Z</time>
      </trkpt>
      <trkpt lat="45.38495" lon="5.60384">
        <ele>578</ele>
        <time>2009-05-30T08:46:55Z</time>
      </trkpt>
      <trkpt lat="45.38504" lon="5.60359">
        <ele>579</ele>
        <time>2009-05-30T08:47:11Z</time>
      </trkpt>
      <trkpt lat="45.38525" lon="5.60328">
        <ele>584</ele>
        <time>2009-05-30T08:47:35Z</time>
      </trkpt>
      <trkpt lat="45.38529" lon="5.60322">
        <ele>584</ele>
        <time>2009-05-30T08:47:41Z</time>
      </trkpt>
      <trkpt lat="45.38532" lon="5.60318">
        <ele>584</ele>
        <time>2009-05-30T08:47:44Z</time>
      </trkpt>
      <trkpt lat="45.3854" lon="5.60307">
        <ele>583</ele>
        <time>2009-05-30T08:47:52Z</time>
      </trkpt>
      <trkpt lat="45.38547" lon="5.60301">
        <ele>588</ele>
        <time>2009-05-30T08:47:59Z</time>
      </trkpt>
      <trkpt lat="45.38549" lon="5.60298">
        <ele>588</ele>
        <time>2009-05-30T08:48:01Z</time>
      </trkpt>
      <trkpt lat="45.38555" lon="5.60292">
        <ele>591</ele>
        <time>2009-05-30T08:48:07Z</time>
      </trkpt>
      <trkpt lat="45.38557" lon="5.60288">
        <ele>591</ele>
        <time>2009-05-30T08:48:10Z</time>
      </trkpt>
      <trkpt lat="45.38562" lon="5.60281">
        <ele>592</ele>
        <time>2009-05-30T08:48:15Z</time>
      </trkpt>
      <trkpt lat="45.38572" lon="5.60262">
        <ele>596</ele>
        <time>2009-05-30T08:48:26Z</time>
      </trkpt>
      <trkpt lat="45.38577" lon="5.60256">
        <ele>598</ele>
        <time>2009-05-30T08:48:31Z</time>
      </trkpt>
      <trkpt lat="45.38583" lon="5.60249">
        <ele>599</ele>
        <time>2009-05-30T08:48:36Z</time>
      </trkpt>
      <trkpt lat="45.38585" lon="5.60241">
        <ele>599</ele>
        <time>2009-05-30T08:48:40Z</time>
      </trkpt>
      <trkpt lat="45.38589" lon="5.60223">
        <ele>599</ele>
        <time>2009-05-30T08:48:50Z</time>
      </trkpt>
      <trkpt lat="45.38589" lon="5.60219">
        <ele>597</ele>
        <time>2009-05-30T08:48:52Z</time>
      </trkpt>
      <trkpt lat="45.38587" lon="5.60208">
        <ele>597</ele>
        <time>2009-05-30T08:48:55Z</time>
      </trkpt>
      <trkpt lat="45.38579" lon="5.60178">
        <ele>596</ele>
        <time>2009-05-30T08:49:05Z</time>
      </trkpt>
      <trkpt lat="45.38574" lon="5.60161">
        <ele>596</ele>
        <time>2009-05-30T08:49:11Z</time>
      </trkpt>
      <trkpt lat="45.38523" lon="5.59998">
        <ele>593</ele>
        <time>2009-05-30T08:49:28Z</time>
      </trkpt>
      <trkpt lat="45.38521" lon="5.59987">
        <ele>592</ele>
        <time>2009-05-30T08:49:30Z</time>
      </trkpt>
      <trkpt lat="45.38517" lon="5.59942">
        <ele>592</ele>
        <time>2009-05-30T08:49:40Z</time>
      </trkpt>
      <trkpt lat="45.3851" lon="5.59917">
        <ele>592</ele>
        <time>2009-05-30T08:49:45Z</time>
      </trkpt>
      <trkpt lat="45.38512" lon="5.59895">
        <ele>587</ele>
        <time>2009-05-30T08:49:52Z</time>
      </trkpt>
      <trkpt lat="45.38514" lon="5.59882">
        <ele>580</ele>
        <time>2009-05-30T08:49:56Z</time>
      </trkpt>
      <trkpt lat="45.38523" lon="5.5988">
        <ele>576</ele>
        <time>2009-05-30T08:50:00Z</time>
      </trkpt>
      <trkpt lat="45.3854" lon="5.59874">
        <ele>573</ele>
        <time>2009-05-30T08:50:06Z</time>
      </trkpt>
      <trkpt lat="45.38594" lon="5.59852">
        <ele>568</ele>
        <time>2009-05-30T08:50:24Z</time>
      </trkpt>
      <trkpt lat="45.386" lon="5.59839">
        <ele>568</ele>
        <time>2009-05-30T08:50:27Z</time>
      </trkpt>
      <trkpt lat="45.38617" lon="5.59833">
        <ele>565</ele>
        <time>2009-05-30T08:50:30Z</time>
      </trkpt>
      <trkpt lat="45.38635" lon="5.59829">
        <ele>566</ele>
        <time>2009-05-30T08:50:33Z</time>
      </trkpt>
      <trkpt lat="45.38688" lon="5.59783">
        <ele>563</ele>
        <time>2009-05-30T08:50:45Z</time>
      </trkpt>
      <trkpt lat="45.38733" lon="5.59741">
        <ele>563</ele>
        <time>2009-05-30T08:50:58Z</time>
      </trkpt>
      <trkpt lat="45.38746" lon="5.597">
        <ele>562</ele>
        <time>2009-05-30T08:51:02Z</time>
      </trkpt>
      <trkpt lat="45.38757" lon="5.59672">
        <ele>561</ele>
        <time>2009-05-30T08:51:05Z</time>
      </trkpt>
      <trkpt lat="45.38765" lon="5.59659">
        <ele>560</ele>
        <time>2009-05-30T08:51:07Z</time>
      </trkpt>
      <trkpt lat="45.38778" lon="5.5965">
        <ele>558</ele>
        <time>2009-05-30T08:51:09Z</time>
      </trkpt>
      <trkpt lat="45.38849" lon="5.59623">
        <ele>552</ele>
        <time>2009-05-30T08:51:14Z</time>
      </trkpt>
      <trkpt lat="45.38868" lon="5.59623">
        <ele>549</ele>
        <time>2009-05-30T08:51:17Z</time>
      </trkpt>
      <trkpt lat="45.38879" lon="5.59618">
        <ele>547</ele>
        <time>2009-05-30T08:51:19Z</time>
      </trkpt>
      <trkpt lat="45.38896" lon="5.59608">
        <ele>542</ele>
        <time>2009-05-30T08:51:24Z</time>
      </trkpt>
      <trkpt lat="45.38907" lon="5.59588">
        <ele>539</ele>
        <time>2009-05-30T08:51:28Z</time>
      </trkpt>
      <trkpt lat="45.38922" lon="5.59552">
        <ele>533</ele>
        <time>2009-05-30T08:51:35Z</time>
      </trkpt>
      <trkpt lat="45.38948" lon="5.59528">
        <ele>529</ele>
        <time>2009-05-30T08:51:42Z</time>
      </trkpt>
      <trkpt lat="45.39006" lon="5.59474">
        <ele>525</ele>
        <time>2009-05-30T08:51:58Z</time>
      </trkpt>
      <trkpt lat="45.39023" lon="5.59466">
        <ele>526</ele>
        <time>2009-05-30T08:52:03Z</time>
      </trkpt>
      <trkpt lat="45.39044" lon="5.59459">
        <ele>526</ele>
        <time>2009-05-30T08:52:09Z</time>
      </trkpt>
      <trkpt lat="45.39055" lon="5.59451">
        <ele>525</ele>
        <time>2009-05-30T08:52:12Z</time>
      </trkpt>
      <trkpt lat="45.39115" lon="5.59386">
        <ele>522</ele>
        <time>2009-05-30T08:52:29Z</time>
      </trkpt>
      <trkpt lat="45.39128" lon="5.59378">
        <ele>520</ele>
        <time>2009-05-30T08:52:32Z</time>
      </trkpt>
      <trkpt lat="45.39207" lon="5.59333">
        <ele>517</ele>
        <time>2009-05-30T08:52:51Z</time>
      </trkpt>
      <trkpt lat="45.39285" lon="5.59262">
        <ele>513</ele>
        <time>2009-05-30T08:53:09Z</time>
      </trkpt>
      <trkpt lat="45.39298" lon="5.59245">
        <ele>513</ele>
        <time>2009-05-30T08:53:13Z</time>
      </trkpt>
      <trkpt lat="45.39298" lon="5.59219">
        <ele>513</ele>
        <time>2009-05-30T08:53:17Z</time>
      </trkpt>
      <trkpt lat="45.39293" lon="5.59196">
        <ele>512</ele>
        <time>2009-05-30T08:53:21Z</time>
      </trkpt>
      <trkpt lat="45.39295" lon="5.59176">
        <ele>512</ele>
        <time>2009-05-30T08:53:24Z</time>
      </trkpt>
      <trkpt lat="45.39306" lon="5.59172">
        <ele>512</ele>
        <time>2009-05-30T08:53:26Z</time>
      </trkpt>
      <trkpt lat="45.39319" lon="5.5917">
        <ele>512</ele>
        <time>2009-05-30T08:53:29Z</time>
      </trkpt>
      <trkpt lat="45.39377" lon="5.59135">
        <ele>512</ele>
        <time>2009-05-30T08:53:45Z</time>
      </trkpt>
      <trkpt lat="45.39437" lon="5.59043">
        <ele>510</ele>
        <time>2009-05-30T08:53:59Z</time>
      </trkpt>
      <trkpt lat="45.39639" lon="5.58788">
        <ele>505</ele>
        <time>2009-05-30T08:54:49Z</time>
      </trkpt>
      <trkpt lat="45.39665" lon="5.58762">
        <ele>505</ele>
        <time>2009-05-30T08:54:57Z</time>
      </trkpt>
      <trkpt lat="45.39669" lon="5.58743">
        <ele>505</ele>
        <time>2009-05-30T08:55:05Z</time>
      </trkpt>
      <trkpt lat="45.39665" lon="5.58736">
        <ele>505</ele>
        <time>2009-05-30T08:55:07Z</time>
      </trkpt>
      <trkpt lat="45.3966" lon="5.58732">
        <ele>505</ele>
        <time>2009-05-30T08:55:09Z</time>
      </trkpt>
      <trkpt lat="45.39619" lon="5.58676">
        <ele>505</ele>
        <time>2009-05-30T08:55:32Z</time>
      </trkpt>
      <trkpt lat="45.39609" lon="5.58668">
        <ele>503</ele>
        <time>2009-05-30T08:55:37Z</time>
      </trkpt>
      <trkpt lat="45.39592" lon="5.58659">
        <ele>505</ele>
        <time>2009-05-30T08:55:45Z</time>
      </trkpt>
      <trkpt lat="45.39585" lon="5.58655">
        <ele>505</ele>
        <time>2009-05-30T08:55:48Z</time>
      </trkpt>
      <trkpt lat="45.39553" lon="5.58595">
        <ele>513</ele>
        <time>2009-05-30T08:56:13Z</time>
      </trkpt>
      <trkpt lat="45.39549" lon="5.58588">
        <ele>514</ele>
        <time>2009-05-30T08:56:16Z</time>
      </trkpt>
      <trkpt lat="45.39544" lon="5.5858">
        <ele>515</ele>
        <time>2009-05-30T08:56:20Z</time>
      </trkpt>
      <trkpt lat="45.39542" lon="5.58575">
        <ele>515</ele>
        <time>2009-05-30T08:56:22Z</time>
      </trkpt>
      <trkpt lat="45.39536" lon="5.58565">
        <ele>516</ele>
        <time>2009-05-30T08:56:27Z</time>
      </trkpt>
      <trkpt lat="45.39531" lon="5.58558">
        <ele>517</ele>
        <time>2009-05-30T08:56:31Z</time>
      </trkpt>
      <trkpt lat="45.39527" lon="5.58552">
        <ele>518</ele>
        <time>2009-05-30T08:56:34Z</time>
      </trkpt>
      <trkpt lat="45.39525" lon="5.5855">
        <ele>518</ele>
        <time>2009-05-30T08:56:35Z</time>
      </trkpt>
      <trkpt lat="45.39516" lon="5.58539">
        <ele>518</ele>
        <time>2009-05-30T08:56:41Z</time>
      </trkpt>
      <trkpt lat="45.39512" lon="5.58532">
        <ele>519</ele>
        <time>2009-05-30T08:56:44Z</time>
      </trkpt>
      <trkpt lat="45.39506" lon="5.58524">
        <ele>519</ele>
        <time>2009-05-30T08:56:49Z</time>
      </trkpt>
      <trkpt lat="45.39501" lon="5.58517">
        <ele>521</ele>
        <time>2009-05-30T08:56:53Z</time>
      </trkpt>
      <trkpt lat="45.39497" lon="5.58513">
        <ele>520</ele>
        <time>2009-05-30T08:56:55Z</time>
      </trkpt>
      <trkpt lat="45.39474" lon="5.58481">
        <ele>523</ele>
        <time>2009-05-30T08:57:12Z</time>
      </trkpt>
      <trkpt lat="45.39469" lon="5.58466">
        <ele>527</ele>
        <time>2009-05-30T08:57:19Z</time>
      </trkpt>
      <trkpt lat="45.39465" lon="5.58453">
        <ele>528</ele>
        <time>2009-05-30T08:57:25Z</time>
      </trkpt>
      <trkpt lat="45.39461" lon="5.58442">
        <ele>527</ele>
        <time>2009-05-30T08:57:31Z</time>
      </trkpt>
      <trkpt lat="45.39461" lon="5.58436">
        <ele>527</ele>
        <time>2009-05-30T08:57:34Z</time>
      </trkpt>
      <trkpt lat="45.39461" lon="5.58425">
        <ele>527</ele>
        <time>2009-05-30T08:57:39Z</time>
      </trkpt>
      <trkpt lat="45.39461" lon="5.58421">
        <ele>528</ele>
        <time>2009-05-30T08:57:41Z</time>
      </trkpt>
      <trkpt lat="45.39459" lon="5.58414">
        <ele>529</ele>
        <time>2009-05-30T08:57:44Z</time>
      </trkpt>
      <trkpt lat="45.39456" lon="5.58408">
        <ele>529</ele>
        <time>2009-05-30T08:57:47Z</time>
      </trkpt>
      <trkpt lat="45.39446" lon="5.58374">
        <ele>532</ele>
        <time>2009-05-30T08:57:57Z</time>
      </trkpt>
      <trkpt lat="45.39448" lon="5.58365">
        <ele>533</ele>
        <time>2009-05-30T08:58:00Z</time>
      </trkpt>
      <trkpt lat="45.39448" lon="5.58361">
        <ele>533</ele>
        <time>2009-05-30T08:58:01Z</time>
      </trkpt>
      <trkpt lat="45.39452" lon="5.58352">
        <ele>533</ele>
        <time>2009-05-30T08:58:04Z</time>
      </trkpt>
      <trkpt lat="45.39486" lon="5.58303">
        <ele>532</ele>
        <time>2009-05-30T08:58:18Z</time>
      </trkpt>
      <trkpt lat="45.39504" lon="5.58269">
        <ele>531</ele>
        <time>2009-05-30T08:58:24Z</time>
      </trkpt>
      <trkpt lat="45.3951" lon="5.58243">
        <ele>530</ele>
        <time>2009-05-30T08:58:27Z</time>
      </trkpt>
      <trkpt lat="45.39519" lon="5.58118">
        <ele>526</ele>
        <time>2009-05-30T08:58:40Z</time>
      </trkpt>
      <trkpt lat="45.39531" lon="5.58069">
        <ele>521</ele>
        <time>2009-05-30T08:58:46Z</time>
      </trkpt>
      <trkpt lat="45.39534" lon="5.5806">
        <ele>520</ele>
        <time>2009-05-30T08:58:47Z</time>
      </trkpt>
      <trkpt lat="45.39555" lon="5.5803">
        <ele>517</ele>
        <time>2009-05-30T08:58:52Z</time>
      </trkpt>
      <trkpt lat="45.39619" lon="5.58002">
        <ele>513</ele>
        <time>2009-05-30T08:59:03Z</time>
      </trkpt>
      <trkpt lat="45.39692" lon="5.58037">
        <ele>508</ele>
        <time>2009-05-30T08:59:16Z</time>
      </trkpt>
      <trkpt lat="45.39733" lon="5.58063">
        <ele>506</ele>
        <time>2009-05-30T08:59:25Z</time>
      </trkpt>
      <trkpt lat="45.39733" lon="5.58063">
        <ele>506</ele>
        <time>2009-05-30T08:59:28Z</time>
      </trkpt>
      <trkpt lat="45.39733" lon="5.58063">
        <ele>504</ele>
        <time>2009-05-30T08:59:47Z</time>
      </trkpt>
      <trkpt lat="45.39733" lon="5.5806">
        <ele>504</ele>
        <time>2009-05-30T08:59:51Z</time>
      </trkpt>
      <trkpt lat="45.39737" lon="5.58063">
        <ele>504</ele>
        <time>2009-05-30T08:59:56Z</time>
      </trkpt>
      <trkpt lat="45.3974" lon="5.58063">
        <ele>504</ele>
        <time>2009-05-30T08:59:57Z</time>
      </trkpt>
      <trkpt lat="45.39748" lon="5.58065">
        <ele>504</ele>
        <time>2009-05-30T09:00:00Z</time>
      </trkpt>
      <trkpt lat="45.39759" lon="5.58065">
        <ele>503</ele>
        <time>2009-05-30T09:00:03Z</time>
      </trkpt>
      <trkpt lat="45.39802" lon="5.5806">
        <ele>501</ele>
        <time>2009-05-30T09:00:13Z</time>
      </trkpt>
      <trkpt lat="45.39832" lon="5.58069">
        <ele>500</ele>
        <time>2009-05-30T09:00:19Z</time>
      </trkpt>
      <trkpt lat="45.39903" lon="5.58108">
        <ele>497</ele>
        <time>2009-05-30T09:00:34Z</time>
      </trkpt>
      <trkpt lat="45.39937" lon="5.58114">
        <ele>497</ele>
        <time>2009-05-30T09:00:41Z</time>
      </trkpt>
      <trkpt lat="45.39946" lon="5.58114">
        <ele>497</ele>
        <time>2009-05-30T09:00:45Z</time>
      </trkpt>
      <trkpt lat="45.39969" lon="5.58103">
        <ele>498</ele>
        <time>2009-05-30T09:00:55Z</time>
      </trkpt>
      <trkpt lat="45.39993" lon="5.58097">
        <ele>501</ele>
        <time>2009-05-30T09:01:04Z</time>
      </trkpt>
      <trkpt lat="45.39997" lon="5.58093">
        <ele>501</ele>
        <time>2009-05-30T09:01:10Z</time>
      </trkpt>
      <trkpt lat="45.39997" lon="5.5809">
        <ele>501</ele>
        <time>2009-05-30T09:01:11Z</time>
      </trkpt>
      <trkpt lat="45.39997" lon="5.5809">
        <ele>501</ele>
        <time>2009-05-30T09:01:18Z</time>
      </trkpt>
      <trkpt lat="45.40001" lon="5.58067">
        <ele>501</ele>
        <time>2009-05-30T09:01:24Z</time>
      </trkpt>
      <trkpt lat="45.40025" lon="5.57983">
        <ele>500</ele>
        <time>2009-05-30T09:01:37Z</time>
      </trkpt>
      <trkpt lat="45.40061" lon="5.57882">
        <ele>500</ele>
        <time>2009-05-30T09:01:52Z</time>
      </trkpt>
      <trkpt lat="45.40102" lon="5.57796">
        <ele>499</ele>
        <time>2009-05-30T09:02:05Z</time>
      </trkpt>
      <trkpt lat="45.40109" lon="5.57777">
        <ele>498</ele>
        <time>2009-05-30T09:02:08Z</time>
      </trkpt>
      <trkpt lat="45.40149" lon="5.57676">
        <ele>498</ele>
        <time>2009-05-30T09:02:26Z</time>
      </trkpt>
      <trkpt lat="45.40162" lon="5.57584">
        <ele>498</ele>
        <time>2009-05-30T09:02:41Z</time>
      </trkpt>
      <trkpt lat="45.40175" lon="5.57552">
        <ele>497</ele>
        <time>2009-05-30T09:02:47Z</time>
      </trkpt>
      <trkpt lat="45.40214" lon="5.5746">
        <ele>501</ele>
        <time>2009-05-30T09:03:06Z</time>
      </trkpt>
      <trkpt lat="45.40257" lon="5.57354">
        <ele>500</ele>
        <time>2009-05-30T09:03:26Z</time>
      </trkpt>
      <trkpt lat="45.40261" lon="5.57344">
        <ele>500</ele>
        <time>2009-05-30T09:03:28Z</time>
      </trkpt>
      <trkpt lat="45.40293" lon="5.57254">
        <ele>499</ele>
        <time>2009-05-30T09:03:45Z</time>
      </trkpt>
      <trkpt lat="45.403" lon="5.57236">
        <ele>499</ele>
        <time>2009-05-30T09:03:48Z</time>
      </trkpt>
      <trkpt lat="45.40351" lon="5.57166">
        <ele>498</ele>
        <time>2009-05-30T09:04:05Z</time>
      </trkpt>
      <trkpt lat="45.40381" lon="5.57125">
        <ele>500</ele>
        <time>2009-05-30T09:04:19Z</time>
      </trkpt>
      <trkpt lat="45.40385" lon="5.57116">
        <ele>500</ele>
        <time>2009-05-30T09:04:22Z</time>
      </trkpt>
      <trkpt lat="45.40413" lon="5.57091">
        <ele>502</ele>
        <time>2009-05-30T09:04:34Z</time>
      </trkpt>
      <trkpt lat="45.40435" lon="5.57076">
        <ele>504</ele>
        <time>2009-05-30T09:04:44Z</time>
      </trkpt>
      <trkpt lat="45.40471" lon="5.57041">
        <ele>507</ele>
        <time>2009-05-30T09:05:02Z</time>
      </trkpt>
      <trkpt lat="45.40476" lon="5.57037">
        <ele>507</ele>
        <time>2009-05-30T09:05:04Z</time>
      </trkpt>
      <trkpt lat="45.40488" lon="5.57026">
        <ele>508</ele>
        <time>2009-05-30T09:05:10Z</time>
      </trkpt>
      <trkpt lat="45.40501" lon="5.57013">
        <ele>509</ele>
        <time>2009-05-30T09:05:18Z</time>
      </trkpt>
      <trkpt lat="45.40514" lon="5.57005">
        <ele>510</ele>
        <time>2009-05-30T09:05:24Z</time>
      </trkpt>
      <trkpt lat="45.40553" lon="5.56964">
        <ele>511</ele>
        <time>2009-05-30T09:05:40Z</time>
      </trkpt>
      <trkpt lat="45.40583" lon="5.5693">
        <ele>510</ele>
        <time>2009-05-30T09:05:47Z</time>
      </trkpt>
      <trkpt lat="45.40602" lon="5.56906">
        <ele>509</ele>
        <time>2009-05-30T09:05:53Z</time>
      </trkpt>
      <trkpt lat="45.40611" lon="5.5691">
        <ele>509</ele>
        <time>2009-05-30T09:05:59Z</time>
      </trkpt>
      <trkpt lat="45.40613" lon="5.56912">
        <ele>510</ele>
        <time>2009-05-30T09:06:00Z</time>
      </trkpt>
      <trkpt lat="45.40617" lon="5.56919">
        <ele>510</ele>
        <time>2009-05-30T09:06:04Z</time>
      </trkpt>
      <trkpt lat="45.40617" lon="5.56923">
        <ele>511</ele>
        <time>2009-05-30T09:06:06Z</time>
      </trkpt>
      <trkpt lat="45.40619" lon="5.56932">
        <ele>511</ele>
        <time>2009-05-30T09:06:09Z</time>
      </trkpt>
      <trkpt lat="45.40622" lon="5.56951">
        <ele>513</ele>
        <time>2009-05-30T09:06:17Z</time>
      </trkpt>
      <trkpt lat="45.40622" lon="5.56955">
        <ele>513</ele>
        <time>2009-05-30T09:06:19Z</time>
      </trkpt>
      <trkpt lat="45.40619" lon="5.56966">
        <ele>513</ele>
        <time>2009-05-30T09:06:24Z</time>
      </trkpt>
      <trkpt lat="45.40619" lon="5.56973">
        <ele>514</ele>
        <time>2009-05-30T09:06:26Z</time>
      </trkpt>
      <trkpt lat="45.40617" lon="5.56979">
        <ele>515</ele>
        <time>2009-05-30T09:06:29Z</time>
      </trkpt>
      <trkpt lat="45.40615" lon="5.56994">
        <ele>516</ele>
        <time>2009-05-30T09:06:36Z</time>
      </trkpt>
      <trkpt lat="45.40615" lon="5.57015">
        <ele>518</ele>
        <time>2009-05-30T09:06:48Z</time>
      </trkpt>
      <trkpt lat="45.40615" lon="5.57024">
        <ele>520</ele>
        <time>2009-05-30T09:06:52Z</time>
      </trkpt>
      <trkpt lat="45.40615" lon="5.57028">
        <ele>521</ele>
        <time>2009-05-30T09:06:54Z</time>
      </trkpt>
      <trkpt lat="45.40615" lon="5.57052">
        <ele>522</ele>
        <time>2009-05-30T09:07:04Z</time>
      </trkpt>
      <trkpt lat="45.40617" lon="5.57058">
        <ele>522</ele>
        <time>2009-05-30T09:07:07Z</time>
      </trkpt>
      <trkpt lat="45.40619" lon="5.57069">
        <ele>522</ele>
        <time>2009-05-30T09:07:12Z</time>
      </trkpt>
      <trkpt lat="45.40622" lon="5.57076">
        <ele>522</ele>
        <time>2009-05-30T09:07:15Z</time>
      </trkpt>
      <trkpt lat="45.40632" lon="5.57093">
        <ele>525</ele>
        <time>2009-05-30T09:07:24Z</time>
      </trkpt>
      <trkpt lat="45.40634" lon="5.57106">
        <ele>525</ele>
        <time>2009-05-30T09:07:29Z</time>
      </trkpt>
      <trkpt lat="45.40637" lon="5.57118">
        <ele>528</ele>
        <time>2009-05-30T09:07:34Z</time>
      </trkpt>
      <trkpt lat="45.40634" lon="5.57125">
        <ele>528</ele>
        <time>2009-05-30T09:07:37Z</time>
      </trkpt>
      <trkpt lat="45.40632" lon="5.57129">
        <ele>529</ele>
        <time>2009-05-30T09:07:39Z</time>
      </trkpt>
      <trkpt lat="45.40628" lon="5.5714">
        <ele>528</ele>
        <time>2009-05-30T09:07:44Z</time>
      </trkpt>
      <trkpt lat="45.40619" lon="5.57148">
        <ele>530</ele>
        <time>2009-05-30T09:07:50Z</time>
      </trkpt>
      <trkpt lat="45.40617" lon="5.57151">
        <ele>529</ele>
        <time>2009-05-30T09:07:52Z</time>
      </trkpt>
      <trkpt lat="45.40607" lon="5.57157">
        <ele>534</ele>
        <time>2009-05-30T09:08:00Z</time>
      </trkpt>
      <trkpt lat="45.40602" lon="5.57159">
        <ele>534</ele>
        <time>2009-05-30T09:08:04Z</time>
      </trkpt>
      <trkpt lat="45.406" lon="5.57159">
        <ele>534</ele>
        <time>2009-05-30T09:08:05Z</time>
      </trkpt>
      <trkpt lat="45.40574" lon="5.57168">
        <ele>536</ele>
        <time>2009-05-30T09:08:23Z</time>
      </trkpt>
      <trkpt lat="45.40568" lon="5.5717">
        <ele>537</ele>
        <time>2009-05-30T09:08:27Z</time>
      </trkpt>
      <trkpt lat="45.40559" lon="5.57172">
        <ele>537</ele>
        <time>2009-05-30T09:08:32Z</time>
      </trkpt>
      <trkpt lat="45.40531" lon="5.57215">
        <ele>538</ele>
        <time>2009-05-30T09:08:51Z</time>
      </trkpt>
      <trkpt lat="45.40529" lon="5.57217">
        <ele>539</ele>
        <time>2009-05-30T09:08:52Z</time>
      </trkpt>
      <trkpt lat="45.40529" lon="5.57224">
        <ele>539</ele>
        <time>2009-05-30T09:08:54Z</time>
      </trkpt>
      <trkpt lat="45.40525" lon="5.57243">
        <ele>541</ele>
        <time>2009-05-30T09:09:01Z</time>
      </trkpt>
      <trkpt lat="45.40523" lon="5.57256">
        <ele>542</ele>
        <time>2009-05-30T09:09:06Z</time>
      </trkpt>
      <trkpt lat="45.40523" lon="5.5726">
        <ele>542</ele>
        <time>2009-05-30T09:09:08Z</time>
      </trkpt>
      <trkpt lat="45.40523" lon="5.57269">
        <ele>543</ele>
        <time>2009-05-30T09:09:11Z</time>
      </trkpt>
      <trkpt lat="45.40512" lon="5.57335">
        <ele>545</ele>
        <time>2009-05-30T09:09:29Z</time>
      </trkpt>
      <trkpt lat="45.40508" lon="5.57365">
        <ele>545</ele>
        <time>2009-05-30T09:09:38Z</time>
      </trkpt>
      <trkpt lat="45.4051" lon="5.57378">
        <ele>545</ele>
        <time>2009-05-30T09:09:41Z</time>
      </trkpt>
      <trkpt lat="45.4051" lon="5.57384">
        <ele>544</ele>
        <time>2009-05-30T09:09:43Z</time>
      </trkpt>
      <trkpt lat="45.40512" lon="5.57391">
        <ele>546</ele>
        <time>2009-05-30T09:09:46Z</time>
      </trkpt>
      <trkpt lat="45.40512" lon="5.57442">
        <ele>550</ele>
        <time>2009-05-30T09:10:02Z</time>
      </trkpt>
      <trkpt lat="45.40514" lon="5.57466">
        <ele>550</ele>
        <time>2009-05-30T09:10:08Z</time>
      </trkpt>
      <trkpt lat="45.40519" lon="5.57494">
        <ele>551</ele>
        <time>2009-05-30T09:10:16Z</time>
      </trkpt>
      <trkpt lat="45.40514" lon="5.57511">
        <ele>551</ele>
        <time>2009-05-30T09:10:21Z</time>
      </trkpt>
      <trkpt lat="45.40495" lon="5.57543">
        <ele>551</ele>
        <time>2009-05-30T09:10:33Z</time>
      </trkpt>
      <trkpt lat="45.40488" lon="5.57554">
        <ele>551</ele>
        <time>2009-05-30T09:10:38Z</time>
      </trkpt>
      <trkpt lat="45.40469" lon="5.57582">
        <ele>551</ele>
        <time>2009-05-30T09:10:49Z</time>
      </trkpt>
      <trkpt lat="45.40465" lon="5.5759">
        <ele>552</ele>
        <time>2009-05-30T09:10:53Z</time>
      </trkpt>
      <trkpt lat="45.40461" lon="5.57595">
        <ele>552</ele>
        <time>2009-05-30T09:10:55Z</time>
      </trkpt>
      <trkpt lat="45.40454" lon="5.57606">
        <ele>553</ele>
        <time>2009-05-30T09:11:00Z</time>
      </trkpt>
      <trkpt lat="45.4042" lon="5.57646">
        <ele>559</ele>
        <time>2009-05-30T09:11:21Z</time>
      </trkpt>
      <trkpt lat="45.40418" lon="5.57651">
        <ele>559</ele>
        <time>2009-05-30T09:11:23Z</time>
      </trkpt>
      <trkpt lat="45.40416" lon="5.57653">
        <ele>560</ele>
        <time>2009-05-30T09:11:25Z</time>
      </trkpt>
      <trkpt lat="45.40403" lon="5.5767">
        <ele>563</ele>
        <time>2009-05-30T09:11:34Z</time>
      </trkpt>
      <trkpt lat="45.40409" lon="5.57685">
        <ele>565</ele>
        <time>2009-05-30T09:11:41Z</time>
      </trkpt>
      <trkpt lat="45.40413" lon="5.57687">
        <ele>566</ele>
        <time>2009-05-30T09:11:44Z</time>
      </trkpt>
      <trkpt lat="45.4042" lon="5.57691">
        <ele>566</ele>
        <time>2009-05-30T09:11:48Z</time>
      </trkpt>
      <trkpt lat="45.40428" lon="5.57702">
        <ele>567</ele>
        <time>2009-05-30T09:11:54Z</time>
      </trkpt>
      <trkpt lat="45.40428" lon="5.57719">
        <ele>569</ele>
        <time>2009-05-30T09:12:03Z</time>
      </trkpt>
      <trkpt lat="45.40407" lon="5.57762">
        <ele>570</ele>
        <time>2009-05-30T09:12:20Z</time>
      </trkpt>
      <trkpt lat="45.4037" lon="5.57839">
        <ele>573</ele>
        <time>2009-05-30T09:12:41Z</time>
      </trkpt>
      <trkpt lat="45.40343" lon="5.57915">
        <ele>572</ele>
        <time>2009-05-30T09:12:59Z</time>
      </trkpt>
      <trkpt lat="45.40345" lon="5.57953">
        <ele>572</ele>
        <time>2009-05-30T09:13:05Z</time>
      </trkpt>
      <trkpt lat="45.40345" lon="5.57957">
        <ele>572</ele>
        <time>2009-05-30T09:13:06Z</time>
      </trkpt>
      <trkpt lat="45.40351" lon="5.57972">
        <ele>572</ele>
        <time>2009-05-30T09:13:09Z</time>
      </trkpt>
      <trkpt lat="45.4037" lon="5.58005">
        <ele>572</ele>
        <time>2009-05-30T09:13:17Z</time>
      </trkpt>
      <trkpt lat="45.40418" lon="5.58082">
        <ele>570</ele>
        <time>2009-05-30T09:13:33Z</time>
      </trkpt>
      <trkpt lat="45.40439" lon="5.58123">
        <ele>570</ele>
        <time>2009-05-30T09:13:42Z</time>
      </trkpt>
      <trkpt lat="45.40446" lon="5.5814">
        <ele>569</ele>
        <time>2009-05-30T09:13:46Z</time>
      </trkpt>
      <trkpt lat="45.40458" lon="5.58159">
        <ele>569</ele>
        <time>2009-05-30T09:13:51Z</time>
      </trkpt>
      <trkpt lat="45.40471" lon="5.58172">
        <ele>568</ele>
        <time>2009-05-30T09:13:56Z</time>
      </trkpt>
      <trkpt lat="45.40478" lon="5.58181">
        <ele>568</ele>
        <time>2009-05-30T09:14:00Z</time>
      </trkpt>
      <trkpt lat="45.40478" lon="5.58193">
        <ele>568</ele>
        <time>2009-05-30T09:14:05Z</time>
      </trkpt>
      <trkpt lat="45.4048" lon="5.58198">
        <ele>567</ele>
        <time>2009-05-30T09:14:07Z</time>
      </trkpt>
      <trkpt lat="45.40482" lon="5.58198">
        <ele>568</ele>
        <time>2009-05-30T09:14:11Z</time>
      </trkpt>
      <trkpt lat="45.4048" lon="5.58193">
        <ele>575</ele>
        <time>2009-05-30T09:15:08Z</time>
      </trkpt>
      <trkpt lat="45.40478" lon="5.58196">
        <ele>567</ele>
        <time>2009-05-30T09:15:27Z</time>
      </trkpt>
      <trkpt lat="45.40473" lon="5.58193">
        <ele>561</ele>
        <time>2009-05-30T09:19:57Z</time>
      </trkpt>
      <trkpt lat="45.40473" lon="5.58191">
        <ele>558</ele>
        <time>2009-05-30T09:20:51Z</time>
      </trkpt>
      <trkpt lat="45.40476" lon="5.58191">
        <ele>568</ele>
        <time>2009-05-30T09:21:34Z</time>
      </trkpt>
      <trkpt lat="45.40478" lon="5.58193">
        <ele>565</ele>
        <time>2009-05-30T09:22:13Z</time>
      </trkpt>
      <trkpt lat="45.4048" lon="5.58196">
        <ele>566</ele>
        <time>2009-05-30T09:22:21Z</time>
      </trkpt>
      <trkpt lat="45.40484" lon="5.58198">
        <ele>567</ele>
        <time>2009-05-30T09:22:25Z</time>
      </trkpt>
      <trkpt lat="45.40486" lon="5.58202">
        <ele>567</ele>
        <time>2009-05-30T09:22:26Z</time>
      </trkpt>
      <trkpt lat="45.40473" lon="5.58219">
        <ele>569</ele>
        <time>2009-05-30T09:22:34Z</time>
      </trkpt>
      <trkpt lat="45.40467" lon="5.58217">
        <ele>569</ele>
        <time>2009-05-30T09:22:36Z</time>
      </trkpt>
      <trkpt lat="45.40456" lon="5.58213">
        <ele>570</ele>
        <time>2009-05-30T09:22:40Z</time>
      </trkpt>
      <trkpt lat="45.40437" lon="5.58232">
        <ele>572</ele>
        <time>2009-05-30T09:22:48Z</time>
      </trkpt>
      <trkpt lat="45.40431" lon="5.58243">
        <ele>573</ele>
        <time>2009-05-30T09:22:51Z</time>
      </trkpt>
      <trkpt lat="45.40424" lon="5.5826">
        <ele>575</ele>
        <time>2009-05-30T09:22:56Z</time>
      </trkpt>
      <trkpt lat="45.40424" lon="5.58269">
        <ele>575</ele>
        <time>2009-05-30T09:22:59Z</time>
      </trkpt>
      <trkpt lat="45.40435" lon="5.58271">
        <ele>576</ele>
        <time>2009-05-30T09:23:04Z</time>
      </trkpt>
      <trkpt lat="45.40437" lon="5.58271">
        <ele>576</ele>
        <time>2009-05-30T09:23:05Z</time>
      </trkpt>
      <trkpt lat="45.40443" lon="5.58273">
        <ele>576</ele>
        <time>2009-05-30T09:23:07Z</time>
      </trkpt>
      <trkpt lat="45.40456" lon="5.58273">
        <ele>576</ele>
        <time>2009-05-30T09:23:13Z</time>
      </trkpt>
      <trkpt lat="45.40458" lon="5.58273">
        <ele>576</ele>
        <time>2009-05-30T09:23:14Z</time>
      </trkpt>
      <trkpt lat="45.40482" lon="5.58247">
        <ele>578</ele>
        <time>2009-05-30T09:23:24Z</time>
      </trkpt>
      <trkpt lat="45.40486" lon="5.58243">
        <ele>578</ele>
        <time>2009-05-30T09:23:26Z</time>
      </trkpt>
      <trkpt lat="45.40508" lon="5.58239">
        <ele>578</ele>
        <time>2009-05-30T09:23:33Z</time>
      </trkpt>
      <trkpt lat="45.40514" lon="5.58217">
        <ele>579</ele>
        <time>2009-05-30T09:23:39Z</time>
      </trkpt>
      <trkpt lat="45.40514" lon="5.58206">
        <ele>580</ele>
        <time>2009-05-30T09:23:42Z</time>
      </trkpt>
      <trkpt lat="45.40512" lon="5.58198">
        <ele>581</ele>
        <time>2009-05-30T09:23:45Z</time>
      </trkpt>
      <trkpt lat="45.40501" lon="5.5817">
        <ele>583</ele>
        <time>2009-05-30T09:23:54Z</time>
      </trkpt>
      <trkpt lat="45.40497" lon="5.58155">
        <ele>584</ele>
        <time>2009-05-30T09:23:58Z</time>
      </trkpt>
      <trkpt lat="45.40495" lon="5.58144">
        <ele>585</ele>
        <time>2009-05-30T09:24:01Z</time>
      </trkpt>
      <trkpt lat="45.40495" lon="5.58142">
        <ele>585</ele>
        <time>2009-05-30T09:24:02Z</time>
      </trkpt>
      <trkpt lat="45.40493" lon="5.58131">
        <ele>587</ele>
        <time>2009-05-30T09:24:05Z</time>
      </trkpt>
      <trkpt lat="45.40493" lon="5.58118">
        <ele>588</ele>
        <time>2009-05-30T09:24:09Z</time>
      </trkpt>
      <trkpt lat="45.40491" lon="5.5811">
        <ele>588</ele>
        <time>2009-05-30T09:24:11Z</time>
      </trkpt>
      <trkpt lat="45.40486" lon="5.58073">
        <ele>591</ele>
        <time>2009-05-30T09:24:22Z</time>
      </trkpt>
      <trkpt lat="45.40478" lon="5.58041">
        <ele>594</ele>
        <time>2009-05-30T09:24:31Z</time>
      </trkpt>
      <trkpt lat="45.40467" lon="5.5802">
        <ele>593</ele>
        <time>2009-05-30T09:24:38Z</time>
      </trkpt>
      <trkpt lat="45.40463" lon="5.58009">
        <ele>594</ele>
        <time>2009-05-30T09:24:41Z</time>
      </trkpt>
      <trkpt lat="45.40456" lon="5.57996">
        <ele>596</ele>
        <time>2009-05-30T09:24:45Z</time>
      </trkpt>
      <trkpt lat="45.40454" lon="5.57985">
        <ele>597</ele>
        <time>2009-05-30T09:24:48Z</time>
      </trkpt>
      <trkpt lat="45.40467" lon="5.57949">
        <ele>600</ele>
        <time>2009-05-30T09:25:01Z</time>
      </trkpt>
      <trkpt lat="45.40476" lon="5.57945">
        <ele>600</ele>
        <time>2009-05-30T09:25:05Z</time>
      </trkpt>
      <trkpt lat="45.40486" lon="5.57942">
        <ele>601</ele>
        <time>2009-05-30T09:25:10Z</time>
      </trkpt>
      <trkpt lat="45.40491" lon="5.5794">
        <ele>601</ele>
        <time>2009-05-30T09:25:12Z</time>
      </trkpt>
      <trkpt lat="45.40497" lon="5.57938">
        <ele>601</ele>
        <time>2009-05-30T09:25:15Z</time>
      </trkpt>
      <trkpt lat="45.40504" lon="5.57936">
        <ele>601</ele>
        <time>2009-05-30T09:25:18Z</time>
      </trkpt>
      <trkpt lat="45.40512" lon="5.57934">
        <ele>602</ele>
        <time>2009-05-30T09:25:22Z</time>
      </trkpt>
      <trkpt lat="45.40521" lon="5.57932">
        <ele>602</ele>
        <time>2009-05-30T09:25:26Z</time>
      </trkpt>
      <trkpt lat="45.40531" lon="5.57927">
        <ele>604</ele>
        <time>2009-05-30T09:25:32Z</time>
      </trkpt>
      <trkpt lat="45.4054" lon="5.57923">
        <ele>604</ele>
        <time>2009-05-30T09:25:36Z</time>
      </trkpt>
      <trkpt lat="45.40542" lon="5.57923">
        <ele>604</ele>
        <time>2009-05-30T09:25:37Z</time>
      </trkpt>
      <trkpt lat="45.40546" lon="5.57921">
        <ele>605</ele>
        <time>2009-05-30T09:25:40Z</time>
      </trkpt>
      <trkpt lat="45.40551" lon="5.57921">
        <ele>605</ele>
        <time>2009-05-30T09:25:42Z</time>
      </trkpt>
      <trkpt lat="45.40559" lon="5.57919">
        <ele>606</ele>
        <time>2009-05-30T09:25:47Z</time>
      </trkpt>
      <trkpt lat="45.40568" lon="5.57915">
        <ele>606</ele>
        <time>2009-05-30T09:25:51Z</time>
      </trkpt>
      <trkpt lat="45.40572" lon="5.57915">
        <ele>606</ele>
        <time>2009-05-30T09:25:53Z</time>
      </trkpt>
      <trkpt lat="45.40579" lon="5.57912">
        <ele>608</ele>
        <time>2009-05-30T09:25:57Z</time>
      </trkpt>
      <trkpt lat="45.40581" lon="5.5791">
        <ele>608</ele>
        <time>2009-05-30T09:25:58Z</time>
      </trkpt>
      <trkpt lat="45.40587" lon="5.57906">
        <ele>609</ele>
        <time>2009-05-30T09:26:02Z</time>
      </trkpt>
      <trkpt lat="45.40594" lon="5.57902">
        <ele>610</ele>
        <time>2009-05-30T09:26:05Z</time>
      </trkpt>
      <trkpt lat="45.40622" lon="5.57857">
        <ele>614</ele>
        <time>2009-05-30T09:26:26Z</time>
      </trkpt>
      <trkpt lat="45.40624" lon="5.57854">
        <ele>614</ele>
        <time>2009-05-30T09:26:27Z</time>
      </trkpt>
      <trkpt lat="45.4063" lon="5.57846">
        <ele>615</ele>
        <time>2009-05-30T09:26:31Z</time>
      </trkpt>
      <trkpt lat="45.40632" lon="5.57842">
        <ele>615</ele>
        <time>2009-05-30T09:26:33Z</time>
      </trkpt>
      <trkpt lat="45.40647" lon="5.57824">
        <ele>615</ele>
        <time>2009-05-30T09:26:42Z</time>
      </trkpt>
      <trkpt lat="45.40649" lon="5.57822">
        <ele>615</ele>
        <time>2009-05-30T09:26:44Z</time>
      </trkpt>
      <trkpt lat="45.40654" lon="5.5782">
        <ele>615</ele>
        <time>2009-05-30T09:26:46Z</time>
      </trkpt>
      <trkpt lat="45.40658" lon="5.57818">
        <ele>615</ele>
        <time>2009-05-30T09:26:49Z</time>
      </trkpt>
      <trkpt lat="45.40669" lon="5.57812">
        <ele>616</ele>
        <time>2009-05-30T09:26:54Z</time>
      </trkpt>
      <trkpt lat="45.40675" lon="5.57812">
        <ele>617</ele>
        <time>2009-05-30T09:26:58Z</time>
      </trkpt>
      <trkpt lat="45.40677" lon="5.57809">
        <ele>617</ele>
        <time>2009-05-30T09:26:59Z</time>
      </trkpt>
      <trkpt lat="45.40684" lon="5.57807">
        <ele>618</ele>
        <time>2009-05-30T09:27:03Z</time>
      </trkpt>
      <trkpt lat="45.40697" lon="5.57801">
        <ele>619</ele>
        <time>2009-05-30T09:27:10Z</time>
      </trkpt>
      <trkpt lat="45.40705" lon="5.57799">
        <ele>620</ele>
        <time>2009-05-30T09:27:14Z</time>
      </trkpt>
      <trkpt lat="45.4071" lon="5.57794">
        <ele>621</ele>
        <time>2009-05-30T09:27:17Z</time>
      </trkpt>
      <trkpt lat="45.40714" lon="5.57792">
        <ele>621</ele>
        <time>2009-05-30T09:27:19Z</time>
      </trkpt>
      <trkpt lat="45.40718" lon="5.57788">
        <ele>622</ele>
        <time>2009-05-30T09:27:22Z</time>
      </trkpt>
      <trkpt lat="45.4072" lon="5.57784">
        <ele>622</ele>
        <time>2009-05-30T09:27:24Z</time>
      </trkpt>
      <trkpt lat="45.40725" lon="5.57779">
        <ele>623</ele>
        <time>2009-05-30T09:27:27Z</time>
      </trkpt>
      <trkpt lat="45.40727" lon="5.57775">
        <ele>624</ele>
        <time>2009-05-30T09:27:29Z</time>
      </trkpt>
      <trkpt lat="45.40744" lon="5.57741">
        <ele>627</ele>
        <time>2009-05-30T09:27:45Z</time>
      </trkpt>
      <trkpt lat="45.40746" lon="5.57732">
        <ele>628</ele>
        <time>2009-05-30T09:27:49Z</time>
      </trkpt>
      <trkpt lat="45.40748" lon="5.57728">
        <ele>628</ele>
        <time>2009-05-30T09:27:51Z</time>
      </trkpt>
      <trkpt lat="45.40755" lon="5.57724">
        <ele>630</ele>
        <time>2009-05-30T09:27:55Z</time>
      </trkpt>
      <trkpt lat="45.40757" lon="5.57721">
        <ele>631</ele>
        <time>2009-05-30T09:27:57Z</time>
      </trkpt>
      <trkpt lat="45.40761" lon="5.57715">
        <ele>632</ele>
        <time>2009-05-30T09:28:01Z</time>
      </trkpt>
      <trkpt lat="45.40763" lon="5.57709">
        <ele>633</ele>
        <time>2009-05-30T09:28:05Z</time>
      </trkpt>
      <trkpt lat="45.40765" lon="5.57702">
        <ele>635</ele>
        <time>2009-05-30T09:28:08Z</time>
      </trkpt>
      <trkpt lat="45.40776" lon="5.5767">
        <ele>640</ele>
        <time>2009-05-30T09:28:24Z</time>
      </trkpt>
      <trkpt lat="45.40778" lon="5.57666">
        <ele>641</ele>
        <time>2009-05-30T09:28:27Z</time>
      </trkpt>
      <trkpt lat="45.40778" lon="5.57659">
        <ele>642</ele>
        <time>2009-05-30T09:28:30Z</time>
      </trkpt>
      <trkpt lat="45.4078" lon="5.57655">
        <ele>643</ele>
        <time>2009-05-30T09:28:32Z</time>
      </trkpt>
      <trkpt lat="45.40787" lon="5.57633">
        <ele>646</ele>
        <time>2009-05-30T09:28:43Z</time>
      </trkpt>
      <trkpt lat="45.40789" lon="5.57631">
        <ele>647</ele>
        <time>2009-05-30T09:28:44Z</time>
      </trkpt>
      <trkpt lat="45.40791" lon="5.57627">
        <ele>648</ele>
        <time>2009-05-30T09:28:47Z</time>
      </trkpt>
      <trkpt lat="45.40793" lon="5.57623">
        <ele>648</ele>
        <time>2009-05-30T09:28:49Z</time>
      </trkpt>
      <trkpt lat="45.40793" lon="5.57618">
        <ele>649</ele>
        <time>2009-05-30T09:28:51Z</time>
      </trkpt>
      <trkpt lat="45.40806" lon="5.57599">
        <ele>655</ele>
        <time>2009-05-30T09:29:09Z</time>
      </trkpt>
      <trkpt lat="45.40817" lon="5.57595">
        <ele>655</ele>
        <time>2009-05-30T09:29:44Z</time>
      </trkpt>
      <trkpt lat="45.40817" lon="5.57595">
        <ele>656</ele>
        <time>2009-05-30T09:29:52Z</time>
      </trkpt>
      <trkpt lat="45.40819" lon="5.57593">
        <ele>656</ele>
        <time>2009-05-30T09:29:54Z</time>
      </trkpt>
      <trkpt lat="45.40819" lon="5.57593">
        <ele>655</ele>
        <time>2009-05-30T09:29:58Z</time>
      </trkpt>
      <trkpt lat="45.40823" lon="5.5759">
        <ele>655</ele>
        <time>2009-05-30T09:30:01Z</time>
      </trkpt>
      <trkpt lat="45.40825" lon="5.5759">
        <ele>655</ele>
        <time>2009-05-30T09:30:03Z</time>
      </trkpt>
      <trkpt lat="45.4083" lon="5.57588">
        <ele>656</ele>
        <time>2009-05-30T09:30:06Z</time>
      </trkpt>
      <trkpt lat="45.40858" lon="5.57578">
        <ele>661</ele>
        <time>2009-05-30T09:30:26Z</time>
      </trkpt>
      <trkpt lat="45.40868" lon="5.57575">
        <ele>662</ele>
        <time>2009-05-30T09:30:33Z</time>
      </trkpt>
      <trkpt lat="45.40873" lon="5.57573">
        <ele>661</ele>
        <time>2009-05-30T09:30:35Z</time>
      </trkpt>
      <trkpt lat="45.40879" lon="5.57575">
        <ele>662</ele>
        <time>2009-05-30T09:30:41Z</time>
      </trkpt>
      <trkpt lat="45.40881" lon="5.57575">
        <ele>662</ele>
        <time>2009-05-30T09:30:43Z</time>
      </trkpt>
      <trkpt lat="45.40885" lon="5.57575">
        <ele>662</ele>
        <time>2009-05-30T09:30:46Z</time>
      </trkpt>
      <trkpt lat="45.4089" lon="5.57578">
        <ele>662</ele>
        <time>2009-05-30T09:30:49Z</time>
      </trkpt>
      <trkpt lat="45.40896" lon="5.57578">
        <ele>662</ele>
        <time>2009-05-30T09:30:53Z</time>
      </trkpt>
      <trkpt lat="45.40896" lon="5.57578">
        <ele>662</ele>
        <time>2009-05-30T09:30:54Z</time>
      </trkpt>
      <trkpt lat="45.409" lon="5.5758">
        <ele>662</ele>
        <time>2009-05-30T09:30:56Z</time>
      </trkpt>
      <trkpt lat="45.40905" lon="5.57582">
        <ele>663</ele>
        <time>2009-05-30T09:31:00Z</time>
      </trkpt>
      <trkpt lat="45.40911" lon="5.57586">
        <ele>664</ele>
        <time>2009-05-30T09:31:05Z</time>
      </trkpt>
      <trkpt lat="45.40913" lon="5.57588">
        <ele>664</ele>
        <time>2009-05-30T09:31:07Z</time>
      </trkpt>
      <trkpt lat="45.40918" lon="5.57593">
        <ele>665</ele>
        <time>2009-05-30T09:31:10Z</time>
      </trkpt>
      <trkpt lat="45.40928" lon="5.57603">
        <ele>667</ele>
        <time>2009-05-30T09:31:19Z</time>
      </trkpt>
      <trkpt lat="45.40933" lon="5.5761">
        <ele>669</ele>
        <time>2009-05-30T09:31:25Z</time>
      </trkpt>
      <trkpt lat="45.40937" lon="5.57616">
        <ele>669</ele>
        <time>2009-05-30T09:31:29Z</time>
      </trkpt>
      <trkpt lat="45.40941" lon="5.57621">
        <ele>670</ele>
        <time>2009-05-30T09:31:32Z</time>
      </trkpt>
      <trkpt lat="45.40952" lon="5.5764">
        <ele>672</ele>
        <time>2009-05-30T09:31:45Z</time>
      </trkpt>
      <trkpt lat="45.40952" lon="5.57642">
        <ele>672</ele>
        <time>2009-05-30T09:31:46Z</time>
      </trkpt>
      <trkpt lat="45.40956" lon="5.57646">
        <ele>672</ele>
        <time>2009-05-30T09:31:50Z</time>
      </trkpt>
      <trkpt lat="45.40963" lon="5.57653">
        <ele>672</ele>
        <time>2009-05-30T09:31:56Z</time>
      </trkpt>
      <trkpt lat="45.4098" lon="5.57678">
        <ele>672</ele>
        <time>2009-05-30T09:32:13Z</time>
      </trkpt>
      <trkpt lat="45.40984" lon="5.57685">
        <ele>673</ele>
        <time>2009-05-30T09:32:17Z</time>
      </trkpt>
      <trkpt lat="45.40986" lon="5.57687">
        <ele>673</ele>
        <time>2009-05-30T09:32:19Z</time>
      </trkpt>
      <trkpt lat="45.40999" lon="5.57715">
        <ele>674</ele>
        <time>2009-05-30T09:32:33Z</time>
      </trkpt>
      <trkpt lat="45.41001" lon="5.57719">
        <ele>675</ele>
        <time>2009-05-30T09:32:36Z</time>
      </trkpt>
      <trkpt lat="45.41003" lon="5.57726">
        <ele>674</ele>
        <time>2009-05-30T09:32:39Z</time>
      </trkpt>
      <trkpt lat="45.41006" lon="5.57739">
        <ele>674</ele>
        <time>2009-05-30T09:32:44Z</time>
      </trkpt>
      <trkpt lat="45.41003" lon="5.57816">
        <ele>676</ele>
        <time>2009-05-30T09:33:05Z</time>
      </trkpt>
      <trkpt lat="45.41001" lon="5.57824">
        <ele>676</ele>
        <time>2009-05-30T09:33:07Z</time>
      </trkpt>
      <trkpt lat="45.41001" lon="5.57835">
        <ele>676</ele>
        <time>2009-05-30T09:33:10Z</time>
      </trkpt>
      <trkpt lat="45.40999" lon="5.57861">
        <ele>677</ele>
        <time>2009-05-30T09:33:16Z</time>
      </trkpt>
      <trkpt lat="45.40999" lon="5.57865">
        <ele>677</ele>
        <time>2009-05-30T09:33:17Z</time>
      </trkpt>
      <trkpt lat="45.40999" lon="5.57884">
        <ele>678</ele>
        <time>2009-05-30T09:33:21Z</time>
      </trkpt>
      <trkpt lat="45.41001" lon="5.57906">
        <ele>679</ele>
        <time>2009-05-30T09:33:26Z</time>
      </trkpt>
      <trkpt lat="45.41006" lon="5.57927">
        <ele>680</ele>
        <time>2009-05-30T09:33:31Z</time>
      </trkpt>
      <trkpt lat="45.41006" lon="5.57932">
        <ele>680</ele>
        <time>2009-05-30T09:33:33Z</time>
      </trkpt>
      <trkpt lat="45.41016" lon="5.5796">
        <ele>682</ele>
        <time>2009-05-30T09:33:42Z</time>
      </trkpt>
      <trkpt lat="45.41021" lon="5.57968">
        <ele>683</ele>
        <time>2009-05-30T09:33:45Z</time>
      </trkpt>
      <trkpt lat="45.41023" lon="5.57972">
        <ele>684</ele>
        <time>2009-05-30T09:33:47Z</time>
      </trkpt>
      <trkpt lat="45.41031" lon="5.5799">
        <ele>685</ele>
        <time>2009-05-30T09:33:54Z</time>
      </trkpt>
      <trkpt lat="45.41034" lon="5.5799">
        <ele>685</ele>
        <time>2009-05-30T09:33:55Z</time>
      </trkpt>
      <trkpt lat="45.41038" lon="5.57994">
        <ele>686</ele>
        <time>2009-05-30T09:33:57Z</time>
      </trkpt>
      <trkpt lat="45.41042" lon="5.58002">
        <ele>686</ele>
        <time>2009-05-30T09:34:01Z</time>
      </trkpt>
      <trkpt lat="45.41044" lon="5.58005">
        <ele>687</ele>
        <time>2009-05-30T09:34:02Z</time>
      </trkpt>
      <trkpt lat="45.41049" lon="5.58013">
        <ele>687</ele>
        <time>2009-05-30T09:34:06Z</time>
      </trkpt>
      <trkpt lat="45.41051" lon="5.58015">
        <ele>688</ele>
        <time>2009-05-30T09:34:08Z</time>
      </trkpt>
      <trkpt lat="45.41057" lon="5.58024">
        <ele>688</ele>
        <time>2009-05-30T09:34:12Z</time>
      </trkpt>
      <trkpt lat="45.41064" lon="5.58035">
        <ele>690</ele>
        <time>2009-05-30T09:34:18Z</time>
      </trkpt>
      <trkpt lat="45.41068" lon="5.58039">
        <ele>690</ele>
        <time>2009-05-30T09:34:21Z</time>
      </trkpt>
      <trkpt lat="45.41072" lon="5.58045">
        <ele>691</ele>
        <time>2009-05-30T09:34:24Z</time>
      </trkpt>
      <trkpt lat="45.41076" lon="5.5805">
        <ele>692</ele>
        <time>2009-05-30T09:34:28Z</time>
      </trkpt>
      <trkpt lat="45.41079" lon="5.58054">
        <ele>692</ele>
        <time>2009-05-30T09:34:31Z</time>
      </trkpt>
      <trkpt lat="45.41079" lon="5.58056">
        <ele>693</ele>
        <time>2009-05-30T09:34:32Z</time>
      </trkpt>
      <trkpt lat="45.41083" lon="5.58063">
        <ele>693</ele>
        <time>2009-05-30T09:34:36Z</time>
      </trkpt>
      <trkpt lat="45.41083" lon="5.58063">
        <ele>694</ele>
        <time>2009-05-30T09:34:37Z</time>
      </trkpt>
      <trkpt lat="45.41085" lon="5.58067">
        <ele>694</ele>
        <time>2009-05-30T09:34:39Z</time>
      </trkpt>
      <trkpt lat="45.41094" lon="5.5808">
        <ele>696</ele>
        <time>2009-05-30T09:34:48Z</time>
      </trkpt>
      <trkpt lat="45.41096" lon="5.58086">
        <ele>696</ele>
        <time>2009-05-30T09:34:52Z</time>
      </trkpt>
      <trkpt lat="45.411" lon="5.58112">
        <ele>700</ele>
        <time>2009-05-30T09:35:06Z</time>
      </trkpt>
      <trkpt lat="45.41102" lon="5.58118">
        <ele>700</ele>
        <time>2009-05-30T09:35:09Z</time>
      </trkpt>
      <trkpt lat="45.41104" lon="5.58129">
        <ele>700</ele>
        <time>2009-05-30T09:35:16Z</time>
      </trkpt>
      <trkpt lat="45.41104" lon="5.58133">
        <ele>701</ele>
        <time>2009-05-30T09:35:18Z</time>
      </trkpt>
      <trkpt lat="45.41104" lon="5.5814">
        <ele>701</ele>
        <time>2009-05-30T09:35:21Z</time>
      </trkpt>
      <trkpt lat="45.41104" lon="5.58142">
        <ele>701</ele>
        <time>2009-05-30T09:35:22Z</time>
      </trkpt>
      <trkpt lat="45.41106" lon="5.58155">
        <ele>704</ele>
        <time>2009-05-30T09:35:30Z</time>
      </trkpt>
      <trkpt lat="45.41106" lon="5.58159">
        <ele>704</ele>
        <time>2009-05-30T09:35:32Z</time>
      </trkpt>
      <trkpt lat="45.41111" lon="5.58172">
        <ele>706</ele>
        <time>2009-05-30T09:35:40Z</time>
      </trkpt>
      <trkpt lat="45.41111" lon="5.58174">
        <ele>707</ele>
        <time>2009-05-30T09:35:42Z</time>
      </trkpt>
      <trkpt lat="45.41111" lon="5.58183">
        <ele>708</ele>
        <time>2009-05-30T09:35:47Z</time>
      </trkpt>
      <trkpt lat="45.41111" lon="5.58193">
        <ele>709</ele>
        <time>2009-05-30T09:35:52Z</time>
      </trkpt>
      <trkpt lat="45.41113" lon="5.58204">
        <ele>711</ele>
        <time>2009-05-30T09:35:58Z</time>
      </trkpt>
      <trkpt lat="45.41115" lon="5.58211">
        <ele>712</ele>
        <time>2009-05-30T09:36:03Z</time>
      </trkpt>
      <trkpt lat="45.41117" lon="5.58217">
        <ele>712</ele>
        <time>2009-05-30T09:36:07Z</time>
      </trkpt>
      <trkpt lat="45.41121" lon="5.58221">
        <ele>712</ele>
        <time>2009-05-30T09:36:11Z</time>
      </trkpt>
      <trkpt lat="45.41121" lon="5.58223">
        <ele>712</ele>
        <time>2009-05-30T09:36:12Z</time>
      </trkpt>
      <trkpt lat="45.41121" lon="5.58228">
        <ele>712</ele>
        <time>2009-05-30T09:36:15Z</time>
      </trkpt>
      <trkpt lat="45.41121" lon="5.58232">
        <ele>713</ele>
        <time>2009-05-30T09:36:17Z</time>
      </trkpt>
      <trkpt lat="45.41121" lon="5.58236">
        <ele>713</ele>
        <time>2009-05-30T09:36:19Z</time>
      </trkpt>
      <trkpt lat="45.41121" lon="5.58243">
        <ele>714</ele>
        <time>2009-05-30T09:36:23Z</time>
      </trkpt>
      <trkpt lat="45.41121" lon="5.58249">
        <ele>715</ele>
        <time>2009-05-30T09:36:27Z</time>
      </trkpt>
      <trkpt lat="45.41121" lon="5.58258">
        <ele>716</ele>
        <time>2009-05-30T09:36:32Z</time>
      </trkpt>
      <trkpt lat="45.41121" lon="5.5826">
        <ele>716</ele>
        <time>2009-05-30T09:36:33Z</time>
      </trkpt>
      <trkpt lat="45.41119" lon="5.58266">
        <ele>717</ele>
        <time>2009-05-30T09:36:36Z</time>
      </trkpt>
      <trkpt lat="45.41119" lon="5.58271">
        <ele>718</ele>
        <time>2009-05-30T09:36:39Z</time>
      </trkpt>
      <trkpt lat="45.41124" lon="5.58294">
        <ele>720</ele>
        <time>2009-05-30T09:36:53Z</time>
      </trkpt>
      <trkpt lat="45.41124" lon="5.58296">
        <ele>721</ele>
        <time>2009-05-30T09:36:54Z</time>
      </trkpt>
      <trkpt lat="45.41128" lon="5.58299">
        <ele>722</ele>
        <time>2009-05-30T09:36:58Z</time>
      </trkpt>
      <trkpt lat="45.41137" lon="5.58303">
        <ele>723</ele>
        <time>2009-05-30T09:37:04Z</time>
      </trkpt>
      <trkpt lat="45.41139" lon="5.58303">
        <ele>723</ele>
        <time>2009-05-30T09:37:06Z</time>
      </trkpt>
      <trkpt lat="45.41141" lon="5.58305">
        <ele>723</ele>
        <time>2009-05-30T09:37:08Z</time>
      </trkpt>
      <trkpt lat="45.41145" lon="5.58307">
        <ele>724</ele>
        <time>2009-05-30T09:37:11Z</time>
      </trkpt>
      <trkpt lat="45.41145" lon="5.58309">
        <ele>725</ele>
        <time>2009-05-30T09:37:12Z</time>
      </trkpt>
      <trkpt lat="45.41147" lon="5.58311">
        <ele>725</ele>
        <time>2009-05-30T09:37:14Z</time>
      </trkpt>
      <trkpt lat="45.41147" lon="5.58318">
        <ele>726</ele>
        <time>2009-05-30T09:37:18Z</time>
      </trkpt>
      <trkpt lat="45.41149" lon="5.58322">
        <ele>727</ele>
        <time>2009-05-30T09:37:21Z</time>
      </trkpt>
      <trkpt lat="45.41149" lon="5.58329">
        <ele>729</ele>
        <time>2009-05-30T09:37:25Z</time>
      </trkpt>
      <trkpt lat="45.41149" lon="5.58335">
        <ele>731</ele>
        <time>2009-05-30T09:37:29Z</time>
      </trkpt>
      <trkpt lat="45.41152" lon="5.58342">
        <ele>732</ele>
        <time>2009-05-30T09:37:32Z</time>
      </trkpt>
      <trkpt lat="45.41152" lon="5.58342">
        <ele>732</ele>
        <time>2009-05-30T09:37:33Z</time>
      </trkpt>
      <trkpt lat="45.41152" lon="5.58352">
        <ele>732</ele>
        <time>2009-05-30T09:37:39Z</time>
      </trkpt>
      <trkpt lat="45.41154" lon="5.58357">
        <ele>732</ele>
        <time>2009-05-30T09:37:42Z</time>
      </trkpt>
      <trkpt lat="45.41158" lon="5.58369">
        <ele>733</ele>
        <time>2009-05-30T09:37:51Z</time>
      </trkpt>
      <trkpt lat="45.41158" lon="5.58376">
        <ele>735</ele>
        <time>2009-05-30T09:37:56Z</time>
      </trkpt>
      <trkpt lat="45.4116" lon="5.5838">
        <ele>736</ele>
        <time>2009-05-30T09:37:59Z</time>
      </trkpt>
      <trkpt lat="45.4116" lon="5.58382">
        <ele>736</ele>
        <time>2009-05-30T09:38:00Z</time>
      </trkpt>
      <trkpt lat="45.41164" lon="5.58384">
        <ele>735</ele>
        <time>2009-05-30T09:38:03Z</time>
      </trkpt>
      <trkpt lat="45.41167" lon="5.58391">
        <ele>737</ele>
        <time>2009-05-30T09:38:07Z</time>
      </trkpt>
      <trkpt lat="45.41171" lon="5.58395">
        <ele>737</ele>
        <time>2009-05-30T09:38:12Z</time>
      </trkpt>
      <trkpt lat="45.41173" lon="5.58395">
        <ele>738</ele>
        <time>2009-05-30T09:38:13Z</time>
      </trkpt>
      <trkpt lat="45.41177" lon="5.58402">
        <ele>738</ele>
        <time>2009-05-30T09:38:18Z</time>
      </trkpt>
      <trkpt lat="45.41177" lon="5.58402">
        <ele>738</ele>
        <time>2009-05-30T09:38:19Z</time>
      </trkpt>
      <trkpt lat="45.41182" lon="5.58404">
        <ele>738</ele>
        <time>2009-05-30T09:38:22Z</time>
      </trkpt>
      <trkpt lat="45.41184" lon="5.58406">
        <ele>739</ele>
        <time>2009-05-30T09:38:25Z</time>
      </trkpt>
      <trkpt lat="45.41184" lon="5.58408">
        <ele>739</ele>
        <time>2009-05-30T09:38:27Z</time>
      </trkpt>
      <trkpt lat="45.41186" lon="5.58412">
        <ele>740</ele>
        <time>2009-05-30T09:38:30Z</time>
      </trkpt>
      <trkpt lat="45.4119" lon="5.58414">
        <ele>741</ele>
        <time>2009-05-30T09:38:36Z</time>
      </trkpt>
      <trkpt lat="45.41192" lon="5.58417">
        <ele>741</ele>
        <time>2009-05-30T09:38:38Z</time>
      </trkpt>
      <trkpt lat="45.41199" lon="5.58421">
        <ele>742</ele>
        <time>2009-05-30T09:38:44Z</time>
      </trkpt>
      <trkpt lat="45.41203" lon="5.58425">
        <ele>741</ele>
        <time>2009-05-30T09:38:48Z</time>
      </trkpt>
      <trkpt lat="45.41205" lon="5.58427">
        <ele>741</ele>
        <time>2009-05-30T09:38:50Z</time>
      </trkpt>
      <trkpt lat="45.41207" lon="5.58436">
        <ele>741</ele>
        <time>2009-05-30T09:38:55Z</time>
      </trkpt>
      <trkpt lat="45.41205" lon="5.58438">
        <ele>741</ele>
        <time>2009-05-30T09:38:56Z</time>
      </trkpt>
      <trkpt lat="45.41207" lon="5.58447">
        <ele>741</ele>
        <time>2009-05-30T09:39:02Z</time>
      </trkpt>
      <trkpt lat="45.41207" lon="5.58451">
        <ele>741</ele>
        <time>2009-05-30T09:39:04Z</time>
      </trkpt>
      <trkpt lat="45.41209" lon="5.58453">
        <ele>740</ele>
        <time>2009-05-30T09:39:07Z</time>
      </trkpt>
      <trkpt lat="45.41214" lon="5.58462">
        <ele>740</ele>
        <time>2009-05-30T09:39:11Z</time>
      </trkpt>
      <trkpt lat="45.41214" lon="5.58464">
        <ele>741</ele>
        <time>2009-05-30T09:39:13Z</time>
      </trkpt>
      <trkpt lat="45.41216" lon="5.5847">
        <ele>741</ele>
        <time>2009-05-30T09:39:16Z</time>
      </trkpt>
      <trkpt lat="45.41227" lon="5.58477">
        <ele>742</ele>
        <time>2009-05-30T09:39:28Z</time>
      </trkpt>
      <trkpt lat="45.41229" lon="5.5847">
        <ele>743</ele>
        <time>2009-05-30T09:39:32Z</time>
      </trkpt>
      <trkpt lat="45.41233" lon="5.58462">
        <ele>744</ele>
        <time>2009-05-30T09:39:38Z</time>
      </trkpt>
      <trkpt lat="45.41233" lon="5.58451">
        <ele>745</ele>
        <time>2009-05-30T09:39:44Z</time>
      </trkpt>
      <trkpt lat="45.41233" lon="5.58449">
        <ele>746</ele>
        <time>2009-05-30T09:39:46Z</time>
      </trkpt>
      <trkpt lat="45.41235" lon="5.58436">
        <ele>747</ele>
        <time>2009-05-30T09:39:56Z</time>
      </trkpt>
      <trkpt lat="45.41235" lon="5.58429">
        <ele>749</ele>
        <time>2009-05-30T09:40:01Z</time>
      </trkpt>
      <trkpt lat="45.41235" lon="5.58419">
        <ele>749</ele>
        <time>2009-05-30T09:40:07Z</time>
      </trkpt>
      <trkpt lat="45.41237" lon="5.58402">
        <ele>749</ele>
        <time>2009-05-30T09:40:20Z</time>
      </trkpt>
      <trkpt lat="45.41237" lon="5.58395">
        <ele>749</ele>
        <time>2009-05-30T09:40:23Z</time>
      </trkpt>
      <trkpt lat="45.41237" lon="5.58393">
        <ele>750</ele>
        <time>2009-05-30T09:40:25Z</time>
      </trkpt>
      <trkpt lat="45.41237" lon="5.58389">
        <ele>750</ele>
        <time>2009-05-30T09:40:28Z</time>
      </trkpt>
      <trkpt lat="45.41235" lon="5.5838">
        <ele>754</ele>
        <time>2009-05-30T09:40:36Z</time>
      </trkpt>
      <trkpt lat="45.41231" lon="5.58369">
        <ele>758</ele>
        <time>2009-05-30T09:40:44Z</time>
      </trkpt>
      <trkpt lat="45.41231" lon="5.58365">
        <ele>758</ele>
        <time>2009-05-30T09:40:46Z</time>
      </trkpt>
      <trkpt lat="45.41229" lon="5.58361">
        <ele>758</ele>
        <time>2009-05-30T09:40:49Z</time>
      </trkpt>
      <trkpt lat="45.41229" lon="5.58357">
        <ele>759</ele>
        <time>2009-05-30T09:40:52Z</time>
      </trkpt>
      <trkpt lat="45.41227" lon="5.5835">
        <ele>761</ele>
        <time>2009-05-30T09:40:57Z</time>
      </trkpt>
      <trkpt lat="45.41229" lon="5.58346">
        <ele>763</ele>
        <time>2009-05-30T09:40:59Z</time>
      </trkpt>
      <trkpt lat="45.41227" lon="5.58344">
        <ele>764</ele>
        <time>2009-05-30T09:41:03Z</time>
      </trkpt>
      <trkpt lat="45.41227" lon="5.58337">
        <ele>764</ele>
        <time>2009-05-30T09:41:08Z</time>
      </trkpt>
      <trkpt lat="45.41231" lon="5.58322">
        <ele>763</ele>
        <time>2009-05-30T09:41:18Z</time>
      </trkpt>
      <trkpt lat="45.41233" lon="5.58316">
        <ele>763</ele>
        <time>2009-05-30T09:41:22Z</time>
      </trkpt>
      <trkpt lat="45.41235" lon="5.58314">
        <ele>764</ele>
        <time>2009-05-30T09:41:24Z</time>
      </trkpt>
      <trkpt lat="45.41235" lon="5.58309">
        <ele>764</ele>
        <time>2009-05-30T09:41:27Z</time>
      </trkpt>
      <trkpt lat="45.41244" lon="5.58299">
        <ele>765</ele>
        <time>2009-05-30T09:41:34Z</time>
      </trkpt>
      <trkpt lat="45.41252" lon="5.58277">
        <ele>769</ele>
        <time>2009-05-30T09:41:48Z</time>
      </trkpt>
      <trkpt lat="45.41257" lon="5.58266">
        <ele>768</ele>
        <time>2009-05-30T09:41:55Z</time>
      </trkpt>
      <trkpt lat="45.41259" lon="5.58262">
        <ele>768</ele>
        <time>2009-05-30T09:41:57Z</time>
      </trkpt>
      <trkpt lat="45.41261" lon="5.5826">
        <ele>769</ele>
        <time>2009-05-30T09:42:00Z</time>
      </trkpt>
      <trkpt lat="45.41263" lon="5.58256">
        <ele>772</ele>
        <time>2009-05-30T09:42:04Z</time>
      </trkpt>
      <trkpt lat="45.41265" lon="5.58254">
        <ele>774</ele>
        <time>2009-05-30T09:42:07Z</time>
      </trkpt>
      <trkpt lat="45.41267" lon="5.58245">
        <ele>776</ele>
        <time>2009-05-30T09:42:12Z</time>
      </trkpt>
      <trkpt lat="45.4127" lon="5.58239">
        <ele>778</ele>
        <time>2009-05-30T09:42:17Z</time>
      </trkpt>
      <trkpt lat="45.41276" lon="5.58226">
        <ele>779</ele>
        <time>2009-05-30T09:42:26Z</time>
      </trkpt>
      <trkpt lat="45.41276" lon="5.58223">
        <ele>782</ele>
        <time>2009-05-30T09:42:29Z</time>
      </trkpt>
      <trkpt lat="45.41278" lon="5.58219">
        <ele>782</ele>
        <time>2009-05-30T09:42:32Z</time>
      </trkpt>
      <trkpt lat="45.4128" lon="5.58215">
        <ele>782</ele>
        <time>2009-05-30T09:42:34Z</time>
      </trkpt>
      <trkpt lat="45.41282" lon="5.58206">
        <ele>786</ele>
        <time>2009-05-30T09:42:40Z</time>
      </trkpt>
      <trkpt lat="45.41282" lon="5.58204">
        <ele>787</ele>
        <time>2009-05-30T09:42:41Z</time>
      </trkpt>
      <trkpt lat="45.41285" lon="5.58202">
        <ele>788</ele>
        <time>2009-05-30T09:42:44Z</time>
      </trkpt>
      <trkpt lat="45.41285" lon="5.582">
        <ele>789</ele>
        <time>2009-05-30T09:42:46Z</time>
      </trkpt>
      <trkpt lat="45.41287" lon="5.58198">
        <ele>790</ele>
        <time>2009-05-30T09:42:49Z</time>
      </trkpt>
      <trkpt lat="45.41291" lon="5.58191">
        <ele>790</ele>
        <time>2009-05-30T09:42:56Z</time>
      </trkpt>
      <trkpt lat="45.41297" lon="5.58191">
        <ele>793</ele>
        <time>2009-05-30T09:43:01Z</time>
      </trkpt>
      <trkpt lat="45.41297" lon="5.58191">
        <ele>793</ele>
        <time>2009-05-30T09:43:02Z</time>
      </trkpt>
      <trkpt lat="45.41304" lon="5.58191">
        <ele>794</ele>
        <time>2009-05-30T09:43:06Z</time>
      </trkpt>
      <trkpt lat="45.41306" lon="5.58191">
        <ele>794</ele>
        <time>2009-05-30T09:43:09Z</time>
      </trkpt>
      <trkpt lat="45.41315" lon="5.58196">
        <ele>795</ele>
        <time>2009-05-30T09:43:14Z</time>
      </trkpt>
      <trkpt lat="45.41323" lon="5.58206">
        <ele>796</ele>
        <time>2009-05-30T09:43:22Z</time>
      </trkpt>
      <trkpt lat="45.41323" lon="5.58211">
        <ele>797</ele>
        <time>2009-05-30T09:43:24Z</time>
      </trkpt>
      <trkpt lat="45.4133" lon="5.58223">
        <ele>799</ele>
        <time>2009-05-30T09:43:32Z</time>
      </trkpt>
      <trkpt lat="45.41332" lon="5.58228">
        <ele>799</ele>
        <time>2009-05-30T09:43:35Z</time>
      </trkpt>
      <trkpt lat="45.41334" lon="5.58232">
        <ele>800</ele>
        <time>2009-05-30T09:43:38Z</time>
      </trkpt>
      <trkpt lat="45.41334" lon="5.58239">
        <ele>801</ele>
        <time>2009-05-30T09:43:41Z</time>
      </trkpt>
      <trkpt lat="45.41336" lon="5.58241">
        <ele>801</ele>
        <time>2009-05-30T09:43:42Z</time>
      </trkpt>
      <trkpt lat="45.41336" lon="5.58249">
        <ele>802</ele>
        <time>2009-05-30T09:43:47Z</time>
      </trkpt>
      <trkpt lat="45.41338" lon="5.58254">
        <ele>803</ele>
        <time>2009-05-30T09:43:50Z</time>
      </trkpt>
      <trkpt lat="45.41338" lon="5.58254">
        <ele>802</ele>
        <time>2009-05-30T09:43:52Z</time>
      </trkpt>
      <trkpt lat="45.41338" lon="5.5826">
        <ele>801</ele>
        <time>2009-05-30T09:44:00Z</time>
      </trkpt>
      <trkpt lat="45.41338" lon="5.5826">
        <ele>801</ele>
        <time>2009-05-30T09:44:05Z</time>
      </trkpt>
      <trkpt lat="45.41338" lon="5.58262">
        <ele>802</ele>
        <time>2009-05-30T09:44:07Z</time>
      </trkpt>
      <trkpt lat="45.41338" lon="5.58266">
        <ele>803</ele>
        <time>2009-05-30T09:44:10Z</time>
      </trkpt>
      <trkpt lat="45.41338" lon="5.58269">
        <ele>804</ele>
        <time>2009-05-30T09:44:11Z</time>
      </trkpt>
      <trkpt lat="45.41336" lon="5.58277">
        <ele>806</ele>
        <time>2009-05-30T09:44:16Z</time>
      </trkpt>
      <trkpt lat="45.41336" lon="5.58279">
        <ele>807</ele>
        <time>2009-05-30T09:44:18Z</time>
      </trkpt>
      <trkpt lat="45.41334" lon="5.58286">
        <ele>809</ele>
        <time>2009-05-30T09:44:22Z</time>
      </trkpt>
      <trkpt lat="45.41334" lon="5.58292">
        <ele>809</ele>
        <time>2009-05-30T09:44:26Z</time>
      </trkpt>
      <trkpt lat="45.41332" lon="5.58292">
        <ele>809</ele>
        <time>2009-05-30T09:44:27Z</time>
      </trkpt>
      <trkpt lat="45.4133" lon="5.58303">
        <ele>810</ele>
        <time>2009-05-30T09:44:34Z</time>
      </trkpt>
      <trkpt lat="45.4133" lon="5.58311">
        <ele>811</ele>
        <time>2009-05-30T09:44:38Z</time>
      </trkpt>
      <trkpt lat="45.4133" lon="5.58318">
        <ele>811</ele>
        <time>2009-05-30T09:44:42Z</time>
      </trkpt>
      <trkpt lat="45.41332" lon="5.58322">
        <ele>812</ele>
        <time>2009-05-30T09:44:44Z</time>
      </trkpt>
      <trkpt lat="45.41332" lon="5.58329">
        <ele>813</ele>
        <time>2009-05-30T09:44:48Z</time>
      </trkpt>
      <trkpt lat="45.41332" lon="5.58335">
        <ele>813</ele>
        <time>2009-05-30T09:44:51Z</time>
      </trkpt>
      <trkpt lat="45.41332" lon="5.58337">
        <ele>813</ele>
        <time>2009-05-30T09:44:52Z</time>
      </trkpt>
      <trkpt lat="45.41332" lon="5.58342">
        <ele>814</ele>
        <time>2009-05-30T09:44:54Z</time>
      </trkpt>
      <trkpt lat="45.41332" lon="5.58346">
        <ele>814</ele>
        <time>2009-05-30T09:44:56Z</time>
      </trkpt>
      <trkpt lat="45.41334" lon="5.5835">
        <ele>815</ele>
        <time>2009-05-30T09:44:59Z</time>
      </trkpt>
      <trkpt lat="45.4134" lon="5.58363">
        <ele>815</ele>
        <time>2009-05-30T09:45:06Z</time>
      </trkpt>
      <trkpt lat="45.4134" lon="5.58372">
        <ele>816</ele>
        <time>2009-05-30T09:45:10Z</time>
      </trkpt>
      <trkpt lat="45.4134" lon="5.58374">
        <ele>816</ele>
        <time>2009-05-30T09:45:12Z</time>
      </trkpt>
      <trkpt lat="45.41338" lon="5.58382">
        <ele>816</ele>
        <time>2009-05-30T09:45:16Z</time>
      </trkpt>
      <trkpt lat="45.4134" lon="5.58389">
        <ele>816</ele>
        <time>2009-05-30T09:45:20Z</time>
      </trkpt>
      <trkpt lat="45.41345" lon="5.58393">
        <ele>817</ele>
        <time>2009-05-30T09:45:24Z</time>
      </trkpt>
      <trkpt lat="45.41349" lon="5.58399">
        <ele>817</ele>
        <time>2009-05-30T09:45:27Z</time>
      </trkpt>
      <trkpt lat="45.41353" lon="5.58406">
        <ele>818</ele>
        <time>2009-05-30T09:45:31Z</time>
      </trkpt>
      <trkpt lat="45.4136" lon="5.5841">
        <ele>818</ele>
        <time>2009-05-30T09:45:35Z</time>
      </trkpt>
      <trkpt lat="45.41375" lon="5.58421">
        <ele>819</ele>
        <time>2009-05-30T09:45:45Z</time>
      </trkpt>
      <trkpt lat="45.4139" lon="5.58436">
        <ele>819</ele>
        <time>2009-05-30T09:45:56Z</time>
      </trkpt>
      <trkpt lat="45.41392" lon="5.5844">
        <ele>818</ele>
        <time>2009-05-30T09:45:59Z</time>
      </trkpt>
      <trkpt lat="45.41396" lon="5.58445">
        <ele>818</ele>
        <time>2009-05-30T09:46:02Z</time>
      </trkpt>
      <trkpt lat="45.41398" lon="5.58449">
        <ele>818</ele>
        <time>2009-05-30T09:46:05Z</time>
      </trkpt>
      <trkpt lat="45.41413" lon="5.58457">
        <ele>819</ele>
        <time>2009-05-30T09:46:15Z</time>
      </trkpt>
      <trkpt lat="45.41418" lon="5.58462">
        <ele>819</ele>
        <time>2009-05-30T09:46:19Z</time>
      </trkpt>
      <trkpt lat="45.41428" lon="5.5847">
        <ele>821</ele>
        <time>2009-05-30T09:46:27Z</time>
      </trkpt>
      <trkpt lat="45.4143" lon="5.58472">
        <ele>821</ele>
        <time>2009-05-30T09:46:30Z</time>
      </trkpt>
      <trkpt lat="45.4143" lon="5.58475">
        <ele>822</ele>
        <time>2009-05-30T09:46:32Z</time>
      </trkpt>
      <trkpt lat="45.41435" lon="5.58481">
        <ele>823</ele>
        <time>2009-05-30T09:46:37Z</time>
      </trkpt>
      <trkpt lat="45.41435" lon="5.58481">
        <ele>823</ele>
        <time>2009-05-30T09:46:38Z</time>
      </trkpt>
      <trkpt lat="45.41439" lon="5.58483">
        <ele>824</ele>
        <time>2009-05-30T09:46:42Z</time>
      </trkpt>
      <trkpt lat="45.41445" lon="5.5849">
        <ele>825</ele>
        <time>2009-05-30T09:46:48Z</time>
      </trkpt>
      <trkpt lat="45.41448" lon="5.5849">
        <ele>826</ele>
        <time>2009-05-30T09:46:50Z</time>
      </trkpt>
      <trkpt lat="45.4145" lon="5.58492">
        <ele>826</ele>
        <time>2009-05-30T09:46:53Z</time>
      </trkpt>
      <trkpt lat="45.41461" lon="5.58498">
        <ele>828</ele>
        <time>2009-05-30T09:47:01Z</time>
      </trkpt>
      <trkpt lat="45.41463" lon="5.585">
        <ele>828</ele>
        <time>2009-05-30T09:47:04Z</time>
      </trkpt>
      <trkpt lat="45.41465" lon="5.58502">
        <ele>829</ele>
        <time>2009-05-30T09:47:06Z</time>
      </trkpt>
      <trkpt lat="45.41469" lon="5.58507">
        <ele>829</ele>
        <time>2009-05-30T09:47:09Z</time>
      </trkpt>
      <trkpt lat="45.41482" lon="5.5852">
        <ele>828</ele>
        <time>2009-05-30T09:47:21Z</time>
      </trkpt>
      <trkpt lat="45.41488" lon="5.58524">
        <ele>829</ele>
        <time>2009-05-30T09:47:27Z</time>
      </trkpt>
      <trkpt lat="45.41491" lon="5.58528">
        <ele>829</ele>
        <time>2009-05-30T09:47:30Z</time>
      </trkpt>
      <trkpt lat="45.41499" lon="5.58541">
        <ele>829</ele>
        <time>2009-05-30T09:47:40Z</time>
      </trkpt>
      <trkpt lat="45.41503" lon="5.58545">
        <ele>830</ele>
        <time>2009-05-30T09:47:43Z</time>
      </trkpt>
      <trkpt lat="45.41508" lon="5.58556">
        <ele>830</ele>
        <time>2009-05-30T09:47:49Z</time>
      </trkpt>
      <trkpt lat="45.41525" lon="5.58571">
        <ele>829</ele>
        <time>2009-05-30T09:48:02Z</time>
      </trkpt>
      <trkpt lat="45.41533" lon="5.58582">
        <ele>830</ele>
        <time>2009-05-30T09:48:09Z</time>
      </trkpt>
      <trkpt lat="45.41542" lon="5.58595">
        <ele>830</ele>
        <time>2009-05-30T09:48:17Z</time>
      </trkpt>
      <trkpt lat="45.4154" lon="5.5861">
        <ele>832</ele>
        <time>2009-05-30T09:48:24Z</time>
      </trkpt>
      <trkpt lat="45.4154" lon="5.58614">
        <ele>832</ele>
        <time>2009-05-30T09:48:26Z</time>
      </trkpt>
      <trkpt lat="45.41536" lon="5.58625">
        <ele>832</ele>
        <time>2009-05-30T09:48:30Z</time>
      </trkpt>
      <trkpt lat="45.41527" lon="5.5864">
        <ele>833</ele>
        <time>2009-05-30T09:48:35Z</time>
      </trkpt>
      <trkpt lat="45.41506" lon="5.58719">
        <ele>835</ele>
        <time>2009-05-30T09:48:57Z</time>
      </trkpt>
      <trkpt lat="45.41503" lon="5.58728">
        <ele>834</ele>
        <time>2009-05-30T09:48:59Z</time>
      </trkpt>
      <trkpt lat="45.41503" lon="5.58738">
        <ele>834</ele>
        <time>2009-05-30T09:49:05Z</time>
      </trkpt>
      <trkpt lat="45.41508" lon="5.58749">
        <ele>836</ele>
        <time>2009-05-30T09:49:11Z</time>
      </trkpt>
      <trkpt lat="45.4151" lon="5.58751">
        <ele>836</ele>
        <time>2009-05-30T09:49:13Z</time>
      </trkpt>
      <trkpt lat="45.41514" lon="5.58758">
        <ele>836</ele>
        <time>2009-05-30T09:49:18Z</time>
      </trkpt>
      <trkpt lat="45.41518" lon="5.58762">
        <ele>838</ele>
        <time>2009-05-30T09:49:22Z</time>
      </trkpt>
      <trkpt lat="45.4154" lon="5.58779">
        <ele>840</ele>
        <time>2009-05-30T09:49:41Z</time>
      </trkpt>
      <trkpt lat="45.41557" lon="5.58792">
        <ele>840</ele>
        <time>2009-05-30T09:49:53Z</time>
      </trkpt>
      <trkpt lat="45.41598" lon="5.58831">
        <ele>841</ele>
        <time>2009-05-30T09:50:07Z</time>
      </trkpt>
      <trkpt lat="45.41647" lon="5.58872">
        <ele>840</ele>
        <time>2009-05-30T09:50:13Z</time>
      </trkpt>
      <trkpt lat="45.41654" lon="5.58876">
        <ele>841</ele>
        <time>2009-05-30T09:50:18Z</time>
      </trkpt>
      <trkpt lat="45.41682" lon="5.58917">
        <ele>841</ele>
        <time>2009-05-30T09:50:39Z</time>
      </trkpt>
      <trkpt lat="45.41701" lon="5.5894">
        <ele>842</ele>
        <time>2009-05-30T09:50:53Z</time>
      </trkpt>
      <trkpt lat="45.41707" lon="5.58947">
        <ele>842</ele>
        <time>2009-05-30T09:50:56Z</time>
      </trkpt>
      <trkpt lat="45.41709" lon="5.58949">
        <ele>842</ele>
        <time>2009-05-30T09:50:57Z</time>
      </trkpt>
      <trkpt lat="45.41744" lon="5.58992">
        <ele>841</ele>
        <time>2009-05-30T09:51:13Z</time>
      </trkpt>
      <trkpt lat="45.41746" lon="5.59005">
        <ele>842</ele>
        <time>2009-05-30T09:51:16Z</time>
      </trkpt>
      <trkpt lat="45.41757" lon="5.59054">
        <ele>842</ele>
        <time>2009-05-30T09:51:31Z</time>
      </trkpt>
      <trkpt lat="45.41761" lon="5.59073">
        <ele>843</ele>
        <time>2009-05-30T09:51:36Z</time>
      </trkpt>
      <trkpt lat="45.41776" lon="5.59101">
        <ele>845</ele>
        <time>2009-05-30T09:51:49Z</time>
      </trkpt>
      <trkpt lat="45.4178" lon="5.5911">
        <ele>845</ele>
        <time>2009-05-30T09:51:52Z</time>
      </trkpt>
      <trkpt lat="45.41785" lon="5.59116">
        <ele>845</ele>
        <time>2009-05-30T09:51:55Z</time>
      </trkpt>
      <trkpt lat="45.41789" lon="5.5912">
        <ele>845</ele>
        <time>2009-05-30T09:51:57Z</time>
      </trkpt>
      <trkpt lat="45.41793" lon="5.59127">
        <ele>846</ele>
        <time>2009-05-30T09:52:00Z</time>
      </trkpt>
      <trkpt lat="45.41795" lon="5.59129">
        <ele>846</ele>
        <time>2009-05-30T09:52:01Z</time>
      </trkpt>
      <trkpt lat="45.418" lon="5.59138">
        <ele>848</ele>
        <time>2009-05-30T09:52:06Z</time>
      </trkpt>
      <trkpt lat="45.41804" lon="5.59144">
        <ele>848</ele>
        <time>2009-05-30T09:52:09Z</time>
      </trkpt>
      <trkpt lat="45.41806" lon="5.5915">
        <ele>850</ele>
        <time>2009-05-30T09:52:19Z</time>
      </trkpt>
      <trkpt lat="45.4181" lon="5.59165">
        <ele>854</ele>
        <time>2009-05-30T09:52:40Z</time>
      </trkpt>
      <trkpt lat="45.41812" lon="5.59172">
        <ele>855</ele>
        <time>2009-05-30T09:52:44Z</time>
      </trkpt>
      <trkpt lat="45.41817" lon="5.59174">
        <ele>855</ele>
        <time>2009-05-30T09:52:47Z</time>
      </trkpt>
      <trkpt lat="45.41819" lon="5.59181">
        <ele>854</ele>
        <time>2009-05-30T09:52:50Z</time>
      </trkpt>
      <trkpt lat="45.41821" lon="5.59187">
        <ele>855</ele>
        <time>2009-05-30T09:52:53Z</time>
      </trkpt>
      <trkpt lat="45.41825" lon="5.59193">
        <ele>855</ele>
        <time>2009-05-30T09:52:56Z</time>
      </trkpt>
      <trkpt lat="45.41834" lon="5.59206">
        <ele>857</ele>
        <time>2009-05-30T09:53:05Z</time>
      </trkpt>
      <trkpt lat="45.41836" lon="5.59215">
        <ele>858</ele>
        <time>2009-05-30T09:53:08Z</time>
      </trkpt>
      <trkpt lat="45.4184" lon="5.59221">
        <ele>859</ele>
        <time>2009-05-30T09:53:11Z</time>
      </trkpt>
      <trkpt lat="45.4184" lon="5.59223">
        <ele>859</ele>
        <time>2009-05-30T09:53:12Z</time>
      </trkpt>
      <trkpt lat="45.4184" lon="5.59228">
        <ele>860</ele>
        <time>2009-05-30T09:53:14Z</time>
      </trkpt>
      <trkpt lat="45.41842" lon="5.59236">
        <ele>861</ele>
        <time>2009-05-30T09:53:18Z</time>
      </trkpt>
      <trkpt lat="45.41847" lon="5.59247">
        <ele>863</ele>
        <time>2009-05-30T09:53:23Z</time>
      </trkpt>
      <trkpt lat="45.41849" lon="5.59251">
        <ele>863</ele>
        <time>2009-05-30T09:53:25Z</time>
      </trkpt>
      <trkpt lat="45.41855" lon="5.59262">
        <ele>865</ele>
        <time>2009-05-30T09:53:31Z</time>
      </trkpt>
      <trkpt lat="45.41857" lon="5.59264">
        <ele>865</ele>
        <time>2009-05-30T09:53:33Z</time>
      </trkpt>
      <trkpt lat="45.4187" lon="5.59277">
        <ele>867</ele>
        <time>2009-05-30T09:53:43Z</time>
      </trkpt>
      <trkpt lat="45.41879" lon="5.59294">
        <ele>866</ele>
        <time>2009-05-30T09:53:55Z</time>
      </trkpt>
      <trkpt lat="45.41883" lon="5.59305">
        <ele>868</ele>
        <time>2009-05-30T09:54:01Z</time>
      </trkpt>
      <trkpt lat="45.41883" lon="5.59309">
        <ele>869</ele>
        <time>2009-05-30T09:54:04Z</time>
      </trkpt>
      <trkpt lat="45.4189" lon="5.5932">
        <ele>870</ele>
        <time>2009-05-30T09:54:11Z</time>
      </trkpt>
      <trkpt lat="45.4189" lon="5.5932">
        <ele>870</ele>
        <time>2009-05-30T09:54:12Z</time>
      </trkpt>
      <trkpt lat="45.41894" lon="5.59337">
        <ele>873</ele>
        <time>2009-05-30T09:54:21Z</time>
      </trkpt>
      <trkpt lat="45.41896" lon="5.59339">
        <ele>873</ele>
        <time>2009-05-30T09:54:22Z</time>
      </trkpt>
      <trkpt lat="45.41898" lon="5.59346">
        <ele>874</ele>
        <time>2009-05-30T09:54:26Z</time>
      </trkpt>
      <trkpt lat="45.41898" lon="5.5935">
        <ele>875</ele>
        <time>2009-05-30T09:54:28Z</time>
      </trkpt>
      <trkpt lat="45.419" lon="5.59352">
        <ele>876</ele>
        <time>2009-05-30T09:54:30Z</time>
      </trkpt>
      <trkpt lat="45.41907" lon="5.59363">
        <ele>875</ele>
        <time>2009-05-30T09:54:37Z</time>
      </trkpt>
      <trkpt lat="45.41909" lon="5.59365">
        <ele>875</ele>
        <time>2009-05-30T09:54:39Z</time>
      </trkpt>
      <trkpt lat="45.41915" lon="5.59378">
        <ele>877</ele>
        <time>2009-05-30T09:54:47Z</time>
      </trkpt>
      <trkpt lat="45.41918" lon="5.5938">
        <ele>878</ele>
        <time>2009-05-30T09:54:49Z</time>
      </trkpt>
      <trkpt lat="45.41928" lon="5.59391">
        <ele>878</ele>
        <time>2009-05-30T09:54:59Z</time>
      </trkpt>
      <trkpt lat="45.41933" lon="5.59399">
        <ele>878</ele>
        <time>2009-05-30T09:55:04Z</time>
      </trkpt>
      <trkpt lat="45.41937" lon="5.59404">
        <ele>878</ele>
        <time>2009-05-30T09:55:07Z</time>
      </trkpt>
      <trkpt lat="45.41939" lon="5.59414">
        <ele>881</ele>
        <time>2009-05-30T09:55:13Z</time>
      </trkpt>
      <trkpt lat="45.41941" lon="5.59419">
        <ele>881</ele>
        <time>2009-05-30T09:55:15Z</time>
      </trkpt>
      <trkpt lat="45.41943" lon="5.59423">
        <ele>882</ele>
        <time>2009-05-30T09:55:17Z</time>
      </trkpt>
      <trkpt lat="45.4195" lon="5.59427">
        <ele>883</ele>
        <time>2009-05-30T09:55:20Z</time>
      </trkpt>
      <trkpt lat="45.41958" lon="5.59436">
        <ele>883</ele>
        <time>2009-05-30T09:55:26Z</time>
      </trkpt>
      <trkpt lat="45.42156" lon="5.5964">
        <ele>883</ele>
        <time>2009-05-30T09:56:21Z</time>
      </trkpt>
      <trkpt lat="45.4216" lon="5.5964">
        <ele>883</ele>
        <time>2009-05-30T09:56:22Z</time>
      </trkpt>
      <trkpt lat="45.42143" lon="5.59642">
        <ele>855</ele>
        <time>2009-05-30T09:56:28Z</time>
      </trkpt>
      <trkpt lat="45.42141" lon="5.59648">
        <ele>853</ele>
        <time>2009-05-30T09:56:32Z</time>
      </trkpt>
      <trkpt lat="45.42149" lon="5.5968">
        <ele>850</ele>
        <time>2009-05-30T09:56:43Z</time>
      </trkpt>
      <trkpt lat="45.4216" lon="5.59706">
        <ele>853</ele>
        <time>2009-05-30T09:56:50Z</time>
      </trkpt>
      <trkpt lat="45.42162" lon="5.59719">
        <ele>852</ele>
        <time>2009-05-30T09:56:53Z</time>
      </trkpt>
      <trkpt lat="45.42166" lon="5.59736">
        <ele>851</ele>
        <time>2009-05-30T09:56:57Z</time>
      </trkpt>
      <trkpt lat="45.42171" lon="5.59781">
        <ele>850</ele>
        <time>2009-05-30T09:57:09Z</time>
      </trkpt>
      <trkpt lat="45.42177" lon="5.59803">
        <ele>847</ele>
        <time>2009-05-30T09:57:16Z</time>
      </trkpt>
      <trkpt lat="45.42181" lon="5.59814">
        <ele>846</ele>
        <time>2009-05-30T09:57:21Z</time>
      </trkpt>
      <trkpt lat="45.42181" lon="5.5982">
        <ele>842</ele>
        <time>2009-05-30T09:57:45Z</time>
      </trkpt>
      <trkpt lat="45.42179" lon="5.59831">
        <ele>842</ele>
        <time>2009-05-30T09:57:47Z</time>
      </trkpt>
      <trkpt lat="45.42184" lon="5.59844">
        <ele>839</ele>
        <time>2009-05-30T09:57:53Z</time>
      </trkpt>
      <trkpt lat="45.42186" lon="5.59854">
        <ele>839</ele>
        <time>2009-05-30T09:57:57Z</time>
      </trkpt>
      <trkpt lat="45.42216" lon="5.59934">
        <ele>836</ele>
        <time>2009-05-30T09:58:18Z</time>
      </trkpt>
      <trkpt lat="45.42218" lon="5.59936">
        <ele>836</ele>
        <time>2009-05-30T09:58:19Z</time>
      </trkpt>
      <trkpt lat="45.42229" lon="5.59981">
        <ele>835</ele>
        <time>2009-05-30T09:58:47Z</time>
      </trkpt>
      <trkpt lat="45.42231" lon="5.59983">
        <ele>833</ele>
        <time>2009-05-30T09:58:51Z</time>
      </trkpt>
      <trkpt lat="45.42233" lon="5.59987">
        <ele>829</ele>
        <time>2009-05-30T09:58:54Z</time>
      </trkpt>
      <trkpt lat="45.42233" lon="5.59989">
        <ele>828</ele>
        <time>2009-05-30T09:58:56Z</time>
      </trkpt>
      <trkpt lat="45.42233" lon="5.59994">
        <ele>826</ele>
        <time>2009-05-30T09:59:02Z</time>
      </trkpt>
      <trkpt lat="45.42233" lon="5.59996">
        <ele>826</ele>
        <time>2009-05-30T09:59:03Z</time>
      </trkpt>
      <trkpt lat="45.42235" lon="5.59998">
        <ele>824</ele>
        <time>2009-05-30T09:59:05Z</time>
      </trkpt>
      <trkpt lat="45.42235" lon="5.6">
        <ele>823</ele>
        <time>2009-05-30T09:59:07Z</time>
      </trkpt>
      <trkpt lat="45.42239" lon="5.60009">
        <ele>822</ele>
        <time>2009-05-30T09:59:19Z</time>
      </trkpt>
      <trkpt lat="45.42237" lon="5.60019">
        <ele>820</ele>
        <time>2009-05-30T09:59:32Z</time>
      </trkpt>
      <trkpt lat="45.42239" lon="5.60026">
        <ele>818</ele>
        <time>2009-05-30T09:59:42Z</time>
      </trkpt>
      <trkpt lat="45.42242" lon="5.6003">
        <ele>820</ele>
        <time>2009-05-30T09:59:51Z</time>
      </trkpt>
      <trkpt lat="45.42242" lon="5.60032">
        <ele>820</ele>
        <time>2009-05-30T09:59:56Z</time>
      </trkpt>
      <trkpt lat="45.42244" lon="5.60035">
        <ele>818</ele>
        <time>2009-05-30T10:00:02Z</time>
      </trkpt>
      <trkpt lat="45.42244" lon="5.60045">
        <ele>815</ele>
        <time>2009-05-30T10:00:20Z</time>
      </trkpt>
      <trkpt lat="45.42244" lon="5.60047">
        <ele>815</ele>
        <time>2009-05-30T10:00:22Z</time>
      </trkpt>
      <trkpt lat="45.42246" lon="5.6005">
        <ele>814</ele>
        <time>2009-05-30T10:00:25Z</time>
      </trkpt>
      <trkpt lat="45.42244" lon="5.60056">
        <ele>815</ele>
        <time>2009-05-30T10:00:31Z</time>
      </trkpt>
      <trkpt lat="45.42246" lon="5.60056">
        <ele>815</ele>
        <time>2009-05-30T10:00:35Z</time>
      </trkpt>
      <trkpt lat="45.42246" lon="5.60062">
        <ele>815</ele>
        <time>2009-05-30T10:00:41Z</time>
      </trkpt>
      <trkpt lat="45.42246" lon="5.60065">
        <ele>816</ele>
        <time>2009-05-30T10:00:45Z</time>
      </trkpt>
      <trkpt lat="45.42248" lon="5.60071">
        <ele>815</ele>
        <time>2009-05-30T10:01:01Z</time>
      </trkpt>
      <trkpt lat="45.4225" lon="5.60077">
        <ele>817</ele>
        <time>2009-05-30T10:01:05Z</time>
      </trkpt>
      <trkpt lat="45.4225" lon="5.6008">
        <ele>817</ele>
        <time>2009-05-30T10:01:06Z</time>
      </trkpt>
      <trkpt lat="45.4225" lon="5.60084">
        <ele>816</ele>
        <time>2009-05-30T10:01:10Z</time>
      </trkpt>
      <trkpt lat="45.4225" lon="5.60084">
        <ele>816</ele>
        <time>2009-05-30T10:01:11Z</time>
      </trkpt>
      <trkpt lat="45.4225" lon="5.60088">
        <ele>816</ele>
        <time>2009-05-30T10:01:17Z</time>
      </trkpt>
      <trkpt lat="45.4225" lon="5.6009">
        <ele>816</ele>
        <time>2009-05-30T10:01:19Z</time>
      </trkpt>
      <trkpt lat="45.4225" lon="5.60097">
        <ele>815</ele>
        <time>2009-05-30T10:01:24Z</time>
      </trkpt>
      <trkpt lat="45.4225" lon="5.60099">
        <ele>815</ele>
        <time>2009-05-30T10:01:25Z</time>
      </trkpt>
      <trkpt lat="45.4225" lon="5.60103">
        <ele>817</ele>
        <time>2009-05-30T10:01:29Z</time>
      </trkpt>
      <trkpt lat="45.42252" lon="5.6011">
        <ele>817</ele>
        <time>2009-05-30T10:01:40Z</time>
      </trkpt>
      <trkpt lat="45.42252" lon="5.60112">
        <ele>817</ele>
        <time>2009-05-30T10:01:42Z</time>
      </trkpt>
      <trkpt lat="45.42248" lon="5.60118">
        <ele>819</ele>
        <time>2009-05-30T10:01:57Z</time>
      </trkpt>
      <trkpt lat="45.42235" lon="5.60148">
        <ele>819</ele>
        <time>2009-05-30T10:02:13Z</time>
      </trkpt>
      <trkpt lat="45.42233" lon="5.60155">
        <ele>820</ele>
        <time>2009-05-30T10:02:16Z</time>
      </trkpt>
      <trkpt lat="45.42229" lon="5.60163">
        <ele>820</ele>
        <time>2009-05-30T10:02:19Z</time>
      </trkpt>
      <trkpt lat="45.42231" lon="5.60165">
        <ele>820</ele>
        <time>2009-05-30T10:02:20Z</time>
      </trkpt>
      <trkpt lat="45.42229" lon="5.60172">
        <ele>820</ele>
        <time>2009-05-30T10:02:23Z</time>
      </trkpt>
      <trkpt lat="45.42227" lon="5.6018">
        <ele>821</ele>
        <time>2009-05-30T10:02:27Z</time>
      </trkpt>
      <trkpt lat="45.42246" lon="5.60307">
        <ele>817</ele>
        <time>2009-05-30T10:02:47Z</time>
      </trkpt>
      <trkpt lat="45.42244" lon="5.60326">
        <ele>815</ele>
        <time>2009-05-30T10:02:54Z</time>
      </trkpt>
      <trkpt lat="45.42244" lon="5.60328">
        <ele>815</ele>
        <time>2009-05-30T10:02:56Z</time>
      </trkpt>
      <trkpt lat="45.42237" lon="5.60344">
        <ele>818</ele>
        <time>2009-05-30T10:03:04Z</time>
      </trkpt>
      <trkpt lat="45.42235" lon="5.60346">
        <ele>818</ele>
        <time>2009-05-30T10:03:07Z</time>
      </trkpt>
      <trkpt lat="45.42235" lon="5.6035">
        <ele>818</ele>
        <time>2009-05-30T10:03:10Z</time>
      </trkpt>
      <trkpt lat="45.42233" lon="5.60354">
        <ele>819</ele>
        <time>2009-05-30T10:03:15Z</time>
      </trkpt>
      <trkpt lat="45.42231" lon="5.60361">
        <ele>819</ele>
        <time>2009-05-30T10:03:20Z</time>
      </trkpt>
      <trkpt lat="45.42231" lon="5.60363">
        <ele>820</ele>
        <time>2009-05-30T10:03:22Z</time>
      </trkpt>
      <trkpt lat="45.42229" lon="5.60367">
        <ele>821</ele>
        <time>2009-05-30T10:03:28Z</time>
      </trkpt>
      <trkpt lat="45.42229" lon="5.60369">
        <ele>823</ele>
        <time>2009-05-30T10:03:31Z</time>
      </trkpt>
      <trkpt lat="45.42224" lon="5.60378">
        <ele>825</ele>
        <time>2009-05-30T10:03:40Z</time>
      </trkpt>
      <trkpt lat="45.42224" lon="5.60386">
        <ele>826</ele>
        <time>2009-05-30T10:03:47Z</time>
      </trkpt>
      <trkpt lat="45.42222" lon="5.60386">
        <ele>827</ele>
        <time>2009-05-30T10:03:48Z</time>
      </trkpt>
      <trkpt lat="45.42222" lon="5.60389">
        <ele>827</ele>
        <time>2009-05-30T10:03:50Z</time>
      </trkpt>
      <trkpt lat="45.4222" lon="5.60391">
        <ele>829</ele>
        <time>2009-05-30T10:04:03Z</time>
      </trkpt>
      <trkpt lat="45.4222" lon="5.60393">
        <ele>830</ele>
        <time>2009-05-30T10:04:06Z</time>
      </trkpt>
      <trkpt lat="45.4222" lon="5.60395">
        <ele>831</ele>
        <time>2009-05-30T10:04:07Z</time>
      </trkpt>
      <trkpt lat="45.42218" lon="5.60397">
        <ele>831</ele>
        <time>2009-05-30T10:04:09Z</time>
      </trkpt>
      <trkpt lat="45.42218" lon="5.6041">
        <ele>833</ele>
        <time>2009-05-30T10:04:17Z</time>
      </trkpt>
      <trkpt lat="45.42218" lon="5.60416">
        <ele>834</ele>
        <time>2009-05-30T10:04:21Z</time>
      </trkpt>
      <trkpt lat="45.42218" lon="5.60423">
        <ele>833</ele>
        <time>2009-05-30T10:04:24Z</time>
      </trkpt>
      <trkpt lat="45.42216" lon="5.60429">
        <ele>832</ele>
        <time>2009-05-30T10:04:27Z</time>
      </trkpt>
      <trkpt lat="45.42205" lon="5.60462">
        <ele>833</ele>
        <time>2009-05-30T10:04:42Z</time>
      </trkpt>
      <trkpt lat="45.42199" lon="5.60474">
        <ele>832</ele>
        <time>2009-05-30T10:04:49Z</time>
      </trkpt>
      <trkpt lat="45.42186" lon="5.605">
        <ele>831</ele>
        <time>2009-05-30T10:05:02Z</time>
      </trkpt>
      <trkpt lat="45.42184" lon="5.60513">
        <ele>831</ele>
        <time>2009-05-30T10:05:06Z</time>
      </trkpt>
      <trkpt lat="45.42186" lon="5.60526">
        <ele>831</ele>
        <time>2009-05-30T10:05:10Z</time>
      </trkpt>
      <trkpt lat="45.42188" lon="5.60537">
        <ele>830</ele>
        <time>2009-05-30T10:05:14Z</time>
      </trkpt>
      <trkpt lat="45.42186" lon="5.60554">
        <ele>833</ele>
        <time>2009-05-30T10:05:23Z</time>
      </trkpt>
      <trkpt lat="45.42186" lon="5.60556">
        <ele>833</ele>
        <time>2009-05-30T10:05:26Z</time>
      </trkpt>
      <trkpt lat="45.42184" lon="5.60562">
        <ele>831</ele>
        <time>2009-05-30T10:05:30Z</time>
      </trkpt>
      <trkpt lat="45.42186" lon="5.60573">
        <ele>828</ele>
        <time>2009-05-30T10:05:40Z</time>
      </trkpt>
      <trkpt lat="45.42186" lon="5.60577">
        <ele>828</ele>
        <time>2009-05-30T10:05:44Z</time>
      </trkpt>
      <trkpt lat="45.42197" lon="5.60612">
        <ele>827</ele>
        <time>2009-05-30T10:05:59Z</time>
      </trkpt>
      <trkpt lat="45.42199" lon="5.60629">
        <ele>826</ele>
        <time>2009-05-30T10:06:04Z</time>
      </trkpt>
      <trkpt lat="45.42199" lon="5.6064">
        <ele>826</ele>
        <time>2009-05-30T10:06:07Z</time>
      </trkpt>
      <trkpt lat="45.42201" lon="5.60678">
        <ele>826</ele>
        <time>2009-05-30T10:06:20Z</time>
      </trkpt>
      <trkpt lat="45.42207" lon="5.607">
        <ele>826</ele>
        <time>2009-05-30T10:06:26Z</time>
      </trkpt>
      <trkpt lat="45.42227" lon="5.60743">
        <ele>826</ele>
        <time>2009-05-30T10:06:38Z</time>
      </trkpt>
      <trkpt lat="45.42291" lon="5.6085">
        <ele>825</ele>
        <time>2009-05-30T10:07:04Z</time>
      </trkpt>
      <trkpt lat="45.42325" lon="5.60904">
        <ele>817</ele>
        <time>2009-05-30T10:07:16Z</time>
      </trkpt>
      <trkpt lat="45.42332" lon="5.60914">
        <ele>816</ele>
        <time>2009-05-30T10:07:19Z</time>
      </trkpt>
      <trkpt lat="45.42372" lon="5.6097">
        <ele>815</ele>
        <time>2009-05-30T10:07:36Z</time>
      </trkpt>
      <trkpt lat="45.42415" lon="5.61075">
        <ele>815</ele>
        <time>2009-05-30T10:08:07Z</time>
      </trkpt>
      <trkpt lat="45.42415" lon="5.6109">
        <ele>815</ele>
        <time>2009-05-30T10:08:12Z</time>
      </trkpt>
      <trkpt lat="45.42415" lon="5.61112">
        <ele>815</ele>
        <time>2009-05-30T10:08:20Z</time>
      </trkpt>
      <trkpt lat="45.42418" lon="5.61118">
        <ele>815</ele>
        <time>2009-05-30T10:08:23Z</time>
      </trkpt>
      <trkpt lat="45.42413" lon="5.61125">
        <ele>815</ele>
        <time>2009-05-30T10:08:26Z</time>
      </trkpt>
      <trkpt lat="45.42407" lon="5.61144">
        <ele>815</ele>
        <time>2009-05-30T10:08:39Z</time>
      </trkpt>
      <trkpt lat="45.42302" lon="5.6109">
        <ele>815</ele>
        <time>2009-05-30T10:08:44Z</time>
      </trkpt>
      <trkpt lat="45.42291" lon="5.61127">
        <ele>811</ele>
        <time>2009-05-30T10:08:56Z</time>
      </trkpt>
      <trkpt lat="45.42274" lon="5.61133">
        <ele>808</ele>
        <time>2009-05-30T10:09:01Z</time>
      </trkpt>
      <trkpt lat="45.42246" lon="5.61152">
        <ele>802</ele>
        <time>2009-05-30T10:09:11Z</time>
      </trkpt>
      <trkpt lat="45.42214" lon="5.61159">
        <ele>792</ele>
        <time>2009-05-30T10:09:27Z</time>
      </trkpt>
      <trkpt lat="45.4219" lon="5.61178">
        <ele>786</ele>
        <time>2009-05-30T10:09:39Z</time>
      </trkpt>
      <trkpt lat="45.42188" lon="5.6118">
        <ele>784</ele>
        <time>2009-05-30T10:09:41Z</time>
      </trkpt>
      <trkpt lat="45.42179" lon="5.61187">
        <ele>783</ele>
        <time>2009-05-30T10:09:46Z</time>
      </trkpt>
      <trkpt lat="45.42173" lon="5.61195">
        <ele>782</ele>
        <time>2009-05-30T10:09:51Z</time>
      </trkpt>
      <trkpt lat="45.42151" lon="5.61219">
        <ele>779</ele>
        <time>2009-05-30T10:10:06Z</time>
      </trkpt>
      <trkpt lat="45.42117" lon="5.61247">
        <ele>779</ele>
        <time>2009-05-30T10:10:30Z</time>
      </trkpt>
      <trkpt lat="45.42111" lon="5.61251">
        <ele>780</ele>
        <time>2009-05-30T10:10:34Z</time>
      </trkpt>
      <trkpt lat="45.42102" lon="5.6126">
        <ele>780</ele>
        <time>2009-05-30T10:10:39Z</time>
      </trkpt>
      <trkpt lat="45.42096" lon="5.61264">
        <ele>780</ele>
        <time>2009-05-30T10:10:42Z</time>
      </trkpt>
      <trkpt lat="45.42085" lon="5.6127">
        <ele>779</ele>
        <time>2009-05-30T10:10:47Z</time>
      </trkpt>
      <trkpt lat="45.42081" lon="5.61277">
        <ele>780</ele>
        <time>2009-05-30T10:10:50Z</time>
      </trkpt>
      <trkpt lat="45.42074" lon="5.61281">
        <ele>779</ele>
        <time>2009-05-30T10:10:53Z</time>
      </trkpt>
      <trkpt lat="45.4207" lon="5.61283">
        <ele>779</ele>
        <time>2009-05-30T10:10:55Z</time>
      </trkpt>
      <trkpt lat="45.42057" lon="5.61283">
        <ele>778</ele>
        <time>2009-05-30T10:11:02Z</time>
      </trkpt>
      <trkpt lat="45.42042" lon="5.61294">
        <ele>780</ele>
        <time>2009-05-30T10:11:10Z</time>
      </trkpt>
      <trkpt lat="45.42029" lon="5.61305">
        <ele>780</ele>
        <time>2009-05-30T10:11:18Z</time>
      </trkpt>
      <trkpt lat="45.42016" lon="5.61311">
        <ele>780</ele>
        <time>2009-05-30T10:11:28Z</time>
      </trkpt>
      <trkpt lat="45.42008" lon="5.61313">
        <ele>780</ele>
        <time>2009-05-30T10:11:35Z</time>
      </trkpt>
      <trkpt lat="45.42003" lon="5.61318">
        <ele>780</ele>
        <time>2009-05-30T10:11:38Z</time>
      </trkpt>
      <trkpt lat="45.42001" lon="5.6132">
        <ele>780</ele>
        <time>2009-05-30T10:11:40Z</time>
      </trkpt>
      <trkpt lat="45.41982" lon="5.61343">
        <ele>780</ele>
        <time>2009-05-30T10:11:57Z</time>
      </trkpt>
      <trkpt lat="45.41973" lon="5.61356">
        <ele>781</ele>
        <time>2009-05-30T10:12:07Z</time>
      </trkpt>
      <trkpt lat="45.41973" lon="5.61361">
        <ele>781</ele>
        <time>2009-05-30T10:12:10Z</time>
      </trkpt>
      <trkpt lat="45.41969" lon="5.61367">
        <ele>783</ele>
        <time>2009-05-30T10:12:13Z</time>
      </trkpt>
      <trkpt lat="45.41956" lon="5.61401">
        <ele>784</ele>
        <time>2009-05-30T10:12:34Z</time>
      </trkpt>
      <trkpt lat="45.41935" lon="5.61429">
        <ele>784</ele>
        <time>2009-05-30T10:12:53Z</time>
      </trkpt>
      <trkpt lat="45.41898" lon="5.61466">
        <ele>830</ele>
        <time>2009-05-30T10:13:34Z</time>
      </trkpt>
      <trkpt lat="45.41892" lon="5.6147">
        <ele>822</ele>
        <time>2009-05-30T10:14:01Z</time>
      </trkpt>
      <trkpt lat="45.41892" lon="5.61472">
        <ele>822</ele>
        <time>2009-05-30T10:14:04Z</time>
      </trkpt>
      <trkpt lat="45.4189" lon="5.61476">
        <ele>820</ele>
        <time>2009-05-30T10:14:07Z</time>
      </trkpt>
      <trkpt lat="45.41877" lon="5.61491">
        <ele>820</ele>
        <time>2009-05-30T10:14:18Z</time>
      </trkpt>
      <trkpt lat="45.41851" lon="5.61509">
        <ele>820</ele>
        <time>2009-05-30T10:14:26Z</time>
      </trkpt>
      <trkpt lat="45.41707" lon="5.61562">
        <ele>817</ele>
        <time>2009-05-30T10:14:50Z</time>
      </trkpt>
      <trkpt lat="45.41692" lon="5.61564">
        <ele>817</ele>
        <time>2009-05-30T10:14:57Z</time>
      </trkpt>
      <trkpt lat="45.41684" lon="5.61575">
        <ele>817</ele>
        <time>2009-05-30T10:15:01Z</time>
      </trkpt>
      <trkpt lat="45.41679" lon="5.61584">
        <ele>816</ele>
        <time>2009-05-30T10:15:04Z</time>
      </trkpt>
      <trkpt lat="45.41667" lon="5.6161">
        <ele>815</ele>
        <time>2009-05-30T10:15:13Z</time>
      </trkpt>
      <trkpt lat="45.41669" lon="5.61616">
        <ele>813</ele>
        <time>2009-05-30T10:15:17Z</time>
      </trkpt>
      <trkpt lat="45.41671" lon="5.61616">
        <ele>813</ele>
        <time>2009-05-30T10:15:18Z</time>
      </trkpt>
      <trkpt lat="45.41692" lon="5.61601">
        <ele>812</ele>
        <time>2009-05-30T10:15:25Z</time>
      </trkpt>
      <trkpt lat="45.4172" lon="5.61625">
        <ele>810</ele>
        <time>2009-05-30T10:15:35Z</time>
      </trkpt>
      <trkpt lat="45.41722" lon="5.61627">
        <ele>810</ele>
        <time>2009-05-30T10:15:36Z</time>
      </trkpt>
      <trkpt lat="45.41752" lon="5.61661">
        <ele>810</ele>
        <time>2009-05-30T10:15:51Z</time>
      </trkpt>
      <trkpt lat="45.41763" lon="5.61689">
        <ele>810</ele>
        <time>2009-05-30T10:16:00Z</time>
      </trkpt>
      <trkpt lat="45.41772" lon="5.61695">
        <ele>810</ele>
        <time>2009-05-30T10:16:04Z</time>
      </trkpt>
      <trkpt lat="45.4178" lon="5.61702">
        <ele>810</ele>
        <time>2009-05-30T10:16:07Z</time>
      </trkpt>
      <trkpt lat="45.41791" lon="5.61702">
        <ele>810</ele>
        <time>2009-05-30T10:16:10Z</time>
      </trkpt>
      <trkpt lat="45.41808" lon="5.61691">
        <ele>810</ele>
        <time>2009-05-30T10:16:13Z</time>
      </trkpt>
      <trkpt lat="45.41821" lon="5.61689">
        <ele>807</ele>
        <time>2009-05-30T10:16:16Z</time>
      </trkpt>
      <trkpt lat="45.4196" lon="5.61642">
        <ele>797</ele>
        <time>2009-05-30T10:16:33Z</time>
      </trkpt>
      <trkpt lat="45.42063" lon="5.6159">
        <ele>792</ele>
        <time>2009-05-30T10:16:49Z</time>
      </trkpt>
      <trkpt lat="45.42173" lon="5.61655">
        <ele>792</ele>
        <time>2009-05-30T10:17:13Z</time>
      </trkpt>
      <trkpt lat="45.4222" lon="5.61528">
        <ele>672</ele>
        <time>2009-05-30T10:17:37Z</time>
      </trkpt>
      <trkpt lat="45.4225" lon="5.61554">
        <ele>671</ele>
        <time>2009-05-30T10:17:49Z</time>
      </trkpt>
      <trkpt lat="45.42284" lon="5.61588">
        <ele>672</ele>
        <time>2009-05-30T10:17:58Z</time>
      </trkpt>
      <trkpt lat="45.42334" lon="5.61629">
        <ele>637</ele>
        <time>2009-05-30T10:18:11Z</time>
      </trkpt>
      <trkpt lat="45.42338" lon="5.61652">
        <ele>638</ele>
        <time>2009-05-30T10:18:15Z</time>
      </trkpt>
      <trkpt lat="45.42338" lon="5.61661">
        <ele>639</ele>
        <time>2009-05-30T10:18:16Z</time>
      </trkpt>
      <trkpt lat="45.4234" lon="5.61678">
        <ele>638</ele>
        <time>2009-05-30T10:18:19Z</time>
      </trkpt>
      <trkpt lat="45.42336" lon="5.61764">
        <ele>636</ele>
        <time>2009-05-30T10:18:35Z</time>
      </trkpt>
      <trkpt lat="45.42355" lon="5.61781">
        <ele>635</ele>
        <time>2009-05-30T10:18:42Z</time>
      </trkpt>
      <trkpt lat="45.42362" lon="5.61781">
        <ele>635</ele>
        <time>2009-05-30T10:18:45Z</time>
      </trkpt>
      <trkpt lat="45.42368" lon="5.61785">
        <ele>635</ele>
        <time>2009-05-30T10:18:50Z</time>
      </trkpt>
      <trkpt lat="45.42392" lon="5.6179">
        <ele>634</ele>
        <time>2009-05-30T10:18:59Z</time>
      </trkpt>
      <trkpt lat="45.42392" lon="5.61803">
        <ele>634</ele>
        <time>2009-05-30T10:19:07Z</time>
      </trkpt>
      <trkpt lat="45.42392" lon="5.61803">
        <ele>634</ele>
        <time>2009-05-30T10:19:08Z</time>
      </trkpt>
      <trkpt lat="45.42383" lon="5.61805">
        <ele>634</ele>
        <time>2009-05-30T10:19:13Z</time>
      </trkpt>
      <trkpt lat="45.42375" lon="5.61807">
        <ele>635</ele>
        <time>2009-05-30T10:19:17Z</time>
      </trkpt>
      <trkpt lat="45.42368" lon="5.61809">
        <ele>635</ele>
        <time>2009-05-30T10:19:22Z</time>
      </trkpt>
      <trkpt lat="45.42349" lon="5.61813">
        <ele>633</ele>
        <time>2009-05-30T10:19:33Z</time>
      </trkpt>
      <trkpt lat="45.42342" lon="5.61816">
        <ele>634</ele>
        <time>2009-05-30T10:19:37Z</time>
      </trkpt>
      <trkpt lat="45.42334" lon="5.6182">
        <ele>634</ele>
        <time>2009-05-30T10:19:43Z</time>
      </trkpt>
      <trkpt lat="45.42327" lon="5.6182">
        <ele>633</ele>
        <time>2009-05-30T10:19:46Z</time>
      </trkpt>
      <trkpt lat="45.42325" lon="5.6182">
        <ele>633</ele>
        <time>2009-05-30T10:19:47Z</time>
      </trkpt>
      <trkpt lat="45.423" lon="5.6182">
        <ele>634</ele>
        <time>2009-05-30T10:20:01Z</time>
      </trkpt>
      <trkpt lat="45.42289" lon="5.61822">
        <ele>634</ele>
        <time>2009-05-30T10:20:06Z</time>
      </trkpt>
      <trkpt lat="45.42274" lon="5.61826">
        <ele>635</ele>
        <time>2009-05-30T10:20:15Z</time>
      </trkpt>
      <trkpt lat="45.42263" lon="5.61826">
        <ele>635</ele>
        <time>2009-05-30T10:20:21Z</time>
      </trkpt>
      <trkpt lat="45.42224" lon="5.61839">
        <ele>633</ele>
        <time>2009-05-30T10:20:44Z</time>
      </trkpt>
      <trkpt lat="45.42162" lon="5.61858">
        <ele>635</ele>
        <time>2009-05-30T10:21:15Z</time>
      </trkpt>
      <trkpt lat="45.42149" lon="5.61861">
        <ele>636</ele>
        <time>2009-05-30T10:21:20Z</time>
      </trkpt>
      <trkpt lat="45.42094" lon="5.61899">
        <ele>637</ele>
        <time>2009-05-30T10:21:37Z</time>
      </trkpt>
      <trkpt lat="45.42085" lon="5.61908">
        <ele>638</ele>
        <time>2009-05-30T10:21:40Z</time>
      </trkpt>
      <trkpt lat="45.42053" lon="5.61953">
        <ele>640</ele>
        <time>2009-05-30T10:21:55Z</time>
      </trkpt>
      <trkpt lat="45.42029" lon="5.61987">
        <ele>642</ele>
        <time>2009-05-30T10:22:05Z</time>
      </trkpt>
      <trkpt lat="45.42021" lon="5.61996">
        <ele>643</ele>
        <time>2009-05-30T10:22:09Z</time>
      </trkpt>
      <trkpt lat="45.41986" lon="5.62004">
        <ele>643</ele>
        <time>2009-05-30T10:22:22Z</time>
      </trkpt>
      <trkpt lat="45.41948" lon="5.62017">
        <ele>644</ele>
        <time>2009-05-30T10:22:45Z</time>
      </trkpt>
      <trkpt lat="45.41943" lon="5.62019">
        <ele>645</ele>
        <time>2009-05-30T10:22:48Z</time>
      </trkpt>
      <trkpt lat="45.41945" lon="5.62024">
        <ele>647</ele>
        <time>2009-05-30T10:22:54Z</time>
      </trkpt>
      <trkpt lat="45.41948" lon="5.62024">
        <ele>647</ele>
        <time>2009-05-30T10:22:55Z</time>
      </trkpt>
      <trkpt lat="45.41952" lon="5.62021">
        <ele>647</ele>
        <time>2009-05-30T10:22:57Z</time>
      </trkpt>
      <trkpt lat="45.41958" lon="5.62019">
        <ele>647</ele>
        <time>2009-05-30T10:23:00Z</time>
      </trkpt>
      <trkpt lat="45.42008" lon="5.62004">
        <ele>649</ele>
        <time>2009-05-30T10:23:19Z</time>
      </trkpt>
      <trkpt lat="45.42036" lon="5.62004">
        <ele>650</ele>
        <time>2009-05-30T10:23:30Z</time>
      </trkpt>
      <trkpt lat="45.42087" lon="5.62047">
        <ele>649</ele>
        <time>2009-05-30T10:24:01Z</time>
      </trkpt>
      <trkpt lat="45.42089" lon="5.62054">
        <ele>650</ele>
        <time>2009-05-30T10:24:05Z</time>
      </trkpt>
      <trkpt lat="45.421" lon="5.62071">
        <ele>650</ele>
        <time>2009-05-30T10:24:18Z</time>
      </trkpt>
      <trkpt lat="45.42104" lon="5.62079">
        <ele>650</ele>
        <time>2009-05-30T10:24:24Z</time>
      </trkpt>
      <trkpt lat="45.42109" lon="5.62082">
        <ele>650</ele>
        <time>2009-05-30T10:24:27Z</time>
      </trkpt>
      <trkpt lat="45.42126" lon="5.62094">
        <ele>653</ele>
        <time>2009-05-30T10:24:42Z</time>
      </trkpt>
      <trkpt lat="45.42143" lon="5.62109">
        <ele>652</ele>
        <time>2009-05-30T10:24:56Z</time>
      </trkpt>
      <trkpt lat="45.42145" lon="5.62112">
        <ele>653</ele>
        <time>2009-05-30T10:24:58Z</time>
      </trkpt>
      <trkpt lat="45.42149" lon="5.62114">
        <ele>654</ele>
        <time>2009-05-30T10:25:01Z</time>
      </trkpt>
      <trkpt lat="45.42158" lon="5.62127">
        <ele>659</ele>
        <time>2009-05-30T10:25:10Z</time>
      </trkpt>
      <trkpt lat="45.4216" lon="5.62127">
        <ele>659</ele>
        <time>2009-05-30T10:25:11Z</time>
      </trkpt>
      <trkpt lat="45.42162" lon="5.62129">
        <ele>660</ele>
        <time>2009-05-30T10:25:13Z</time>
      </trkpt>
      <trkpt lat="45.42169" lon="5.62133">
        <ele>661</ele>
        <time>2009-05-30T10:25:19Z</time>
      </trkpt>
      <trkpt lat="45.42173" lon="5.62135">
        <ele>662</ele>
        <time>2009-05-30T10:25:22Z</time>
      </trkpt>
      <trkpt lat="45.42175" lon="5.62137">
        <ele>662</ele>
        <time>2009-05-30T10:25:23Z</time>
      </trkpt>
      <trkpt lat="45.42179" lon="5.6214">
        <ele>662</ele>
        <time>2009-05-30T10:25:27Z</time>
      </trkpt>
      <trkpt lat="45.42186" lon="5.62144">
        <ele>663</ele>
        <time>2009-05-30T10:25:32Z</time>
      </trkpt>
      <trkpt lat="45.42188" lon="5.62146">
        <ele>663</ele>
        <time>2009-05-30T10:25:33Z</time>
      </trkpt>
      <trkpt lat="45.42201" lon="5.62157">
        <ele>664</ele>
        <time>2009-05-30T10:25:45Z</time>
      </trkpt>
      <trkpt lat="45.42203" lon="5.62157">
        <ele>664</ele>
        <time>2009-05-30T10:25:47Z</time>
      </trkpt>
      <trkpt lat="45.42207" lon="5.62159">
        <ele>663</ele>
        <time>2009-05-30T10:25:50Z</time>
      </trkpt>
      <trkpt lat="45.42209" lon="5.62163">
        <ele>664</ele>
        <time>2009-05-30T10:25:53Z</time>
      </trkpt>
      <trkpt lat="45.42212" lon="5.62167">
        <ele>665</ele>
        <time>2009-05-30T10:25:57Z</time>
      </trkpt>
      <trkpt lat="45.4222" lon="5.6218">
        <ele>664</ele>
        <time>2009-05-30T10:26:07Z</time>
      </trkpt>
      <trkpt lat="45.42227" lon="5.62193">
        <ele>668</ele>
        <time>2009-05-30T10:26:19Z</time>
      </trkpt>
      <trkpt lat="45.42229" lon="5.62197">
        <ele>670</ele>
        <time>2009-05-30T10:26:22Z</time>
      </trkpt>
      <trkpt lat="45.42233" lon="5.62206">
        <ele>671</ele>
        <time>2009-05-30T10:26:29Z</time>
      </trkpt>
      <trkpt lat="45.42239" lon="5.62217">
        <ele>673</ele>
        <time>2009-05-30T10:26:37Z</time>
      </trkpt>
      <trkpt lat="45.42242" lon="5.62219">
        <ele>673</ele>
        <time>2009-05-30T10:26:40Z</time>
      </trkpt>
      <trkpt lat="45.42244" lon="5.62221">
        <ele>673</ele>
        <time>2009-05-30T10:26:43Z</time>
      </trkpt>
      <trkpt lat="45.4225" lon="5.62227">
        <ele>672</ele>
        <time>2009-05-30T10:26:51Z</time>
      </trkpt>
      <trkpt lat="45.4225" lon="5.62227">
        <ele>672</ele>
        <time>2009-05-30T10:26:52Z</time>
      </trkpt>
      <trkpt lat="45.42254" lon="5.62232">
        <ele>672</ele>
        <time>2009-05-30T10:26:57Z</time>
      </trkpt>
      <trkpt lat="45.42257" lon="5.62234">
        <ele>672</ele>
        <time>2009-05-30T10:27:00Z</time>
      </trkpt>
      <trkpt lat="45.42272" lon="5.62249">
        <ele>673</ele>
        <time>2009-05-30T10:27:14Z</time>
      </trkpt>
      <trkpt lat="45.42274" lon="5.62251">
        <ele>673</ele>
        <time>2009-05-30T10:27:16Z</time>
      </trkpt>
      <trkpt lat="45.42272" lon="5.62255">
        <ele>673</ele>
        <time>2009-05-30T10:27:19Z</time>
      </trkpt>
      <trkpt lat="45.42274" lon="5.6226">
        <ele>674</ele>
        <time>2009-05-30T10:27:22Z</time>
      </trkpt>
      <trkpt lat="45.42276" lon="5.62262">
        <ele>674</ele>
        <time>2009-05-30T10:27:25Z</time>
      </trkpt>
      <trkpt lat="45.42276" lon="5.62264">
        <ele>674</ele>
        <time>2009-05-30T10:27:28Z</time>
      </trkpt>
      <trkpt lat="45.42278" lon="5.62266">
        <ele>674</ele>
        <time>2009-05-30T10:27:29Z</time>
      </trkpt>
      <trkpt lat="45.4228" lon="5.62266">
        <ele>674</ele>
        <time>2009-05-30T10:27:31Z</time>
      </trkpt>
      <trkpt lat="45.42291" lon="5.62277">
        <ele>677</ele>
        <time>2009-05-30T10:27:41Z</time>
      </trkpt>
      <trkpt lat="45.42302" lon="5.62285">
        <ele>678</ele>
        <time>2009-05-30T10:27:51Z</time>
      </trkpt>
      <trkpt lat="45.42304" lon="5.62292">
        <ele>680</ele>
        <time>2009-05-30T10:27:57Z</time>
      </trkpt>
      <trkpt lat="45.4231" lon="5.62298">
        <ele>681</ele>
        <time>2009-05-30T10:28:03Z</time>
      </trkpt>
      <trkpt lat="45.42321" lon="5.62315">
        <ele>680</ele>
        <time>2009-05-30T10:28:17Z</time>
      </trkpt>
      <trkpt lat="45.42323" lon="5.62322">
        <ele>681</ele>
        <time>2009-05-30T10:28:21Z</time>
      </trkpt>
      <trkpt lat="45.4233" lon="5.62333">
        <ele>684</ele>
        <time>2009-05-30T10:28:31Z</time>
      </trkpt>
      <trkpt lat="45.42332" lon="5.62335">
        <ele>685</ele>
        <time>2009-05-30T10:28:33Z</time>
      </trkpt>
      <trkpt lat="45.42334" lon="5.62339">
        <ele>687</ele>
        <time>2009-05-30T10:28:37Z</time>
      </trkpt>
      <trkpt lat="45.42334" lon="5.62341">
        <ele>688</ele>
        <time>2009-05-30T10:28:39Z</time>
      </trkpt>
      <trkpt lat="45.42351" lon="5.62371">
        <ele>695</ele>
        <time>2009-05-30T10:29:02Z</time>
      </trkpt>
      <trkpt lat="45.42351" lon="5.62373">
        <ele>696</ele>
        <time>2009-05-30T10:29:04Z</time>
      </trkpt>
      <trkpt lat="45.42355" lon="5.6238">
        <ele>696</ele>
        <time>2009-05-30T10:29:08Z</time>
      </trkpt>
      <trkpt lat="45.42357" lon="5.62386">
        <ele>698</ele>
        <time>2009-05-30T10:29:13Z</time>
      </trkpt>
      <trkpt lat="45.4236" lon="5.62388">
        <ele>698</ele>
        <time>2009-05-30T10:29:15Z</time>
      </trkpt>
      <trkpt lat="45.42366" lon="5.62395">
        <ele>699</ele>
        <time>2009-05-30T10:29:21Z</time>
      </trkpt>
      <trkpt lat="45.42372" lon="5.62401">
        <ele>700</ele>
        <time>2009-05-30T10:29:27Z</time>
      </trkpt>
      <trkpt lat="45.42372" lon="5.62401">
        <ele>700</ele>
        <time>2009-05-30T10:29:28Z</time>
      </trkpt>
      <trkpt lat="45.42377" lon="5.62406">
        <ele>700</ele>
        <time>2009-05-30T10:29:31Z</time>
      </trkpt>
      <trkpt lat="45.42385" lon="5.62414">
        <ele>701</ele>
        <time>2009-05-30T10:29:40Z</time>
      </trkpt>
      <trkpt lat="45.4239" lon="5.62418">
        <ele>701</ele>
        <time>2009-05-30T10:29:44Z</time>
      </trkpt>
      <trkpt lat="45.4239" lon="5.62421">
        <ele>702</ele>
        <time>2009-05-30T10:29:45Z</time>
      </trkpt>
      <trkpt lat="45.42396" lon="5.62431">
        <ele>704</ele>
        <time>2009-05-30T10:29:53Z</time>
      </trkpt>
      <trkpt lat="45.424" lon="5.62433">
        <ele>704</ele>
        <time>2009-05-30T10:29:56Z</time>
      </trkpt>
      <trkpt lat="45.42403" lon="5.62438">
        <ele>703</ele>
        <time>2009-05-30T10:29:59Z</time>
      </trkpt>
      <trkpt lat="45.4242" lon="5.62472">
        <ele>707</ele>
        <time>2009-05-30T10:30:15Z</time>
      </trkpt>
      <trkpt lat="45.42422" lon="5.62483">
        <ele>708</ele>
        <time>2009-05-30T10:30:19Z</time>
      </trkpt>
      <trkpt lat="45.42424" lon="5.62489">
        <ele>708</ele>
        <time>2009-05-30T10:30:22Z</time>
      </trkpt>
      <trkpt lat="45.42441" lon="5.62571">
        <ele>711</ele>
        <time>2009-05-30T10:30:51Z</time>
      </trkpt>
      <trkpt lat="45.42448" lon="5.62586">
        <ele>711</ele>
        <time>2009-05-30T10:30:57Z</time>
      </trkpt>
      <trkpt lat="45.42484" lon="5.6265">
        <ele>708</ele>
        <time>2009-05-30T10:31:14Z</time>
      </trkpt>
      <trkpt lat="45.42497" lon="5.62665">
        <ele>708</ele>
        <time>2009-05-30T10:31:18Z</time>
      </trkpt>
      <trkpt lat="45.42527" lon="5.62691">
        <ele>709</ele>
        <time>2009-05-30T10:31:28Z</time>
      </trkpt>
      <trkpt lat="45.42598" lon="5.62747">
        <ele>712</ele>
        <time>2009-05-30T10:31:51Z</time>
      </trkpt>
      <trkpt lat="45.42639" lon="5.62781">
        <ele>715</ele>
        <time>2009-05-30T10:32:08Z</time>
      </trkpt>
      <trkpt lat="45.42669" lon="5.6286">
        <ele>714</ele>
        <time>2009-05-30T10:32:27Z</time>
      </trkpt>
      <trkpt lat="45.42684" lon="5.62906">
        <ele>711</ele>
        <time>2009-05-30T10:32:37Z</time>
      </trkpt>
      <trkpt lat="45.42692" lon="5.62921">
        <ele>710</ele>
        <time>2009-05-30T10:32:41Z</time>
      </trkpt>
      <trkpt lat="45.42707" lon="5.62951">
        <ele>714</ele>
        <time>2009-05-30T10:32:49Z</time>
      </trkpt>
      <trkpt lat="45.42709" lon="5.62985">
        <ele>713</ele>
        <time>2009-05-30T10:32:56Z</time>
      </trkpt>
      <trkpt lat="45.42699" lon="5.63021">
        <ele>714</ele>
        <time>2009-05-30T10:33:03Z</time>
      </trkpt>
      <trkpt lat="45.42692" lon="5.63032">
        <ele>714</ele>
        <time>2009-05-30T10:33:05Z</time>
      </trkpt>
      <trkpt lat="45.42662" lon="5.63084">
        <ele>717</ele>
        <time>2009-05-30T10:33:16Z</time>
      </trkpt>
      <trkpt lat="45.42656" lon="5.63099">
        <ele>718</ele>
        <time>2009-05-30T10:33:21Z</time>
      </trkpt>
      <trkpt lat="45.42632" lon="5.63152">
        <ele>721</ele>
        <time>2009-05-30T10:33:39Z</time>
      </trkpt>
      <trkpt lat="45.42626" lon="5.63163">
        <ele>720</ele>
        <time>2009-05-30T10:33:43Z</time>
      </trkpt>
      <trkpt lat="45.42615" lon="5.63193">
        <ele>718</ele>
        <time>2009-05-30T10:33:54Z</time>
      </trkpt>
      <trkpt lat="45.42613" lon="5.632">
        <ele>719</ele>
        <time>2009-05-30T10:33:57Z</time>
      </trkpt>
      <trkpt lat="45.42611" lon="5.63206">
        <ele>719</ele>
        <time>2009-05-30T10:33:59Z</time>
      </trkpt>
      <trkpt lat="45.42611" lon="5.63212">
        <ele>720</ele>
        <time>2009-05-30T10:34:01Z</time>
      </trkpt>
      <trkpt lat="45.42609" lon="5.63223">
        <ele>722</ele>
        <time>2009-05-30T10:34:05Z</time>
      </trkpt>
      <trkpt lat="45.42604" lon="5.63238">
        <ele>724</ele>
        <time>2009-05-30T10:34:10Z</time>
      </trkpt>
      <trkpt lat="45.42602" lon="5.63242">
        <ele>724</ele>
        <time>2009-05-30T10:34:12Z</time>
      </trkpt>
      <trkpt lat="45.42598" lon="5.63272">
        <ele>727</ele>
        <time>2009-05-30T10:34:23Z</time>
      </trkpt>
      <trkpt lat="45.42596" lon="5.63281">
        <ele>728</ele>
        <time>2009-05-30T10:34:26Z</time>
      </trkpt>
      <trkpt lat="45.42596" lon="5.63283">
        <ele>728</ele>
        <time>2009-05-30T10:34:27Z</time>
      </trkpt>
      <trkpt lat="45.42596" lon="5.6329">
        <ele>728</ele>
        <time>2009-05-30T10:34:29Z</time>
      </trkpt>
      <trkpt lat="45.42596" lon="5.63294">
        <ele>729</ele>
        <time>2009-05-30T10:34:31Z</time>
      </trkpt>
      <trkpt lat="45.42596" lon="5.63303">
        <ele>729</ele>
        <time>2009-05-30T10:34:34Z</time>
      </trkpt>
      <trkpt lat="45.42596" lon="5.63311">
        <ele>730</ele>
        <time>2009-05-30T10:34:38Z</time>
      </trkpt>
      <trkpt lat="45.42593" lon="5.63315">
        <ele>730</ele>
        <time>2009-05-30T10:34:40Z</time>
      </trkpt>
      <trkpt lat="45.42581" lon="5.6333">
        <ele>734</ele>
        <time>2009-05-30T10:34:53Z</time>
      </trkpt>
      <trkpt lat="45.42574" lon="5.63326">
        <ele>734</ele>
        <time>2009-05-30T10:34:57Z</time>
      </trkpt>
      <trkpt lat="45.42568" lon="5.63311">
        <ele>735</ele>
        <time>2009-05-30T10:35:06Z</time>
      </trkpt>
      <trkpt lat="45.42566" lon="5.633">
        <ele>735</ele>
        <time>2009-05-30T10:35:10Z</time>
      </trkpt>
      <trkpt lat="45.42551" lon="5.63242">
        <ele>735</ele>
        <time>2009-05-30T10:35:39Z</time>
      </trkpt>
      <trkpt lat="45.42548" lon="5.63236">
        <ele>735</ele>
        <time>2009-05-30T10:35:42Z</time>
      </trkpt>
      <trkpt lat="45.42542" lon="5.6321">
        <ele>737</ele>
        <time>2009-05-30T10:35:56Z</time>
      </trkpt>
      <trkpt lat="45.42542" lon="5.63202">
        <ele>737</ele>
        <time>2009-05-30T10:36:00Z</time>
      </trkpt>
      <trkpt lat="45.42538" lon="5.63189">
        <ele>738</ele>
        <time>2009-05-30T10:36:06Z</time>
      </trkpt>
      <trkpt lat="45.42533" lon="5.63172">
        <ele>741</ele>
        <time>2009-05-30T10:36:13Z</time>
      </trkpt>
      <trkpt lat="45.42529" lon="5.63165">
        <ele>742</ele>
        <time>2009-05-30T10:36:17Z</time>
      </trkpt>
      <trkpt lat="45.42521" lon="5.63154">
        <ele>745</ele>
        <time>2009-05-30T10:36:24Z</time>
      </trkpt>
      <trkpt lat="45.42516" lon="5.63148">
        <ele>745</ele>
        <time>2009-05-30T10:36:29Z</time>
      </trkpt>
      <trkpt lat="45.42514" lon="5.63146">
        <ele>746</ele>
        <time>2009-05-30T10:36:31Z</time>
      </trkpt>
      <trkpt lat="45.42508" lon="5.63146">
        <ele>747</ele>
        <time>2009-05-30T10:36:36Z</time>
      </trkpt>
      <trkpt lat="45.42501" lon="5.63144">
        <ele>748</ele>
        <time>2009-05-30T10:36:40Z</time>
      </trkpt>
      <trkpt lat="45.42497" lon="5.63146">
        <ele>748</ele>
        <time>2009-05-30T10:36:44Z</time>
      </trkpt>
      <trkpt lat="45.42473" lon="5.63161">
        <ele>751</ele>
        <time>2009-05-30T10:37:03Z</time>
      </trkpt>
      <trkpt lat="45.42471" lon="5.63172">
        <ele>754</ele>
        <time>2009-05-30T10:37:10Z</time>
      </trkpt>
      <trkpt lat="45.42471" lon="5.63187">
        <ele>755</ele>
        <time>2009-05-30T10:37:17Z</time>
      </trkpt>
      <trkpt lat="45.42469" lon="5.63215">
        <ele>759</ele>
        <time>2009-05-30T10:37:32Z</time>
      </trkpt>
      <trkpt lat="45.42471" lon="5.63221">
        <ele>759</ele>
        <time>2009-05-30T10:37:35Z</time>
      </trkpt>
      <trkpt lat="45.42471" lon="5.63221">
        <ele>759</ele>
        <time>2009-05-30T10:37:36Z</time>
      </trkpt>
      <trkpt lat="45.42471" lon="5.63227">
        <ele>760</ele>
        <time>2009-05-30T10:37:39Z</time>
      </trkpt>
      <trkpt lat="45.42471" lon="5.6323">
        <ele>760</ele>
        <time>2009-05-30T10:37:41Z</time>
      </trkpt>
      <trkpt lat="45.42471" lon="5.6323">
        <ele>761</ele>
        <time>2009-05-30T10:37:44Z</time>
      </trkpt>
      <trkpt lat="45.42471" lon="5.63234">
        <ele>762</ele>
        <time>2009-05-30T10:37:47Z</time>
      </trkpt>
      <trkpt lat="45.42469" lon="5.63236">
        <ele>763</ele>
        <time>2009-05-30T10:37:50Z</time>
      </trkpt>
      <trkpt lat="45.42469" lon="5.63242">
        <ele>764</ele>
        <time>2009-05-30T10:37:53Z</time>
      </trkpt>
      <trkpt lat="45.42469" lon="5.6326">
        <ele>765</ele>
        <time>2009-05-30T10:38:01Z</time>
      </trkpt>
      <trkpt lat="45.42467" lon="5.63266">
        <ele>765</ele>
        <time>2009-05-30T10:38:04Z</time>
      </trkpt>
      <trkpt lat="45.42463" lon="5.63288">
        <ele>767</ele>
        <time>2009-05-30T10:38:18Z</time>
      </trkpt>
      <trkpt lat="45.42454" lon="5.63326">
        <ele>770</ele>
        <time>2009-05-30T10:38:39Z</time>
      </trkpt>
      <trkpt lat="45.42448" lon="5.63343">
        <ele>772</ele>
        <time>2009-05-30T10:38:51Z</time>
      </trkpt>
      <trkpt lat="45.42443" lon="5.63348">
        <ele>773</ele>
        <time>2009-05-30T10:38:54Z</time>
      </trkpt>
      <trkpt lat="45.42441" lon="5.6335">
        <ele>773</ele>
        <time>2009-05-30T10:38:56Z</time>
      </trkpt>
      <trkpt lat="45.42441" lon="5.63352">
        <ele>773</ele>
        <time>2009-05-30T10:38:58Z</time>
      </trkpt>
      <trkpt lat="45.42418" lon="5.63369">
        <ele>778</ele>
        <time>2009-05-30T10:39:15Z</time>
      </trkpt>
      <trkpt lat="45.42409" lon="5.6338">
        <ele>783</ele>
        <time>2009-05-30T10:39:23Z</time>
      </trkpt>
      <trkpt lat="45.42407" lon="5.63382">
        <ele>783</ele>
        <time>2009-05-30T10:39:25Z</time>
      </trkpt>
      <trkpt lat="45.42403" lon="5.63386">
        <ele>784</ele>
        <time>2009-05-30T10:39:29Z</time>
      </trkpt>
      <trkpt lat="45.42398" lon="5.6339">
        <ele>784</ele>
        <time>2009-05-30T10:39:32Z</time>
      </trkpt>
      <trkpt lat="45.42392" lon="5.63399">
        <ele>785</ele>
        <time>2009-05-30T10:39:38Z</time>
      </trkpt>
      <trkpt lat="45.42381" lon="5.63408">
        <ele>785</ele>
        <time>2009-05-30T10:39:45Z</time>
      </trkpt>
      <trkpt lat="45.42377" lon="5.63412">
        <ele>785</ele>
        <time>2009-05-30T10:39:48Z</time>
      </trkpt>
      <trkpt lat="45.42375" lon="5.63416">
        <ele>784</ele>
        <time>2009-05-30T10:39:50Z</time>
      </trkpt>
      <trkpt lat="45.42364" lon="5.63429">
        <ele>785</ele>
        <time>2009-05-30T10:40:00Z</time>
      </trkpt>
      <trkpt lat="45.42345" lon="5.63459">
        <ele>784</ele>
        <time>2009-05-30T10:40:18Z</time>
      </trkpt>
      <trkpt lat="45.42342" lon="5.63463">
        <ele>785</ele>
        <time>2009-05-30T10:40:21Z</time>
      </trkpt>
      <trkpt lat="45.42336" lon="5.63472">
        <ele>785</ele>
        <time>2009-05-30T10:40:26Z</time>
      </trkpt>
      <trkpt lat="45.4233" lon="5.63483">
        <ele>786</ele>
        <time>2009-05-30T10:40:32Z</time>
      </trkpt>
      <trkpt lat="45.42327" lon="5.63493">
        <ele>788</ele>
        <time>2009-05-30T10:40:37Z</time>
      </trkpt>
      <trkpt lat="45.42323" lon="5.635">
        <ele>788</ele>
        <time>2009-05-30T10:40:40Z</time>
      </trkpt>
      <trkpt lat="45.42321" lon="5.63506">
        <ele>788</ele>
        <time>2009-05-30T10:40:43Z</time>
      </trkpt>
      <trkpt lat="45.42312" lon="5.63534">
        <ele>792</ele>
        <time>2009-05-30T10:40:55Z</time>
      </trkpt>
      <trkpt lat="45.4231" lon="5.63543">
        <ele>793</ele>
        <time>2009-05-30T10:40:59Z</time>
      </trkpt>
      <trkpt lat="45.42306" lon="5.63562">
        <ele>796</ele>
        <time>2009-05-30T10:41:05Z</time>
      </trkpt>
      <trkpt lat="45.42293" lon="5.63642">
        <ele>796</ele>
        <time>2009-05-30T10:41:26Z</time>
      </trkpt>
      <trkpt lat="45.42291" lon="5.63672">
        <ele>795</ele>
        <time>2009-05-30T10:41:34Z</time>
      </trkpt>
      <trkpt lat="45.42302" lon="5.6376">
        <ele>797</ele>
        <time>2009-05-30T10:41:58Z</time>
      </trkpt>
      <trkpt lat="45.42304" lon="5.63772">
        <ele>797</ele>
        <time>2009-05-30T10:42:01Z</time>
      </trkpt>
      <trkpt lat="45.42327" lon="5.63893">
        <ele>797</ele>
        <time>2009-05-30T10:42:25Z</time>
      </trkpt>
      <trkpt lat="45.42334" lon="5.63918">
        <ele>797</ele>
        <time>2009-05-30T10:42:31Z</time>
      </trkpt>
      <trkpt lat="45.42338" lon="5.63942">
        <ele>799</ele>
        <time>2009-05-30T10:42:36Z</time>
      </trkpt>
      <trkpt lat="45.42338" lon="5.63948">
        <ele>799</ele>
        <time>2009-05-30T10:42:38Z</time>
      </trkpt>
      <trkpt lat="45.4233" lon="5.63978">
        <ele>799</ele>
        <time>2009-05-30T10:42:45Z</time>
      </trkpt>
      <trkpt lat="45.42327" lon="5.63985">
        <ele>799</ele>
        <time>2009-05-30T10:42:47Z</time>
      </trkpt>
      <trkpt lat="45.42327" lon="5.63996">
        <ele>800</ele>
        <time>2009-05-30T10:42:51Z</time>
      </trkpt>
      <trkpt lat="45.4233" lon="5.64">
        <ele>802</ele>
        <time>2009-05-30T10:42:54Z</time>
      </trkpt>
      <trkpt lat="45.42327" lon="5.64">
        <ele>808</ele>
        <time>2009-05-30T10:43:22Z</time>
      </trkpt>
      <trkpt lat="45.4233" lon="5.63996">
        <ele>825</ele>
        <time>2009-05-30T10:50:34Z</time>
      </trkpt>
      <trkpt lat="45.4233" lon="5.63998">
        <ele>824</ele>
        <time>2009-05-30T10:50:36Z</time>
      </trkpt>
      <trkpt lat="45.42327" lon="5.64002">
        <ele>824</ele>
        <time>2009-05-30T10:50:39Z</time>
      </trkpt>
      <trkpt lat="45.42323" lon="5.64013">
        <ele>822</ele>
        <time>2009-05-30T10:50:42Z</time>
      </trkpt>
      <trkpt lat="45.42323" lon="5.64015">
        <ele>822</ele>
        <time>2009-05-30T10:50:43Z</time>
      </trkpt>
      <trkpt lat="45.4231" lon="5.64071">
        <ele>815</ele>
        <time>2009-05-30T10:51:00Z</time>
      </trkpt>
      <trkpt lat="45.42308" lon="5.6409">
        <ele>815</ele>
        <time>2009-05-30T10:51:06Z</time>
      </trkpt>
      <trkpt lat="45.423" lon="5.6415">
        <ele>815</ele>
        <time>2009-05-30T10:51:26Z</time>
      </trkpt>
      <trkpt lat="45.423" lon="5.64154">
        <ele>815</ele>
        <time>2009-05-30T10:51:28Z</time>
      </trkpt>
      <trkpt lat="45.423" lon="5.64167">
        <ele>817</ele>
        <time>2009-05-30T10:51:33Z</time>
      </trkpt>
      <trkpt lat="45.42297" lon="5.64174">
        <ele>817</ele>
        <time>2009-05-30T10:51:36Z</time>
      </trkpt>
      <trkpt lat="45.42297" lon="5.64182">
        <ele>818</ele>
        <time>2009-05-30T10:51:39Z</time>
      </trkpt>
      <trkpt lat="45.42302" lon="5.64212">
        <ele>817</ele>
        <time>2009-05-30T10:51:52Z</time>
      </trkpt>
      <trkpt lat="45.42302" lon="5.64221">
        <ele>818</ele>
        <time>2009-05-30T10:51:55Z</time>
      </trkpt>
      <trkpt lat="45.42302" lon="5.64234">
        <ele>818</ele>
        <time>2009-05-30T10:52:01Z</time>
      </trkpt>
      <trkpt lat="45.42302" lon="5.64245">
        <ele>818</ele>
        <time>2009-05-30T10:52:05Z</time>
      </trkpt>
      <trkpt lat="45.42302" lon="5.64247">
        <ele>818</ele>
        <time>2009-05-30T10:52:06Z</time>
      </trkpt>
      <trkpt lat="45.42297" lon="5.6427">
        <ele>819</ele>
        <time>2009-05-30T10:52:15Z</time>
      </trkpt>
      <trkpt lat="45.42284" lon="5.64311">
        <ele>821</ele>
        <time>2009-05-30T10:52:34Z</time>
      </trkpt>
      <trkpt lat="45.42278" lon="5.64322">
        <ele>821</ele>
        <time>2009-05-30T10:52:40Z</time>
      </trkpt>
      <trkpt lat="45.42274" lon="5.64326">
        <ele>821</ele>
        <time>2009-05-30T10:52:43Z</time>
      </trkpt>
      <trkpt lat="45.42261" lon="5.64337">
        <ele>821</ele>
        <time>2009-05-30T10:52:52Z</time>
      </trkpt>
      <trkpt lat="45.4225" lon="5.64354">
        <ele>822</ele>
        <time>2009-05-30T10:53:01Z</time>
      </trkpt>
      <trkpt lat="45.42233" lon="5.64382">
        <ele>824</ele>
        <time>2009-05-30T10:53:15Z</time>
      </trkpt>
      <trkpt lat="45.42233" lon="5.64395">
        <ele>824</ele>
        <time>2009-05-30T10:53:19Z</time>
      </trkpt>
      <trkpt lat="45.42235" lon="5.64399">
        <ele>824</ele>
        <time>2009-05-30T10:53:20Z</time>
      </trkpt>
      <trkpt lat="45.42242" lon="5.64412">
        <ele>824</ele>
        <time>2009-05-30T10:53:24Z</time>
      </trkpt>
      <trkpt lat="45.42244" lon="5.64416">
        <ele>824</ele>
        <time>2009-05-30T10:53:25Z</time>
      </trkpt>
      <trkpt lat="45.42248" lon="5.64423">
        <ele>824</ele>
        <time>2009-05-30T10:53:27Z</time>
      </trkpt>
      <trkpt lat="45.42269" lon="5.6444">
        <ele>824</ele>
        <time>2009-05-30T10:53:33Z</time>
      </trkpt>
      <trkpt lat="45.42274" lon="5.64459">
        <ele>824</ele>
        <time>2009-05-30T10:53:37Z</time>
      </trkpt>
      <trkpt lat="45.42272" lon="5.64466">
        <ele>824</ele>
        <time>2009-05-30T10:53:39Z</time>
      </trkpt>
      <trkpt lat="45.42252" lon="5.64532">
        <ele>825</ele>
        <time>2009-05-30T10:53:54Z</time>
      </trkpt>
      <trkpt lat="45.42239" lon="5.64581">
        <ele>828</ele>
        <time>2009-05-30T10:54:09Z</time>
      </trkpt>
      <trkpt lat="45.42237" lon="5.64592">
        <ele>829</ele>
        <time>2009-05-30T10:54:13Z</time>
      </trkpt>
      <trkpt lat="45.42231" lon="5.64605">
        <ele>829</ele>
        <time>2009-05-30T10:54:19Z</time>
      </trkpt>
      <trkpt lat="45.42229" lon="5.64611">
        <ele>829</ele>
        <time>2009-05-30T10:54:23Z</time>
      </trkpt>
      <trkpt lat="45.42227" lon="5.6462">
        <ele>830</ele>
        <time>2009-05-30T10:54:28Z</time>
      </trkpt>
      <trkpt lat="45.42227" lon="5.64626">
        <ele>828</ele>
        <time>2009-05-30T10:54:31Z</time>
      </trkpt>
      <trkpt lat="45.42227" lon="5.64652">
        <ele>828</ele>
        <time>2009-05-30T10:54:44Z</time>
      </trkpt>
      <trkpt lat="45.42222" lon="5.64676">
        <ele>829</ele>
        <time>2009-05-30T10:54:56Z</time>
      </trkpt>
      <trkpt lat="45.42222" lon="5.64682">
        <ele>830</ele>
        <time>2009-05-30T10:54:59Z</time>
      </trkpt>
      <trkpt lat="45.42218" lon="5.64693">
        <ele>835</ele>
        <time>2009-05-30T10:55:05Z</time>
      </trkpt>
      <trkpt lat="45.42216" lon="5.64702">
        <ele>837</ele>
        <time>2009-05-30T10:55:09Z</time>
      </trkpt>
      <trkpt lat="45.42214" lon="5.64706">
        <ele>838</ele>
        <time>2009-05-30T10:55:12Z</time>
      </trkpt>
      <trkpt lat="45.42212" lon="5.64714">
        <ele>839</ele>
        <time>2009-05-30T10:55:16Z</time>
      </trkpt>
      <trkpt lat="45.42212" lon="5.64719">
        <ele>840</ele>
        <time>2009-05-30T10:55:19Z</time>
      </trkpt>
      <trkpt lat="45.42209" lon="5.64721">
        <ele>840</ele>
        <time>2009-05-30T10:55:20Z</time>
      </trkpt>
      <trkpt lat="45.42207" lon="5.64725">
        <ele>841</ele>
        <time>2009-05-30T10:55:23Z</time>
      </trkpt>
      <trkpt lat="45.42203" lon="5.64736">
        <ele>843</ele>
        <time>2009-05-30T10:55:28Z</time>
      </trkpt>
      <trkpt lat="45.42203" lon="5.64738">
        <ele>842</ele>
        <time>2009-05-30T10:55:30Z</time>
      </trkpt>
      <trkpt lat="45.42197" lon="5.64753">
        <ele>843</ele>
        <time>2009-05-30T10:55:39Z</time>
      </trkpt>
      <trkpt lat="45.42192" lon="5.64764">
        <ele>846</ele>
        <time>2009-05-30T10:55:44Z</time>
      </trkpt>
      <trkpt lat="45.42192" lon="5.64768">
        <ele>846</ele>
        <time>2009-05-30T10:55:46Z</time>
      </trkpt>
      <trkpt lat="45.42188" lon="5.64785">
        <ele>843</ele>
        <time>2009-05-30T10:55:55Z</time>
      </trkpt>
      <trkpt lat="45.42188" lon="5.64798">
        <ele>843</ele>
        <time>2009-05-30T10:56:00Z</time>
      </trkpt>
      <trkpt lat="45.42186" lon="5.64809">
        <ele>844</ele>
        <time>2009-05-30T10:56:04Z</time>
      </trkpt>
      <trkpt lat="45.42184" lon="5.64826">
        <ele>844</ele>
        <time>2009-05-30T10:56:12Z</time>
      </trkpt>
      <trkpt lat="45.42181" lon="5.64832">
        <ele>845</ele>
        <time>2009-05-30T10:56:15Z</time>
      </trkpt>
      <trkpt lat="45.42184" lon="5.64841">
        <ele>845</ele>
        <time>2009-05-30T10:56:19Z</time>
      </trkpt>
      <trkpt lat="45.42184" lon="5.64854">
        <ele>847</ele>
        <time>2009-05-30T10:56:24Z</time>
      </trkpt>
      <trkpt lat="45.42186" lon="5.64862">
        <ele>849</ele>
        <time>2009-05-30T10:56:28Z</time>
      </trkpt>
      <trkpt lat="45.42186" lon="5.64869">
        <ele>849</ele>
        <time>2009-05-30T10:56:31Z</time>
      </trkpt>
      <trkpt lat="45.42186" lon="5.64886">
        <ele>852</ele>
        <time>2009-05-30T10:56:40Z</time>
      </trkpt>
      <trkpt lat="45.42188" lon="5.64903">
        <ele>853</ele>
        <time>2009-05-30T10:56:49Z</time>
      </trkpt>
      <trkpt lat="45.4219" lon="5.6491">
        <ele>853</ele>
        <time>2009-05-30T10:56:52Z</time>
      </trkpt>
      <trkpt lat="45.4219" lon="5.64916">
        <ele>854</ele>
        <time>2009-05-30T10:56:55Z</time>
      </trkpt>
      <trkpt lat="45.42192" lon="5.64927">
        <ele>855</ele>
        <time>2009-05-30T10:56:59Z</time>
      </trkpt>
      <trkpt lat="45.42194" lon="5.64935">
        <ele>856</ele>
        <time>2009-05-30T10:57:03Z</time>
      </trkpt>
      <trkpt lat="45.42192" lon="5.64953">
        <ele>856</ele>
        <time>2009-05-30T10:57:11Z</time>
      </trkpt>
      <trkpt lat="45.4219" lon="5.64957">
        <ele>856</ele>
        <time>2009-05-30T10:57:13Z</time>
      </trkpt>
      <trkpt lat="45.42188" lon="5.64965">
        <ele>856</ele>
        <time>2009-05-30T10:57:16Z</time>
      </trkpt>
      <trkpt lat="45.42188" lon="5.64972">
        <ele>856</ele>
        <time>2009-05-30T10:57:19Z</time>
      </trkpt>
      <trkpt lat="45.4219" lon="5.64974">
        <ele>856</ele>
        <time>2009-05-30T10:57:20Z</time>
      </trkpt>
      <trkpt lat="45.4219" lon="5.64981">
        <ele>857</ele>
        <time>2009-05-30T10:57:23Z</time>
      </trkpt>
      <trkpt lat="45.4219" lon="5.64985">
        <ele>856</ele>
        <time>2009-05-30T10:57:25Z</time>
      </trkpt>
      <trkpt lat="45.42192" lon="5.64991">
        <ele>854</ele>
        <time>2009-05-30T10:57:29Z</time>
      </trkpt>
      <trkpt lat="45.42192" lon="5.64996">
        <ele>855</ele>
        <time>2009-05-30T10:57:32Z</time>
      </trkpt>
      <trkpt lat="45.42194" lon="5.65004">
        <ele>855</ele>
        <time>2009-05-30T10:57:36Z</time>
      </trkpt>
      <trkpt lat="45.42192" lon="5.65011">
        <ele>857</ele>
        <time>2009-05-30T10:57:39Z</time>
      </trkpt>
      <trkpt lat="45.42192" lon="5.65015">
        <ele>857</ele>
        <time>2009-05-30T10:57:40Z</time>
      </trkpt>
      <trkpt lat="45.42186" lon="5.65043">
        <ele>857</ele>
        <time>2009-05-30T10:57:51Z</time>
      </trkpt>
      <trkpt lat="45.42184" lon="5.65049">
        <ele>857</ele>
        <time>2009-05-30T10:57:53Z</time>
      </trkpt>
      <trkpt lat="45.42179" lon="5.65058">
        <ele>857</ele>
        <time>2009-05-30T10:57:56Z</time>
      </trkpt>
      <trkpt lat="45.42177" lon="5.65064">
        <ele>857</ele>
        <time>2009-05-30T10:57:58Z</time>
      </trkpt>
      <trkpt lat="45.42177" lon="5.65077">
        <ele>857</ele>
        <time>2009-05-30T10:58:01Z</time>
      </trkpt>
      <trkpt lat="45.42177" lon="5.65088">
        <ele>857</ele>
        <time>2009-05-30T10:58:04Z</time>
      </trkpt>
      <trkpt lat="45.42179" lon="5.65103">
        <ele>857</ele>
        <time>2009-05-30T10:58:08Z</time>
      </trkpt>
      <trkpt lat="45.42181" lon="5.65114">
        <ele>856</ele>
        <time>2009-05-30T10:58:12Z</time>
      </trkpt>
      <trkpt lat="45.42186" lon="5.65124">
        <ele>855</ele>
        <time>2009-05-30T10:58:16Z</time>
      </trkpt>
      <trkpt lat="45.4219" lon="5.65131">
        <ele>854</ele>
        <time>2009-05-30T10:58:20Z</time>
      </trkpt>
      <trkpt lat="45.42192" lon="5.65135">
        <ele>854</ele>
        <time>2009-05-30T10:58:22Z</time>
      </trkpt>
      <trkpt lat="45.42197" lon="5.65144">
        <ele>853</ele>
        <time>2009-05-30T10:58:27Z</time>
      </trkpt>
      <trkpt lat="45.42201" lon="5.65152">
        <ele>853</ele>
        <time>2009-05-30T10:58:32Z</time>
      </trkpt>
      <trkpt lat="45.42201" lon="5.65169">
        <ele>853</ele>
        <time>2009-05-30T10:58:34Z</time>
      </trkpt>
      <trkpt lat="45.42205" lon="5.65195">
        <ele>852</ele>
        <time>2009-05-30T10:58:38Z</time>
      </trkpt>
      <trkpt lat="45.42207" lon="5.65202">
        <ele>855</ele>
        <time>2009-05-30T10:58:45Z</time>
      </trkpt>
      <trkpt lat="45.42207" lon="5.6521">
        <ele>854</ele>
        <time>2009-05-30T10:58:47Z</time>
      </trkpt>
      <trkpt lat="45.42209" lon="5.65229">
        <ele>852</ele>
        <time>2009-05-30T10:58:51Z</time>
      </trkpt>
      <trkpt lat="45.42214" lon="5.65324">
        <ele>844</ele>
        <time>2009-05-30T10:59:02Z</time>
      </trkpt>
      <trkpt lat="45.42205" lon="5.65435">
        <ele>842</ele>
        <time>2009-05-30T10:59:13Z</time>
      </trkpt>
      <trkpt lat="45.42188" lon="5.65438">
        <ele>842</ele>
        <time>2009-05-30T10:59:15Z</time>
      </trkpt>
      <trkpt lat="45.42181" lon="5.6544">
        <ele>842</ele>
        <time>2009-05-30T10:59:17Z</time>
      </trkpt>
      <trkpt lat="45.42179" lon="5.65446">
        <ele>843</ele>
        <time>2009-05-30T10:59:19Z</time>
      </trkpt>
      <trkpt lat="45.42184" lon="5.65455">
        <ele>841</ele>
        <time>2009-05-30T10:59:23Z</time>
      </trkpt>
      <trkpt lat="45.42179" lon="5.65453">
        <ele>841</ele>
        <time>2009-05-30T10:59:25Z</time>
      </trkpt>
      <trkpt lat="45.42175" lon="5.65459">
        <ele>841</ele>
        <time>2009-05-30T10:59:29Z</time>
      </trkpt>
      <trkpt lat="45.42175" lon="5.65459">
        <ele>841</ele>
        <time>2009-05-30T10:59:32Z</time>
      </trkpt>
      <trkpt lat="45.42175" lon="5.65463">
        <ele>842</ele>
        <time>2009-05-30T10:59:36Z</time>
      </trkpt>
      <trkpt lat="45.42175" lon="5.65474">
        <ele>842</ele>
        <time>2009-05-30T10:59:41Z</time>
      </trkpt>
      <trkpt lat="45.42173" lon="5.6548">
        <ele>842</ele>
        <time>2009-05-30T10:59:45Z</time>
      </trkpt>
      <trkpt lat="45.42173" lon="5.65487">
        <ele>842</ele>
        <time>2009-05-30T10:59:48Z</time>
      </trkpt>
      <trkpt lat="45.42171" lon="5.65487">
        <ele>842</ele>
        <time>2009-05-30T10:59:49Z</time>
      </trkpt>
      <trkpt lat="45.42171" lon="5.65487">
        <ele>843</ele>
        <time>2009-05-30T10:59:56Z</time>
      </trkpt>
      <trkpt lat="45.42171" lon="5.65491">
        <ele>843</ele>
        <time>2009-05-30T10:59:58Z</time>
      </trkpt>
      <trkpt lat="45.42169" lon="5.65498">
        <ele>843</ele>
        <time>2009-05-30T11:00:02Z</time>
      </trkpt>
      <trkpt lat="45.42164" lon="5.65519">
        <ele>846</ele>
        <time>2009-05-30T11:00:14Z</time>
      </trkpt>
      <trkpt lat="45.42164" lon="5.65526">
        <ele>847</ele>
        <time>2009-05-30T11:00:17Z</time>
      </trkpt>
      <trkpt lat="45.42164" lon="5.6553">
        <ele>847</ele>
        <time>2009-05-30T11:00:19Z</time>
      </trkpt>
      <trkpt lat="45.4216" lon="5.65543">
        <ele>847</ele>
        <time>2009-05-30T11:00:26Z</time>
      </trkpt>
      <trkpt lat="45.4216" lon="5.65553">
        <ele>847</ele>
        <time>2009-05-30T11:00:29Z</time>
      </trkpt>
      <trkpt lat="45.42169" lon="5.65573">
        <ele>847</ele>
        <time>2009-05-30T11:00:38Z</time>
      </trkpt>
      <trkpt lat="45.42171" lon="5.65579">
        <ele>847</ele>
        <time>2009-05-30T11:00:40Z</time>
      </trkpt>
      <trkpt lat="45.42181" lon="5.65586">
        <ele>847</ele>
        <time>2009-05-30T11:00:44Z</time>
      </trkpt>
      <trkpt lat="45.42184" lon="5.65588">
        <ele>848</ele>
        <time>2009-05-30T11:00:45Z</time>
      </trkpt>
      <trkpt lat="45.42188" lon="5.65592">
        <ele>848</ele>
        <time>2009-05-30T11:00:47Z</time>
      </trkpt>
      <trkpt lat="45.42192" lon="5.65603">
        <ele>849</ele>
        <time>2009-05-30T11:00:50Z</time>
      </trkpt>
      <trkpt lat="45.42188" lon="5.65629">
        <ele>849</ele>
        <time>2009-05-30T11:00:57Z</time>
      </trkpt>
      <trkpt lat="45.42173" lon="5.65686">
        <ele>851</ele>
        <time>2009-05-30T11:01:07Z</time>
      </trkpt>
      <trkpt lat="45.42173" lon="5.65704">
        <ele>850</ele>
        <time>2009-05-30T11:01:10Z</time>
      </trkpt>
      <trkpt lat="45.42175" lon="5.6571">
        <ele>850</ele>
        <time>2009-05-30T11:01:11Z</time>
      </trkpt>
      <trkpt lat="45.42186" lon="5.65807">
        <ele>849</ele>
        <time>2009-05-30T11:01:28Z</time>
      </trkpt>
      <trkpt lat="45.42186" lon="5.65841">
        <ele>849</ele>
        <time>2009-05-30T11:01:35Z</time>
      </trkpt>
      <trkpt lat="45.42186" lon="5.6585">
        <ele>850</ele>
        <time>2009-05-30T11:01:37Z</time>
      </trkpt>
      <trkpt lat="45.42188" lon="5.65858">
        <ele>850</ele>
        <time>2009-05-30T11:01:39Z</time>
      </trkpt>
      <trkpt lat="45.42199" lon="5.65871">
        <ele>851</ele>
        <time>2009-05-30T11:01:44Z</time>
      </trkpt>
      <trkpt lat="45.42209" lon="5.6589">
        <ele>851</ele>
        <time>2009-05-30T11:01:51Z</time>
      </trkpt>
      <trkpt lat="45.42216" lon="5.65895">
        <ele>851</ele>
        <time>2009-05-30T11:01:53Z</time>
      </trkpt>
      <trkpt lat="45.42233" lon="5.65901">
        <ele>851</ele>
        <time>2009-05-30T11:02:00Z</time>
      </trkpt>
      <trkpt lat="45.4225" lon="5.65918">
        <ele>852</ele>
        <time>2009-05-30T11:02:08Z</time>
      </trkpt>
      <trkpt lat="45.42257" lon="5.65929">
        <ele>852</ele>
        <time>2009-05-30T11:02:13Z</time>
      </trkpt>
      <trkpt lat="45.42261" lon="5.65942">
        <ele>853</ele>
        <time>2009-05-30T11:02:18Z</time>
      </trkpt>
      <trkpt lat="45.42267" lon="5.65955">
        <ele>854</ele>
        <time>2009-05-30T11:02:21Z</time>
      </trkpt>
      <trkpt lat="45.42267" lon="5.65968">
        <ele>853</ele>
        <time>2009-05-30T11:02:24Z</time>
      </trkpt>
      <trkpt lat="45.42269" lon="5.65974">
        <ele>854</ele>
        <time>2009-05-30T11:02:26Z</time>
      </trkpt>
      <trkpt lat="45.42287" lon="5.66023">
        <ele>855</ele>
        <time>2009-05-30T11:02:38Z</time>
      </trkpt>
      <trkpt lat="45.42315" lon="5.66071">
        <ele>855</ele>
        <time>2009-05-30T11:02:57Z</time>
      </trkpt>
      <trkpt lat="45.42325" lon="5.66086">
        <ele>854</ele>
        <time>2009-05-30T11:03:03Z</time>
      </trkpt>
      <trkpt lat="45.42347" lon="5.66113">
        <ele>854</ele>
        <time>2009-05-30T11:03:15Z</time>
      </trkpt>
      <trkpt lat="45.4237" lon="5.66135">
        <ele>854</ele>
        <time>2009-05-30T11:03:29Z</time>
      </trkpt>
      <trkpt lat="45.42381" lon="5.66141">
        <ele>854</ele>
        <time>2009-05-30T11:03:35Z</time>
      </trkpt>
      <trkpt lat="45.42383" lon="5.66146">
        <ele>854</ele>
        <time>2009-05-30T11:03:37Z</time>
      </trkpt>
      <trkpt lat="45.4239" lon="5.66148">
        <ele>855</ele>
        <time>2009-05-30T11:03:40Z</time>
      </trkpt>
      <trkpt lat="45.42394" lon="5.6615">
        <ele>854</ele>
        <time>2009-05-30T11:03:42Z</time>
      </trkpt>
      <trkpt lat="45.42452" lon="5.66182">
        <ele>856</ele>
        <time>2009-05-30T11:04:08Z</time>
      </trkpt>
      <trkpt lat="45.42482" lon="5.66206">
        <ele>857</ele>
        <time>2009-05-30T11:04:21Z</time>
      </trkpt>
      <trkpt lat="45.42497" lon="5.66221">
        <ele>858</ele>
        <time>2009-05-30T11:04:28Z</time>
      </trkpt>
      <trkpt lat="45.42523" lon="5.66277">
        <ele>862</ele>
        <time>2009-05-30T11:04:49Z</time>
      </trkpt>
      <trkpt lat="45.42531" lon="5.66287">
        <ele>867</ele>
        <time>2009-05-30T11:04:56Z</time>
      </trkpt>
      <trkpt lat="45.42572" lon="5.66315">
        <ele>870</ele>
        <time>2009-05-30T11:05:28Z</time>
      </trkpt>
      <trkpt lat="45.42617" lon="5.66371">
        <ele>870</ele>
        <time>2009-05-30T11:05:46Z</time>
      </trkpt>
      <trkpt lat="45.42688" lon="5.66457">
        <ele>871</ele>
        <time>2009-05-30T11:06:01Z</time>
      </trkpt>
      <trkpt lat="45.4269" lon="5.66461">
        <ele>871</ele>
        <time>2009-05-30T11:06:02Z</time>
      </trkpt>
      <trkpt lat="45.42696" lon="5.66468">
        <ele>871</ele>
        <time>2009-05-30T11:06:04Z</time>
      </trkpt>
      <trkpt lat="45.42701" lon="5.66478">
        <ele>873</ele>
        <time>2009-05-30T11:06:07Z</time>
      </trkpt>
      <trkpt lat="45.42731" lon="5.66558">
        <ele>870</ele>
        <time>2009-05-30T11:06:24Z</time>
      </trkpt>
      <trkpt lat="45.42759" lon="5.66648">
        <ele>873</ele>
        <time>2009-05-30T11:06:46Z</time>
      </trkpt>
      <trkpt lat="45.42763" lon="5.66656">
        <ele>873</ele>
        <time>2009-05-30T11:06:48Z</time>
      </trkpt>
      <trkpt lat="45.42778" lon="5.66669">
        <ele>875</ele>
        <time>2009-05-30T11:06:53Z</time>
      </trkpt>
      <trkpt lat="45.42795" lon="5.66693">
        <ele>875</ele>
        <time>2009-05-30T11:07:00Z</time>
      </trkpt>
      <trkpt lat="45.42802" lon="5.66706">
        <ele>875</ele>
        <time>2009-05-30T11:07:03Z</time>
      </trkpt>
      <trkpt lat="45.4281" lon="5.66734">
        <ele>875</ele>
        <time>2009-05-30T11:07:06Z</time>
      </trkpt>
      <trkpt lat="45.42838" lon="5.66802">
        <ele>873</ele>
        <time>2009-05-30T11:07:15Z</time>
      </trkpt>
      <trkpt lat="45.42885" lon="5.66897">
        <ele>872</ele>
        <time>2009-05-30T11:07:34Z</time>
      </trkpt>
      <trkpt lat="45.4289" lon="5.6691">
        <ele>872</ele>
        <time>2009-05-30T11:07:36Z</time>
      </trkpt>
      <trkpt lat="45.42911" lon="5.66978">
        <ele>867</ele>
        <time>2009-05-30T11:07:43Z</time>
      </trkpt>
      <trkpt lat="45.42917" lon="5.66985">
        <ele>867</ele>
        <time>2009-05-30T11:07:44Z</time>
      </trkpt>
      <trkpt lat="45.42965" lon="5.67086">
        <ele>862</ele>
        <time>2009-05-30T11:07:58Z</time>
      </trkpt>
      <trkpt lat="45.43003" lon="5.67148">
        <ele>862</ele>
        <time>2009-05-30T11:08:10Z</time>
      </trkpt>
      <trkpt lat="45.43042" lon="5.67208">
        <ele>863</ele>
        <time>2009-05-30T11:08:24Z</time>
      </trkpt>
      <trkpt lat="45.43042" lon="5.67227">
        <ele>863</ele>
        <time>2009-05-30T11:08:28Z</time>
      </trkpt>
      <trkpt lat="45.43042" lon="5.67236">
        <ele>862</ele>
        <time>2009-05-30T11:08:30Z</time>
      </trkpt>
      <trkpt lat="45.43044" lon="5.67244">
        <ele>860</ele>
        <time>2009-05-30T11:08:33Z</time>
      </trkpt>
      <trkpt lat="45.43085" lon="5.67334">
        <ele>859</ele>
        <time>2009-05-30T11:08:58Z</time>
      </trkpt>
      <trkpt lat="45.43087" lon="5.67339">
        <ele>859</ele>
        <time>2009-05-30T11:08:59Z</time>
      </trkpt>
      <trkpt lat="45.43102" lon="5.67379">
        <ele>861</ele>
        <time>2009-05-30T11:09:10Z</time>
      </trkpt>
      <trkpt lat="45.4313" lon="5.67474">
        <ele>865</ele>
        <time>2009-05-30T11:09:35Z</time>
      </trkpt>
      <trkpt lat="45.43132" lon="5.67502">
        <ele>865</ele>
        <time>2009-05-30T11:09:43Z</time>
      </trkpt>
      <trkpt lat="45.43136" lon="5.67525">
        <ele>866</ele>
        <time>2009-05-30T11:09:51Z</time>
      </trkpt>
      <trkpt lat="45.43136" lon="5.67536">
        <ele>866</ele>
        <time>2009-05-30T11:09:55Z</time>
      </trkpt>
      <trkpt lat="45.43136" lon="5.67543">
        <ele>866</ele>
        <time>2009-05-30T11:09:57Z</time>
      </trkpt>
      <trkpt lat="45.43139" lon="5.67553">
        <ele>867</ele>
        <time>2009-05-30T11:10:00Z</time>
      </trkpt>
      <trkpt lat="45.43139" lon="5.67558">
        <ele>867</ele>
        <time>2009-05-30T11:10:01Z</time>
      </trkpt>
      <trkpt lat="45.43154" lon="5.67622">
        <ele>870</ele>
        <time>2009-05-30T11:10:19Z</time>
      </trkpt>
      <trkpt lat="45.43164" lon="5.6765">
        <ele>873</ele>
        <time>2009-05-30T11:10:30Z</time>
      </trkpt>
      <trkpt lat="45.43158" lon="5.67654">
        <ele>873</ele>
        <time>2009-05-30T11:10:37Z</time>
      </trkpt>
      <trkpt lat="45.43156" lon="5.67656">
        <ele>873</ele>
        <time>2009-05-30T11:10:38Z</time>
      </trkpt>
      <trkpt lat="45.43147" lon="5.67658">
        <ele>876</ele>
        <time>2009-05-30T11:10:42Z</time>
      </trkpt>
      <trkpt lat="45.43128" lon="5.67671">
        <ele>880</ele>
        <time>2009-05-30T11:10:57Z</time>
      </trkpt>
      <trkpt lat="45.43128" lon="5.67671">
        <ele>886</ele>
        <time>2009-05-30T11:11:18Z</time>
      </trkpt>
      <trkpt lat="45.43126" lon="5.67673">
        <ele>886</ele>
        <time>2009-05-30T11:11:20Z</time>
      </trkpt>
      <trkpt lat="45.43123" lon="5.67673">
        <ele>886</ele>
        <time>2009-05-30T11:11:23Z</time>
      </trkpt>
      <trkpt lat="45.43123" lon="5.67673">
        <ele>887</ele>
        <time>2009-05-30T11:11:25Z</time>
      </trkpt>
      <trkpt lat="45.43121" lon="5.67673">
        <ele>888</ele>
        <time>2009-05-30T11:11:29Z</time>
      </trkpt>
      <trkpt lat="45.43119" lon="5.67673">
        <ele>887</ele>
        <time>2009-05-30T11:11:33Z</time>
      </trkpt>
      <trkpt lat="45.43117" lon="5.67673">
        <ele>887</ele>
        <time>2009-05-30T11:11:36Z</time>
      </trkpt>
      <trkpt lat="45.43113" lon="5.67673">
        <ele>888</ele>
        <time>2009-05-30T11:11:40Z</time>
      </trkpt>
      <trkpt lat="45.43106" lon="5.67673">
        <ele>887</ele>
        <time>2009-05-30T11:11:54Z</time>
      </trkpt>
      <trkpt lat="45.43104" lon="5.67673">
        <ele>887</ele>
        <time>2009-05-30T11:11:56Z</time>
      </trkpt>
      <trkpt lat="45.43102" lon="5.67673">
        <ele>887</ele>
        <time>2009-05-30T11:11:59Z</time>
      </trkpt>
      <trkpt lat="45.431" lon="5.67671">
        <ele>886</ele>
        <time>2009-05-30T11:12:04Z</time>
      </trkpt>
      <trkpt lat="45.43098" lon="5.67671">
        <ele>886</ele>
        <time>2009-05-30T11:12:06Z</time>
      </trkpt>
      <trkpt lat="45.43096" lon="5.67671">
        <ele>888</ele>
        <time>2009-05-30T11:12:20Z</time>
      </trkpt>
      <trkpt lat="45.43093" lon="5.67671">
        <ele>890</ele>
        <time>2009-05-30T11:12:23Z</time>
      </trkpt>
      <trkpt lat="45.4307" lon="5.67663">
        <ele>891</ele>
        <time>2009-05-30T11:12:38Z</time>
      </trkpt>
      <trkpt lat="45.43044" lon="5.67656">
        <ele>892</ele>
        <time>2009-05-30T11:12:54Z</time>
      </trkpt>
      <trkpt lat="45.43038" lon="5.67658">
        <ele>892</ele>
        <time>2009-05-30T11:12:58Z</time>
      </trkpt>
      <trkpt lat="45.43036" lon="5.67661">
        <ele>893</ele>
        <time>2009-05-30T11:13:00Z</time>
      </trkpt>
      <trkpt lat="45.43029" lon="5.67663">
        <ele>893</ele>
        <time>2009-05-30T11:13:09Z</time>
      </trkpt>
      <trkpt lat="45.43027" lon="5.67665">
        <ele>895</ele>
        <time>2009-05-30T11:13:12Z</time>
      </trkpt>
      <trkpt lat="45.43025" lon="5.67665">
        <ele>896</ele>
        <time>2009-05-30T11:13:15Z</time>
      </trkpt>
      <trkpt lat="45.43023" lon="5.67667">
        <ele>897</ele>
        <time>2009-05-30T11:13:18Z</time>
      </trkpt>
      <trkpt lat="45.4302" lon="5.67667">
        <ele>898</ele>
        <time>2009-05-30T11:13:20Z</time>
      </trkpt>
      <trkpt lat="45.43014" lon="5.67667">
        <ele>900</ele>
        <time>2009-05-30T11:13:32Z</time>
      </trkpt>
      <trkpt lat="45.43014" lon="5.67667">
        <ele>900</ele>
        <time>2009-05-30T11:13:33Z</time>
      </trkpt>
      <trkpt lat="45.4301" lon="5.67669">
        <ele>900</ele>
        <time>2009-05-30T11:13:40Z</time>
      </trkpt>
      <trkpt lat="45.4301" lon="5.67669">
        <ele>901</ele>
        <time>2009-05-30T11:13:43Z</time>
      </trkpt>
      <trkpt lat="45.43008" lon="5.67669">
        <ele>901</ele>
        <time>2009-05-30T11:13:46Z</time>
      </trkpt>
      <trkpt lat="45.43008" lon="5.67669">
        <ele>901</ele>
        <time>2009-05-30T11:13:47Z</time>
      </trkpt>
      <trkpt lat="45.43003" lon="5.67671">
        <ele>903</ele>
        <time>2009-05-30T11:13:54Z</time>
      </trkpt>
      <trkpt lat="45.43003" lon="5.67671">
        <ele>903</ele>
        <time>2009-05-30T11:13:56Z</time>
      </trkpt>
      <trkpt lat="45.43001" lon="5.67673">
        <ele>904</ele>
        <time>2009-05-30T11:13:59Z</time>
      </trkpt>
      <trkpt lat="45.43001" lon="5.67673">
        <ele>904</ele>
        <time>2009-05-30T11:14:02Z</time>
      </trkpt>
      <trkpt lat="45.42999" lon="5.67676">
        <ele>904</ele>
        <time>2009-05-30T11:14:07Z</time>
      </trkpt>
      <trkpt lat="45.42999" lon="5.67673">
        <ele>904</ele>
        <time>2009-05-30T11:14:16Z</time>
      </trkpt>
      <trkpt lat="45.42993" lon="5.67676">
        <ele>905</ele>
        <time>2009-05-30T11:14:22Z</time>
      </trkpt>
      <trkpt lat="45.42986" lon="5.67678">
        <ele>906</ele>
        <time>2009-05-30T11:14:26Z</time>
      </trkpt>
      <trkpt lat="45.42982" lon="5.67678">
        <ele>909</ele>
        <time>2009-05-30T11:14:30Z</time>
      </trkpt>
      <trkpt lat="45.4298" lon="5.67678">
        <ele>909</ele>
        <time>2009-05-30T11:14:31Z</time>
      </trkpt>
      <trkpt lat="45.42975" lon="5.6768">
        <ele>910</ele>
        <time>2009-05-30T11:14:34Z</time>
      </trkpt>
      <trkpt lat="45.42971" lon="5.67682">
        <ele>911</ele>
        <time>2009-05-30T11:14:39Z</time>
      </trkpt>
      <trkpt lat="45.42965" lon="5.67686">
        <ele>913</ele>
        <time>2009-05-30T11:14:43Z</time>
      </trkpt>
      <trkpt lat="45.42963" lon="5.67686">
        <ele>913</ele>
        <time>2009-05-30T11:14:46Z</time>
      </trkpt>
      <trkpt lat="45.42952" lon="5.67686">
        <ele>915</ele>
        <time>2009-05-30T11:14:55Z</time>
      </trkpt>
      <trkpt lat="45.4295" lon="5.67684">
        <ele>915</ele>
        <time>2009-05-30T11:14:57Z</time>
      </trkpt>
      <trkpt lat="45.42948" lon="5.67684">
        <ele>916</ele>
        <time>2009-05-30T11:15:00Z</time>
      </trkpt>
      <trkpt lat="45.42924" lon="5.67682">
        <ele>916</ele>
        <time>2009-05-30T11:15:15Z</time>
      </trkpt>
      <trkpt lat="45.42881" lon="5.67678">
        <ele>916</ele>
        <time>2009-05-30T11:15:44Z</time>
      </trkpt>
      <trkpt lat="45.42864" lon="5.6768">
        <ele>917</ele>
        <time>2009-05-30T11:15:56Z</time>
      </trkpt>
      <trkpt lat="45.42836" lon="5.67665">
        <ele>919</ele>
        <time>2009-05-30T11:16:14Z</time>
      </trkpt>
      <trkpt lat="45.42812" lon="5.67658">
        <ele>918</ele>
        <time>2009-05-30T11:16:17Z</time>
      </trkpt>
      <trkpt lat="45.42782" lon="5.6765">
        <ele>917</ele>
        <time>2009-05-30T11:16:21Z</time>
      </trkpt>
      <trkpt lat="45.42774" lon="5.6765">
        <ele>916</ele>
        <time>2009-05-30T11:16:22Z</time>
      </trkpt>
      <trkpt lat="45.42647" lon="5.67686">
        <ele>915</ele>
        <time>2009-05-30T11:16:41Z</time>
      </trkpt>
      <trkpt lat="45.42536" lon="5.67697">
        <ele>915</ele>
        <time>2009-05-30T11:17:01Z</time>
      </trkpt>
      <trkpt lat="45.42499" lon="5.6765">
        <ele>915</ele>
        <time>2009-05-30T11:17:08Z</time>
      </trkpt>
      <trkpt lat="45.42561" lon="5.67603">
        <ele>911</ele>
        <time>2009-05-30T11:17:11Z</time>
      </trkpt>
      <trkpt lat="45.42581" lon="5.67592">
        <ele>911</ele>
        <time>2009-05-30T11:17:12Z</time>
      </trkpt>
      <trkpt lat="45.42583" lon="5.67579">
        <ele>911</ele>
        <time>2009-05-30T11:17:14Z</time>
      </trkpt>
      <trkpt lat="45.42563" lon="5.67549">
        <ele>906</ele>
        <time>2009-05-30T11:17:22Z</time>
      </trkpt>
      <trkpt lat="45.42555" lon="5.6753">
        <ele>905</ele>
        <time>2009-05-30T11:17:25Z</time>
      </trkpt>
      <trkpt lat="45.4254" lon="5.67485">
        <ele>903</ele>
        <time>2009-05-30T11:17:30Z</time>
      </trkpt>
      <trkpt lat="45.42542" lon="5.6745">
        <ele>900</ele>
        <time>2009-05-30T11:17:33Z</time>
      </trkpt>
      <trkpt lat="45.42544" lon="5.67414">
        <ele>897</ele>
        <time>2009-05-30T11:17:36Z</time>
      </trkpt>
      <trkpt lat="45.42544" lon="5.67354">
        <ele>893</ele>
        <time>2009-05-30T11:17:42Z</time>
      </trkpt>
      <trkpt lat="45.42546" lon="5.67347">
        <ele>893</ele>
        <time>2009-05-30T11:17:43Z</time>
      </trkpt>
      <trkpt lat="45.42585" lon="5.67298">
        <ele>889</ele>
        <time>2009-05-30T11:17:51Z</time>
      </trkpt>
      <trkpt lat="45.42619" lon="5.67266">
        <ele>886</ele>
        <time>2009-05-30T11:17:56Z</time>
      </trkpt>
      <trkpt lat="45.42662" lon="5.67206">
        <ele>880</ele>
        <time>2009-05-30T11:18:03Z</time>
      </trkpt>
      <trkpt lat="45.42662" lon="5.67158">
        <ele>874</ele>
        <time>2009-05-30T11:18:09Z</time>
      </trkpt>
      <trkpt lat="45.42649" lon="5.67156">
        <ele>873</ele>
        <time>2009-05-30T11:18:11Z</time>
      </trkpt>
      <trkpt lat="45.42645" lon="5.67152">
        <ele>871</ele>
        <time>2009-05-30T11:18:12Z</time>
      </trkpt>
      <trkpt lat="45.42651" lon="5.67122">
        <ele>866</ele>
        <time>2009-05-30T11:18:16Z</time>
      </trkpt>
      <trkpt lat="45.42666" lon="5.67043">
        <ele>856</ele>
        <time>2009-05-30T11:18:22Z</time>
      </trkpt>
      <trkpt lat="45.42664" lon="5.66959">
        <ele>847</ele>
        <time>2009-05-30T11:18:27Z</time>
      </trkpt>
      <trkpt lat="45.42649" lon="5.66907">
        <ele>842</ele>
        <time>2009-05-30T11:18:30Z</time>
      </trkpt>
      <trkpt lat="45.42641" lon="5.66873">
        <ele>839</ele>
        <time>2009-05-30T11:18:32Z</time>
      </trkpt>
      <trkpt lat="45.42619" lon="5.66807">
        <ele>843</ele>
        <time>2009-05-30T11:18:38Z</time>
      </trkpt>
      <trkpt lat="45.42606" lon="5.66755">
        <ele>845</ele>
        <time>2009-05-30T11:18:48Z</time>
      </trkpt>
      <trkpt lat="45.42604" lon="5.66746">
        <ele>845</ele>
        <time>2009-05-30T11:18:50Z</time>
      </trkpt>
      <trkpt lat="45.42593" lon="5.66721">
        <ele>846</ele>
        <time>2009-05-30T11:18:57Z</time>
      </trkpt>
      <trkpt lat="45.42591" lon="5.66712">
        <ele>847</ele>
        <time>2009-05-30T11:19:00Z</time>
      </trkpt>
      <trkpt lat="45.42568" lon="5.66643">
        <ele>844</ele>
        <time>2009-05-30T11:19:14Z</time>
      </trkpt>
      <trkpt lat="45.42563" lon="5.66631">
        <ele>845</ele>
        <time>2009-05-30T11:19:17Z</time>
      </trkpt>
      <trkpt lat="45.42548" lon="5.66607">
        <ele>844</ele>
        <time>2009-05-30T11:19:24Z</time>
      </trkpt>
      <trkpt lat="45.42503" lon="5.66558">
        <ele>841</ele>
        <time>2009-05-30T11:19:39Z</time>
      </trkpt>
      <trkpt lat="45.42486" lon="5.66536">
        <ele>841</ele>
        <time>2009-05-30T11:19:43Z</time>
      </trkpt>
      <trkpt lat="45.42452" lon="5.665">
        <ele>844</ele>
        <time>2009-05-30T11:19:54Z</time>
      </trkpt>
      <trkpt lat="45.42426" lon="5.66476">
        <ele>845</ele>
        <time>2009-05-30T11:20:03Z</time>
      </trkpt>
      <trkpt lat="45.42418" lon="5.66476">
        <ele>845</ele>
        <time>2009-05-30T11:20:06Z</time>
      </trkpt>
      <trkpt lat="45.42407" lon="5.66478">
        <ele>843</ele>
        <time>2009-05-30T11:20:10Z</time>
      </trkpt>
      <trkpt lat="45.42396" lon="5.66478">
        <ele>842</ele>
        <time>2009-05-30T11:20:13Z</time>
      </trkpt>
      <trkpt lat="45.42321" lon="5.66465">
        <ele>836</ele>
        <time>2009-05-30T11:20:24Z</time>
      </trkpt>
      <trkpt lat="45.42246" lon="5.66461">
        <ele>835</ele>
        <time>2009-05-30T11:20:37Z</time>
      </trkpt>
      <trkpt lat="45.42166" lon="5.6647">
        <ele>838</ele>
        <time>2009-05-30T11:20:57Z</time>
      </trkpt>
      <trkpt lat="45.42134" lon="5.66463">
        <ele>839</ele>
        <time>2009-05-30T11:21:07Z</time>
      </trkpt>
      <trkpt lat="45.42126" lon="5.66457">
        <ele>839</ele>
        <time>2009-05-30T11:21:10Z</time>
      </trkpt>
      <trkpt lat="45.42117" lon="5.66446">
        <ele>839</ele>
        <time>2009-05-30T11:21:14Z</time>
      </trkpt>
      <trkpt lat="45.42091" lon="5.66418">
        <ele>837</ele>
        <time>2009-05-30T11:21:23Z</time>
      </trkpt>
      <trkpt lat="45.42076" lon="5.66412">
        <ele>836</ele>
        <time>2009-05-30T11:21:26Z</time>
      </trkpt>
      <trkpt lat="45.4207" lon="5.66412">
        <ele>836</ele>
        <time>2009-05-30T11:21:27Z</time>
      </trkpt>
      <trkpt lat="45.4204" lon="5.66407">
        <ele>832</ele>
        <time>2009-05-30T11:21:31Z</time>
      </trkpt>
      <trkpt lat="45.42023" lon="5.66399">
        <ele>829</ele>
        <time>2009-05-30T11:21:33Z</time>
      </trkpt>
      <trkpt lat="45.41993" lon="5.66362">
        <ele>823</ele>
        <time>2009-05-30T11:21:37Z</time>
      </trkpt>
      <trkpt lat="45.41984" lon="5.66354">
        <ele>822</ele>
        <time>2009-05-30T11:21:38Z</time>
      </trkpt>
      <trkpt lat="45.41941" lon="5.66352">
        <ele>816</ele>
        <time>2009-05-30T11:21:43Z</time>
      </trkpt>
      <trkpt lat="45.41905" lon="5.66384">
        <ele>813</ele>
        <time>2009-05-30T11:21:49Z</time>
      </trkpt>
      <trkpt lat="45.419" lon="5.6638">
        <ele>812</ele>
        <time>2009-05-30T11:21:50Z</time>
      </trkpt>
      <trkpt lat="45.41847" lon="5.66332">
        <ele>805</ele>
        <time>2009-05-30T11:21:58Z</time>
      </trkpt>
      <trkpt lat="45.41782" lon="5.66289">
        <ele>799</ele>
        <time>2009-05-30T11:22:04Z</time>
      </trkpt>
      <trkpt lat="45.41714" lon="5.66298">
        <ele>793</ele>
        <time>2009-05-30T11:22:10Z</time>
      </trkpt>
      <trkpt lat="45.41703" lon="5.66304">
        <ele>793</ele>
        <time>2009-05-30T11:22:11Z</time>
      </trkpt>
      <trkpt lat="45.41684" lon="5.66315">
        <ele>793</ele>
        <time>2009-05-30T11:22:13Z</time>
      </trkpt>
      <trkpt lat="45.41632" lon="5.66302">
        <ele>793</ele>
        <time>2009-05-30T11:22:19Z</time>
      </trkpt>
      <trkpt lat="45.41521" lon="5.6624">
        <ele>791</ele>
        <time>2009-05-30T11:22:32Z</time>
      </trkpt>
      <trkpt lat="45.41503" lon="5.66242">
        <ele>790</ele>
        <time>2009-05-30T11:22:34Z</time>
      </trkpt>
      <trkpt lat="45.41476" lon="5.66221">
        <ele>788</ele>
        <time>2009-05-30T11:22:39Z</time>
      </trkpt>
      <trkpt lat="45.41456" lon="5.66195">
        <ele>787</ele>
        <time>2009-05-30T11:22:43Z</time>
      </trkpt>
      <trkpt lat="45.41452" lon="5.66186">
        <ele>787</ele>
        <time>2009-05-30T11:22:44Z</time>
      </trkpt>
      <trkpt lat="45.41443" lon="5.66118">
        <ele>782</ele>
        <time>2009-05-30T11:22:50Z</time>
      </trkpt>
      <trkpt lat="45.41443" lon="5.66105">
        <ele>781</ele>
        <time>2009-05-30T11:22:51Z</time>
      </trkpt>
      <trkpt lat="45.4145" lon="5.66077">
        <ele>779</ele>
        <time>2009-05-30T11:22:53Z</time>
      </trkpt>
      <trkpt lat="45.41465" lon="5.6603">
        <ele>777</ele>
        <time>2009-05-30T11:22:57Z</time>
      </trkpt>
      <trkpt lat="45.41478" lon="5.65955">
        <ele>778</ele>
        <time>2009-05-30T11:23:06Z</time>
      </trkpt>
      <trkpt lat="45.41491" lon="5.65884">
        <ele>775</ele>
        <time>2009-05-30T11:23:16Z</time>
      </trkpt>
      <trkpt lat="45.4151" lon="5.65822">
        <ele>771</ele>
        <time>2009-05-30T11:23:23Z</time>
      </trkpt>
      <trkpt lat="45.41493" lon="5.65815">
        <ele>769</ele>
        <time>2009-05-30T11:23:28Z</time>
      </trkpt>
      <trkpt lat="45.41471" lon="5.65828">
        <ele>767</ele>
        <time>2009-05-30T11:23:32Z</time>
      </trkpt>
      <trkpt lat="45.41437" lon="5.6586">
        <ele>765</ele>
        <time>2009-05-30T11:23:38Z</time>
      </trkpt>
      <trkpt lat="45.41415" lon="5.66">
        <ele>764</ele>
        <time>2009-05-30T11:23:49Z</time>
      </trkpt>
      <trkpt lat="45.41321" lon="5.66051">
        <ele>762</ele>
        <time>2009-05-30T11:24:00Z</time>
      </trkpt>
      <trkpt lat="45.41297" lon="5.66053">
        <ele>759</ele>
        <time>2009-05-30T11:24:04Z</time>
      </trkpt>
      <trkpt lat="45.41291" lon="5.66053">
        <ele>757</ele>
        <time>2009-05-30T11:24:06Z</time>
      </trkpt>
      <trkpt lat="45.4124" lon="5.66077">
        <ele>746</ele>
        <time>2009-05-30T11:24:17Z</time>
      </trkpt>
      <trkpt lat="45.41233" lon="5.66079">
        <ele>745</ele>
        <time>2009-05-30T11:24:18Z</time>
      </trkpt>
      <trkpt lat="45.4122" lon="5.66094">
        <ele>741</ele>
        <time>2009-05-30T11:24:21Z</time>
      </trkpt>
      <trkpt lat="45.41209" lon="5.66113">
        <ele>737</ele>
        <time>2009-05-30T11:24:24Z</time>
      </trkpt>
      <trkpt lat="45.41201" lon="5.66137">
        <ele>733</ele>
        <time>2009-05-30T11:24:27Z</time>
      </trkpt>
      <trkpt lat="45.4119" lon="5.6618">
        <ele>728</ele>
        <time>2009-05-30T11:24:32Z</time>
      </trkpt>
      <trkpt lat="45.41182" lon="5.66234">
        <ele>725</ele>
        <time>2009-05-30T11:24:38Z</time>
      </trkpt>
      <trkpt lat="45.41162" lon="5.66257">
        <ele>722</ele>
        <time>2009-05-30T11:24:43Z</time>
      </trkpt>
      <trkpt lat="45.41126" lon="5.66289">
        <ele>717</ele>
        <time>2009-05-30T11:24:50Z</time>
      </trkpt>
      <trkpt lat="45.41113" lon="5.66294">
        <ele>716</ele>
        <time>2009-05-30T11:24:52Z</time>
      </trkpt>
      <trkpt lat="45.41091" lon="5.66294">
        <ele>715</ele>
        <time>2009-05-30T11:24:55Z</time>
      </trkpt>
      <trkpt lat="45.41016" lon="5.66268">
        <ele>713</ele>
        <time>2009-05-30T11:25:08Z</time>
      </trkpt>
      <trkpt lat="45.40995" lon="5.66253">
        <ele>711</ele>
        <time>2009-05-30T11:25:13Z</time>
      </trkpt>
      <trkpt lat="45.40986" lon="5.66262">
        <ele>710</ele>
        <time>2009-05-30T11:25:16Z</time>
      </trkpt>
      <trkpt lat="45.40965" lon="5.66277">
        <ele>709</ele>
        <time>2009-05-30T11:25:20Z</time>
      </trkpt>
      <trkpt lat="45.40907" lon="5.66307">
        <ele>709</ele>
        <time>2009-05-30T11:25:31Z</time>
      </trkpt>
      <trkpt lat="45.4089" lon="5.66311">
        <ele>709</ele>
        <time>2009-05-30T11:25:34Z</time>
      </trkpt>
      <trkpt lat="45.4087" lon="5.66311">
        <ele>709</ele>
        <time>2009-05-30T11:25:37Z</time>
      </trkpt>
      <trkpt lat="45.40838" lon="5.66292">
        <ele>708</ele>
        <time>2009-05-30T11:25:41Z</time>
      </trkpt>
      <trkpt lat="45.40825" lon="5.66283">
        <ele>706</ele>
        <time>2009-05-30T11:25:43Z</time>
      </trkpt>
      <trkpt lat="45.40714" lon="5.66236">
        <ele>695</ele>
        <time>2009-05-30T11:26:00Z</time>
      </trkpt>
      <trkpt lat="45.40549" lon="5.66139">
        <ele>693</ele>
        <time>2009-05-30T11:26:26Z</time>
      </trkpt>
      <trkpt lat="45.40413" lon="5.66068">
        <ele>682</ele>
        <time>2009-05-30T11:26:46Z</time>
      </trkpt>
      <trkpt lat="45.40278" lon="5.65989">
        <ele>674</ele>
        <time>2009-05-30T11:27:06Z</time>
      </trkpt>
      <trkpt lat="45.40205" lon="5.65957">
        <ele>652</ele>
        <time>2009-05-30T11:27:17Z</time>
      </trkpt>
      <trkpt lat="45.4019" lon="5.65953">
        <ele>591</ele>
        <time>2009-05-30T11:27:20Z</time>
      </trkpt>
      <trkpt lat="45.40167" lon="5.65944">
        <ele>600</ele>
        <time>2009-05-30T11:27:26Z</time>
      </trkpt>
      <trkpt lat="45.40164" lon="5.6595">
        <ele>599</ele>
        <time>2009-05-30T11:27:29Z</time>
      </trkpt>
      <trkpt lat="45.40173" lon="5.65965">
        <ele>598</ele>
        <time>2009-05-30T11:27:32Z</time>
      </trkpt>
      <trkpt lat="45.40188" lon="5.65995">
        <ele>594</ele>
        <time>2009-05-30T11:27:37Z</time>
      </trkpt>
      <trkpt lat="45.40235" lon="5.66056">
        <ele>589</ele>
        <time>2009-05-30T11:27:57Z</time>
      </trkpt>
      <trkpt lat="45.40246" lon="5.66073">
        <ele>588</ele>
        <time>2009-05-30T11:28:01Z</time>
      </trkpt>
      <trkpt lat="45.40308" lon="5.66156">
        <ele>588</ele>
        <time>2009-05-30T11:28:22Z</time>
      </trkpt>
      <trkpt lat="45.4033" lon="5.66199">
        <ele>585</ele>
        <time>2009-05-30T11:28:31Z</time>
      </trkpt>
      <trkpt lat="45.4037" lon="5.66332">
        <ele>577</ele>
        <time>2009-05-30T11:28:51Z</time>
      </trkpt>
      <trkpt lat="45.40377" lon="5.66352">
        <ele>577</ele>
        <time>2009-05-30T11:28:54Z</time>
      </trkpt>
      <trkpt lat="45.40349" lon="5.66431">
        <ele>566</ele>
        <time>2009-05-30T11:29:04Z</time>
      </trkpt>
      <trkpt lat="45.40289" lon="5.66579">
        <ele>550</ele>
        <time>2009-05-30T11:29:17Z</time>
      </trkpt>
      <trkpt lat="45.40278" lon="5.66609">
        <ele>542</ele>
        <time>2009-05-30T11:29:20Z</time>
      </trkpt>
      <trkpt lat="45.40263" lon="5.66671">
        <ele>476</ele>
        <time>2009-05-30T11:29:27Z</time>
      </trkpt>
      <trkpt lat="45.40276" lon="5.66691">
        <ele>475</ele>
        <time>2009-05-30T11:29:32Z</time>
      </trkpt>
      <trkpt lat="45.40285" lon="5.66699">
        <ele>474</ele>
        <time>2009-05-30T11:29:35Z</time>
      </trkpt>
      <trkpt lat="45.40295" lon="5.66706">
        <ele>474</ele>
        <time>2009-05-30T11:29:38Z</time>
      </trkpt>
      <trkpt lat="45.40334" lon="5.66721">
        <ele>474</ele>
        <time>2009-05-30T11:29:46Z</time>
      </trkpt>
      <trkpt lat="45.40351" lon="5.66731">
        <ele>474</ele>
        <time>2009-05-30T11:29:50Z</time>
      </trkpt>
      <trkpt lat="45.40355" lon="5.66781">
        <ele>474</ele>
        <time>2009-05-30T11:29:57Z</time>
      </trkpt>
      <trkpt lat="45.40323" lon="5.66895">
        <ele>473</ele>
        <time>2009-05-30T11:30:13Z</time>
      </trkpt>
      <trkpt lat="45.40313" lon="5.66946">
        <ele>474</ele>
        <time>2009-05-30T11:30:22Z</time>
      </trkpt>
      <trkpt lat="45.4031" lon="5.67038">
        <ele>475</ele>
        <time>2009-05-30T11:30:39Z</time>
      </trkpt>
      <trkpt lat="45.4031" lon="5.67049">
        <ele>475</ele>
        <time>2009-05-30T11:30:41Z</time>
      </trkpt>
      <trkpt lat="45.40308" lon="5.67083">
        <ele>476</ele>
        <time>2009-05-30T11:30:48Z</time>
      </trkpt>
      <trkpt lat="45.4028" lon="5.67107">
        <ele>476</ele>
        <time>2009-05-30T11:30:57Z</time>
      </trkpt>
      <trkpt lat="45.4027" lon="5.67111">
        <ele>475</ele>
        <time>2009-05-30T11:31:00Z</time>
      </trkpt>
      <trkpt lat="45.40244" lon="5.67116">
        <ele>474</ele>
        <time>2009-05-30T11:31:06Z</time>
      </trkpt>
      <trkpt lat="45.40227" lon="5.67113">
        <ele>473</ele>
        <time>2009-05-30T11:31:10Z</time>
      </trkpt>
      <trkpt lat="45.40137" lon="5.67094">
        <ele>468</ele>
        <time>2009-05-30T11:31:28Z</time>
      </trkpt>
      <trkpt lat="45.40044" lon="5.67058">
        <ele>465</ele>
        <time>2009-05-30T11:31:45Z</time>
      </trkpt>
      <trkpt lat="45.4004" lon="5.67055">
        <ele>465</ele>
        <time>2009-05-30T11:31:46Z</time>
      </trkpt>
      <trkpt lat="45.39948" lon="5.67064">
        <ele>461</ele>
        <time>2009-05-30T11:32:02Z</time>
      </trkpt>
      <trkpt lat="45.39907" lon="5.6707">
        <ele>461</ele>
        <time>2009-05-30T11:32:09Z</time>
      </trkpt>
      <trkpt lat="45.39866" lon="5.67079">
        <ele>460</ele>
        <time>2009-05-30T11:32:17Z</time>
      </trkpt>
      <trkpt lat="45.39847" lon="5.67079">
        <ele>460</ele>
        <time>2009-05-30T11:32:21Z</time>
      </trkpt>
      <trkpt lat="45.39843" lon="5.67083">
        <ele>461</ele>
        <time>2009-05-30T11:32:22Z</time>
      </trkpt>
      <trkpt lat="45.39838" lon="5.67103">
        <ele>462</ele>
        <time>2009-05-30T11:32:25Z</time>
      </trkpt>
      <trkpt lat="45.39836" lon="5.67116">
        <ele>462</ele>
        <time>2009-05-30T11:32:27Z</time>
      </trkpt>
      <trkpt lat="45.39819" lon="5.67139">
        <ele>463</ele>
        <time>2009-05-30T11:32:33Z</time>
      </trkpt>
      <trkpt lat="45.39798" lon="5.67165">
        <ele>463</ele>
        <time>2009-05-30T11:32:40Z</time>
      </trkpt>
      <trkpt lat="45.39759" lon="5.67206">
        <ele>466</ele>
        <time>2009-05-30T11:32:53Z</time>
      </trkpt>
      <trkpt lat="45.39748" lon="5.6721">
        <ele>467</ele>
        <time>2009-05-30T11:32:56Z</time>
      </trkpt>
      <trkpt lat="45.39733" lon="5.6721">
        <ele>469</ele>
        <time>2009-05-30T11:33:00Z</time>
      </trkpt>
      <trkpt lat="45.39671" lon="5.67197">
        <ele>468</ele>
        <time>2009-05-30T11:33:19Z</time>
      </trkpt>
      <trkpt lat="45.3966" lon="5.67193">
        <ele>468</ele>
        <time>2009-05-30T11:33:22Z</time>
      </trkpt>
      <trkpt lat="45.39585" lon="5.67139">
        <ele>466</ele>
        <time>2009-05-30T11:33:42Z</time>
      </trkpt>
      <trkpt lat="45.39546" lon="5.67098">
        <ele>464</ele>
        <time>2009-05-30T11:33:49Z</time>
      </trkpt>
      <trkpt lat="45.39456" lon="5.66974">
        <ele>463</ele>
        <time>2009-05-30T11:34:01Z</time>
      </trkpt>
      <trkpt lat="45.39341" lon="5.66852">
        <ele>461</ele>
        <time>2009-05-30T11:34:18Z</time>
      </trkpt>
      <trkpt lat="45.39268" lon="5.66804">
        <ele>459</ele>
        <time>2009-05-30T11:34:33Z</time>
      </trkpt>
      <trkpt lat="45.39205" lon="5.66738">
        <ele>460</ele>
        <time>2009-05-30T11:34:54Z</time>
      </trkpt>
      <trkpt lat="45.39205" lon="5.6674">
        <ele>460</ele>
        <time>2009-05-30T11:34:55Z</time>
      </trkpt>
      <trkpt lat="45.39201" lon="5.66742">
        <ele>460</ele>
        <time>2009-05-30T11:34:59Z</time>
      </trkpt>
      <trkpt lat="45.39197" lon="5.66742">
        <ele>461</ele>
        <time>2009-05-30T11:35:01Z</time>
      </trkpt>
      <trkpt lat="45.39192" lon="5.66742">
        <ele>463</ele>
        <time>2009-05-30T11:35:05Z</time>
      </trkpt>
      <trkpt lat="45.39184" lon="5.66742">
        <ele>465</ele>
        <time>2009-05-30T11:35:11Z</time>
      </trkpt>
      <trkpt lat="45.39169" lon="5.66736">
        <ele>466</ele>
        <time>2009-05-30T11:35:19Z</time>
      </trkpt>
      <trkpt lat="45.39137" lon="5.66712">
        <ele>464</ele>
        <time>2009-05-30T11:35:35Z</time>
      </trkpt>
      <trkpt lat="45.3913" lon="5.66708">
        <ele>464</ele>
        <time>2009-05-30T11:35:38Z</time>
      </trkpt>
      <trkpt lat="45.39111" lon="5.66701">
        <ele>464</ele>
        <time>2009-05-30T11:35:47Z</time>
      </trkpt>
      <trkpt lat="45.39104" lon="5.66697">
        <ele>463</ele>
        <time>2009-05-30T11:35:50Z</time>
      </trkpt>
      <trkpt lat="45.39092" lon="5.66691">
        <ele>463</ele>
        <time>2009-05-30T11:35:58Z</time>
      </trkpt>
      <trkpt lat="45.39087" lon="5.66684">
        <ele>464</ele>
        <time>2009-05-30T11:36:03Z</time>
      </trkpt>
      <trkpt lat="45.39085" lon="5.66682">
        <ele>464</ele>
        <time>2009-05-30T11:36:05Z</time>
      </trkpt>
      <trkpt lat="45.39068" lon="5.66671">
        <ele>465</ele>
        <time>2009-05-30T11:36:15Z</time>
      </trkpt>
      <trkpt lat="45.39064" lon="5.66667">
        <ele>465</ele>
        <time>2009-05-30T11:36:19Z</time>
      </trkpt>
      <trkpt lat="45.39029" lon="5.66652">
        <ele>465</ele>
        <time>2009-05-30T11:36:40Z</time>
      </trkpt>
      <trkpt lat="45.39023" lon="5.66652">
        <ele>464</ele>
        <time>2009-05-30T11:36:44Z</time>
      </trkpt>
      <trkpt lat="45.39019" lon="5.6665">
        <ele>463</ele>
        <time>2009-05-30T11:36:47Z</time>
      </trkpt>
      <trkpt lat="45.38991" lon="5.66624">
        <ele>463</ele>
        <time>2009-05-30T11:37:01Z</time>
      </trkpt>
      <trkpt lat="45.38969" lon="5.66611">
        <ele>461</ele>
        <time>2009-05-30T11:37:09Z</time>
      </trkpt>
      <trkpt lat="45.38946" lon="5.66601">
        <ele>461</ele>
        <time>2009-05-30T11:37:20Z</time>
      </trkpt>
      <trkpt lat="45.38931" lon="5.66601">
        <ele>463</ele>
        <time>2009-05-30T11:37:27Z</time>
      </trkpt>
      <trkpt lat="45.38905" lon="5.66583">
        <ele>463</ele>
        <time>2009-05-30T11:37:40Z</time>
      </trkpt>
      <trkpt lat="45.3886" lon="5.6653">
        <ele>462</ele>
        <time>2009-05-30T11:37:55Z</time>
      </trkpt>
      <trkpt lat="45.38834" lon="5.6651">
        <ele>459</ele>
        <time>2009-05-30T11:38:03Z</time>
      </trkpt>
      <trkpt lat="45.38826" lon="5.66508">
        <ele>460</ele>
        <time>2009-05-30T11:38:07Z</time>
      </trkpt>
      <trkpt lat="45.38787" lon="5.66491">
        <ele>460</ele>
        <time>2009-05-30T11:38:25Z</time>
      </trkpt>
      <trkpt lat="45.38776" lon="5.66489">
        <ele>461</ele>
        <time>2009-05-30T11:38:32Z</time>
      </trkpt>
      <trkpt lat="45.38776" lon="5.66489">
        <ele>461</ele>
        <time>2009-05-30T11:38:35Z</time>
      </trkpt>
      <trkpt lat="45.38774" lon="5.66489">
        <ele>461</ele>
        <time>2009-05-30T11:38:38Z</time>
      </trkpt>
      <trkpt lat="45.3877" lon="5.66491">
        <ele>461</ele>
        <time>2009-05-30T11:38:44Z</time>
      </trkpt>
      <trkpt lat="45.38761" lon="5.66491">
        <ele>461</ele>
        <time>2009-05-30T11:38:47Z</time>
      </trkpt>
      <trkpt lat="45.38753" lon="5.66491">
        <ele>461</ele>
        <time>2009-05-30T11:38:51Z</time>
      </trkpt>
      <trkpt lat="45.38744" lon="5.66491">
        <ele>460</ele>
        <time>2009-05-30T11:38:55Z</time>
      </trkpt>
      <trkpt lat="45.38733" lon="5.66485">
        <ele>461</ele>
        <time>2009-05-30T11:39:00Z</time>
      </trkpt>
      <trkpt lat="45.38729" lon="5.6648">
        <ele>461</ele>
        <time>2009-05-30T11:39:02Z</time>
      </trkpt>
      <trkpt lat="45.3872" lon="5.66483">
        <ele>463</ele>
        <time>2009-05-30T11:39:06Z</time>
      </trkpt>
      <trkpt lat="45.38677" lon="5.66498">
        <ele>466</ele>
        <time>2009-05-30T11:39:25Z</time>
      </trkpt>
      <trkpt lat="45.38628" lon="5.66468">
        <ele>468</ele>
        <time>2009-05-30T11:39:48Z</time>
      </trkpt>
      <trkpt lat="45.38626" lon="5.66465">
        <ele>469</ele>
        <time>2009-05-30T11:39:49Z</time>
      </trkpt>
      <trkpt lat="45.38611" lon="5.66455">
        <ele>472</ele>
        <time>2009-05-30T11:39:59Z</time>
      </trkpt>
      <trkpt lat="45.38594" lon="5.66442">
        <ele>474</ele>
        <time>2009-05-30T11:40:08Z</time>
      </trkpt>
      <trkpt lat="45.38592" lon="5.6644">
        <ele>475</ele>
        <time>2009-05-30T11:40:09Z</time>
      </trkpt>
      <trkpt lat="45.38589" lon="5.6644">
        <ele>476</ele>
        <time>2009-05-30T11:40:11Z</time>
      </trkpt>
      <trkpt lat="45.38581" lon="5.66437">
        <ele>477</ele>
        <time>2009-05-30T11:40:14Z</time>
      </trkpt>
      <trkpt lat="45.38579" lon="5.6644">
        <ele>477</ele>
        <time>2009-05-30T11:40:15Z</time>
      </trkpt>
      <trkpt lat="45.38559" lon="5.66429">
        <ele>478</ele>
        <time>2009-05-30T11:40:26Z</time>
      </trkpt>
      <trkpt lat="45.38557" lon="5.66427">
        <ele>478</ele>
        <time>2009-05-30T11:40:27Z</time>
      </trkpt>
      <trkpt lat="45.38517" lon="5.66399">
        <ele>477</ele>
        <time>2009-05-30T11:40:44Z</time>
      </trkpt>
      <trkpt lat="45.38471" lon="5.6635">
        <ele>475</ele>
        <time>2009-05-30T11:41:00Z</time>
      </trkpt>
      <trkpt lat="45.38469" lon="5.66345">
        <ele>475</ele>
        <time>2009-05-30T11:41:01Z</time>
      </trkpt>
      <trkpt lat="45.38471" lon="5.66332">
        <ele>475</ele>
        <time>2009-05-30T11:41:04Z</time>
      </trkpt>
      <trkpt lat="45.38478" lon="5.66322">
        <ele>473</ele>
        <time>2009-05-30T11:41:06Z</time>
      </trkpt>
      <trkpt lat="45.38491" lon="5.66307">
        <ele>469</ele>
        <time>2009-05-30T11:41:09Z</time>
      </trkpt>
      <trkpt lat="45.38538" lon="5.6624">
        <ele>465</ele>
        <time>2009-05-30T11:41:18Z</time>
      </trkpt>
      <trkpt lat="45.38551" lon="5.66216">
        <ele>465</ele>
        <time>2009-05-30T11:41:21Z</time>
      </trkpt>
      <trkpt lat="45.38553" lon="5.6618">
        <ele>464</ele>
        <time>2009-05-30T11:41:24Z</time>
      </trkpt>
      <trkpt lat="45.38559" lon="5.66146">
        <ele>463</ele>
        <time>2009-05-30T11:41:27Z</time>
      </trkpt>
      <trkpt lat="45.38562" lon="5.66124">
        <ele>463</ele>
        <time>2009-05-30T11:41:29Z</time>
      </trkpt>
      <trkpt lat="45.38572" lon="5.66098">
        <ele>461</ele>
        <time>2009-05-30T11:41:33Z</time>
      </trkpt>
      <trkpt lat="45.38574" lon="5.66088">
        <ele>460</ele>
        <time>2009-05-30T11:41:37Z</time>
      </trkpt>
      <trkpt lat="45.38574" lon="5.66088">
        <ele>460</ele>
        <time>2009-05-30T11:41:39Z</time>
      </trkpt>
      <trkpt lat="45.38574" lon="5.66088">
        <ele>460</ele>
        <time>2009-05-30T11:41:46Z</time>
      </trkpt>
      <trkpt lat="45.38574" lon="5.66079">
        <ele>458</ele>
        <time>2009-05-30T11:43:05Z</time>
      </trkpt>
      <trkpt lat="45.38577" lon="5.66073">
        <ele>471</ele>
        <time>2009-05-30T11:45:06Z</time>
      </trkpt>
      <trkpt lat="45.38579" lon="5.66075">
        <ele>468</ele>
        <time>2009-05-30T11:45:18Z</time>
      </trkpt>
      <trkpt lat="45.38581" lon="5.66062">
        <ele>463</ele>
        <time>2009-05-30T11:45:31Z</time>
      </trkpt>
      <trkpt lat="45.38572" lon="5.66049">
        <ele>460</ele>
        <time>2009-05-30T11:45:35Z</time>
      </trkpt>
      <trkpt lat="45.38566" lon="5.66034">
        <ele>459</ele>
        <time>2009-05-30T11:45:38Z</time>
      </trkpt>
      <trkpt lat="45.38559" lon="5.66019">
        <ele>458</ele>
        <time>2009-05-30T11:45:41Z</time>
      </trkpt>
      <trkpt lat="45.38555" lon="5.66008">
        <ele>457</ele>
        <time>2009-05-30T11:45:43Z</time>
      </trkpt>
      <trkpt lat="45.38551" lon="5.65991">
        <ele>456</ele>
        <time>2009-05-30T11:45:46Z</time>
      </trkpt>
      <trkpt lat="45.38538" lon="5.65957">
        <ele>455</ele>
        <time>2009-05-30T11:45:52Z</time>
      </trkpt>
      <trkpt lat="45.38514" lon="5.65858">
        <ele>453</ele>
        <time>2009-05-30T11:46:08Z</time>
      </trkpt>
      <trkpt lat="45.3851" lon="5.65841">
        <ele>452</ele>
        <time>2009-05-30T11:46:11Z</time>
      </trkpt>
      <trkpt lat="45.38506" lon="5.6583">
        <ele>451</ele>
        <time>2009-05-30T11:46:13Z</time>
      </trkpt>
      <trkpt lat="45.38459" lon="5.65747">
        <ele>451</ele>
        <time>2009-05-30T11:46:29Z</time>
      </trkpt>
      <trkpt lat="45.38454" lon="5.65742">
        <ele>451</ele>
        <time>2009-05-30T11:46:30Z</time>
      </trkpt>
      <trkpt lat="45.38435" lon="5.65755">
        <ele>451</ele>
        <time>2009-05-30T11:46:35Z</time>
      </trkpt>
      <trkpt lat="45.38429" lon="5.65766">
        <ele>450</ele>
        <time>2009-05-30T11:46:37Z</time>
      </trkpt>
      <trkpt lat="45.38381" lon="5.6582">
        <ele>450</ele>
        <time>2009-05-30T11:46:51Z</time>
      </trkpt>
      <trkpt lat="45.38377" lon="5.65828">
        <ele>450</ele>
        <time>2009-05-30T11:46:53Z</time>
      </trkpt>
      <trkpt lat="45.3836" lon="5.65847">
        <ele>451</ele>
        <time>2009-05-30T11:46:59Z</time>
      </trkpt>
      <trkpt lat="45.38338" lon="5.65865">
        <ele>452</ele>
        <time>2009-05-30T11:47:08Z</time>
      </trkpt>
      <trkpt lat="45.38332" lon="5.65873">
        <ele>453</ele>
        <time>2009-05-30T11:47:13Z</time>
      </trkpt>
      <trkpt lat="45.3833" lon="5.65877">
        <ele>453</ele>
        <time>2009-05-30T11:47:15Z</time>
      </trkpt>
      <trkpt lat="45.38326" lon="5.65882">
        <ele>454</ele>
        <time>2009-05-30T11:47:17Z</time>
      </trkpt>
      <trkpt lat="45.38317" lon="5.65892">
        <ele>455</ele>
        <time>2009-05-30T11:47:22Z</time>
      </trkpt>
      <trkpt lat="45.38308" lon="5.65907">
        <ele>455</ele>
        <time>2009-05-30T11:47:28Z</time>
      </trkpt>
      <trkpt lat="45.38293" lon="5.65927">
        <ele>456</ele>
        <time>2009-05-30T11:47:39Z</time>
      </trkpt>
      <trkpt lat="45.38285" lon="5.65935">
        <ele>457</ele>
        <time>2009-05-30T11:47:45Z</time>
      </trkpt>
      <trkpt lat="45.3828" lon="5.65942">
        <ele>458</ele>
        <time>2009-05-30T11:47:49Z</time>
      </trkpt>
      <trkpt lat="45.38263" lon="5.65963">
        <ele>459</ele>
        <time>2009-05-30T11:48:01Z</time>
      </trkpt>
      <trkpt lat="45.38248" lon="5.65983">
        <ele>461</ele>
        <time>2009-05-30T11:48:12Z</time>
      </trkpt>
      <trkpt lat="45.38246" lon="5.65987">
        <ele>462</ele>
        <time>2009-05-30T11:48:14Z</time>
      </trkpt>
      <trkpt lat="45.38244" lon="5.65995">
        <ele>463</ele>
        <time>2009-05-30T11:48:18Z</time>
      </trkpt>
      <trkpt lat="45.38244" lon="5.65998">
        <ele>463</ele>
        <time>2009-05-30T11:48:19Z</time>
      </trkpt>
      <trkpt lat="45.38244" lon="5.66006">
        <ele>464</ele>
        <time>2009-05-30T11:48:23Z</time>
      </trkpt>
      <trkpt lat="45.38246" lon="5.66023">
        <ele>465</ele>
        <time>2009-05-30T11:48:30Z</time>
      </trkpt>
      <trkpt lat="45.38246" lon="5.6603">
        <ele>466</ele>
        <time>2009-05-30T11:48:34Z</time>
      </trkpt>
      <trkpt lat="45.38244" lon="5.66032">
        <ele>466</ele>
        <time>2009-05-30T11:48:35Z</time>
      </trkpt>
      <trkpt lat="45.38242" lon="5.66038">
        <ele>467</ele>
        <time>2009-05-30T11:48:39Z</time>
      </trkpt>
      <trkpt lat="45.38238" lon="5.66045">
        <ele>468</ele>
        <time>2009-05-30T11:48:43Z</time>
      </trkpt>
      <trkpt lat="45.38229" lon="5.66053">
        <ele>469</ele>
        <time>2009-05-30T11:48:51Z</time>
      </trkpt>
      <trkpt lat="45.38223" lon="5.6606">
        <ele>470</ele>
        <time>2009-05-30T11:48:56Z</time>
      </trkpt>
      <trkpt lat="45.38223" lon="5.66062">
        <ele>470</ele>
        <time>2009-05-30T11:48:58Z</time>
      </trkpt>
      <trkpt lat="45.38218" lon="5.66066">
        <ele>471</ele>
        <time>2009-05-30T11:49:01Z</time>
      </trkpt>
      <trkpt lat="45.38216" lon="5.66071">
        <ele>471</ele>
        <time>2009-05-30T11:49:04Z</time>
      </trkpt>
      <trkpt lat="45.38216" lon="5.66073">
        <ele>471</ele>
        <time>2009-05-30T11:49:05Z</time>
      </trkpt>
      <trkpt lat="45.38214" lon="5.66077">
        <ele>472</ele>
        <time>2009-05-30T11:49:08Z</time>
      </trkpt>
      <trkpt lat="45.38212" lon="5.66079">
        <ele>472</ele>
        <time>2009-05-30T11:49:09Z</time>
      </trkpt>
      <trkpt lat="45.38203" lon="5.6609">
        <ele>473</ele>
        <time>2009-05-30T11:49:18Z</time>
      </trkpt>
      <trkpt lat="45.38199" lon="5.66094">
        <ele>474</ele>
        <time>2009-05-30T11:49:23Z</time>
      </trkpt>
      <trkpt lat="45.38197" lon="5.66098">
        <ele>474</ele>
        <time>2009-05-30T11:49:25Z</time>
      </trkpt>
      <trkpt lat="45.38188" lon="5.66103">
        <ele>475</ele>
        <time>2009-05-30T11:49:31Z</time>
      </trkpt>
      <trkpt lat="45.38184" lon="5.66105">
        <ele>475</ele>
        <time>2009-05-30T11:49:34Z</time>
      </trkpt>
      <trkpt lat="45.38171" lon="5.66107">
        <ele>476</ele>
        <time>2009-05-30T11:49:43Z</time>
      </trkpt>
      <trkpt lat="45.38165" lon="5.66109">
        <ele>476</ele>
        <time>2009-05-30T11:49:47Z</time>
      </trkpt>
      <trkpt lat="45.38156" lon="5.66109">
        <ele>477</ele>
        <time>2009-05-30T11:49:52Z</time>
      </trkpt>
      <trkpt lat="45.38152" lon="5.66111">
        <ele>477</ele>
        <time>2009-05-30T11:49:55Z</time>
      </trkpt>
      <trkpt lat="45.38152" lon="5.66111">
        <ele>477</ele>
        <time>2009-05-30T11:49:56Z</time>
      </trkpt>
      <trkpt lat="45.38124" lon="5.66111">
        <ele>480</ele>
        <time>2009-05-30T11:50:13Z</time>
      </trkpt>
      <trkpt lat="45.38117" lon="5.66113">
        <ele>480</ele>
        <time>2009-05-30T11:50:17Z</time>
      </trkpt>
      <trkpt lat="45.38111" lon="5.66118">
        <ele>480</ele>
        <time>2009-05-30T11:50:21Z</time>
      </trkpt>
      <trkpt lat="45.38092" lon="5.66122">
        <ele>478</ele>
        <time>2009-05-30T11:50:33Z</time>
      </trkpt>
      <trkpt lat="45.38087" lon="5.66124">
        <ele>478</ele>
        <time>2009-05-30T11:50:37Z</time>
      </trkpt>
      <trkpt lat="45.38079" lon="5.66124">
        <ele>479</ele>
        <time>2009-05-30T11:50:42Z</time>
      </trkpt>
      <trkpt lat="45.38072" lon="5.66124">
        <ele>480</ele>
        <time>2009-05-30T11:50:45Z</time>
      </trkpt>
      <trkpt lat="45.38029" lon="5.66105">
        <ele>481</ele>
        <time>2009-05-30T11:51:08Z</time>
      </trkpt>
      <trkpt lat="45.37997" lon="5.66094">
        <ele>483</ele>
        <time>2009-05-30T11:51:23Z</time>
      </trkpt>
      <trkpt lat="45.37978" lon="5.66096">
        <ele>484</ele>
        <time>2009-05-30T11:51:35Z</time>
      </trkpt>
      <trkpt lat="45.37969" lon="5.66096">
        <ele>485</ele>
        <time>2009-05-30T11:51:39Z</time>
      </trkpt>
      <trkpt lat="45.37965" lon="5.66098">
        <ele>486</ele>
        <time>2009-05-30T11:51:42Z</time>
      </trkpt>
      <trkpt lat="45.37961" lon="5.66101">
        <ele>487</ele>
        <time>2009-05-30T11:51:45Z</time>
      </trkpt>
      <trkpt lat="45.37954" lon="5.66105">
        <ele>488</ele>
        <time>2009-05-30T11:51:49Z</time>
      </trkpt>
      <trkpt lat="45.37948" lon="5.66105">
        <ele>489</ele>
        <time>2009-05-30T11:51:52Z</time>
      </trkpt>
      <trkpt lat="45.37935" lon="5.66103">
        <ele>490</ele>
        <time>2009-05-30T11:51:59Z</time>
      </trkpt>
      <trkpt lat="45.3792" lon="5.66098">
        <ele>492</ele>
        <time>2009-05-30T11:52:07Z</time>
      </trkpt>
      <trkpt lat="45.37914" lon="5.66096">
        <ele>492</ele>
        <time>2009-05-30T11:52:11Z</time>
      </trkpt>
      <trkpt lat="45.37899" lon="5.66092">
        <ele>494</ele>
        <time>2009-05-30T11:52:19Z</time>
      </trkpt>
      <trkpt lat="45.37894" lon="5.66092">
        <ele>495</ele>
        <time>2009-05-30T11:52:22Z</time>
      </trkpt>
      <trkpt lat="45.37888" lon="5.66088">
        <ele>496</ele>
        <time>2009-05-30T11:52:25Z</time>
      </trkpt>
      <trkpt lat="45.37879" lon="5.66086">
        <ele>497</ele>
        <time>2009-05-30T11:52:30Z</time>
      </trkpt>
      <trkpt lat="45.37856" lon="5.66079">
        <ele>495</ele>
        <time>2009-05-30T11:52:42Z</time>
      </trkpt>
      <trkpt lat="45.37851" lon="5.66079">
        <ele>495</ele>
        <time>2009-05-30T11:52:45Z</time>
      </trkpt>
      <trkpt lat="45.37847" lon="5.66077">
        <ele>496</ele>
        <time>2009-05-30T11:52:48Z</time>
      </trkpt>
      <trkpt lat="45.37845" lon="5.66077">
        <ele>496</ele>
        <time>2009-05-30T11:52:49Z</time>
      </trkpt>
      <trkpt lat="45.37836" lon="5.66073">
        <ele>495</ele>
        <time>2009-05-30T11:52:53Z</time>
      </trkpt>
      <trkpt lat="45.37796" lon="5.66045">
        <ele>496</ele>
        <time>2009-05-30T11:53:04Z</time>
      </trkpt>
      <trkpt lat="45.37748" lon="5.66019">
        <ele>494</ele>
        <time>2009-05-30T11:53:13Z</time>
      </trkpt>
      <trkpt lat="45.37656" lon="5.65957">
        <ele>493</ele>
        <time>2009-05-30T11:53:25Z</time>
      </trkpt>
      <trkpt lat="45.37641" lon="5.65942">
        <ele>493</ele>
        <time>2009-05-30T11:53:27Z</time>
      </trkpt>
      <trkpt lat="45.3757" lon="5.65897">
        <ele>483</ele>
        <time>2009-05-30T11:53:35Z</time>
      </trkpt>
      <trkpt lat="45.37557" lon="5.65892">
        <ele>481</ele>
        <time>2009-05-30T11:53:37Z</time>
      </trkpt>
      <trkpt lat="45.37555" lon="5.65871">
        <ele>479</ele>
        <time>2009-05-30T11:53:42Z</time>
      </trkpt>
      <trkpt lat="45.37566" lon="5.65835">
        <ele>478</ele>
        <time>2009-05-30T11:53:47Z</time>
      </trkpt>
      <trkpt lat="45.37581" lon="5.65779">
        <ele>476</ele>
        <time>2009-05-30T11:53:53Z</time>
      </trkpt>
      <trkpt lat="45.37609" lon="5.6574">
        <ele>474</ele>
        <time>2009-05-30T11:53:58Z</time>
      </trkpt>
      <trkpt lat="45.37658" lon="5.65678">
        <ele>471</ele>
        <time>2009-05-30T11:54:06Z</time>
      </trkpt>
      <trkpt lat="45.37725" lon="5.65545">
        <ele>467</ele>
        <time>2009-05-30T11:54:19Z</time>
      </trkpt>
      <trkpt lat="45.3777" lon="5.65468">
        <ele>464</ele>
        <time>2009-05-30T11:54:27Z</time>
      </trkpt>
      <trkpt lat="45.37778" lon="5.65395">
        <ele>461</ele>
        <time>2009-05-30T11:54:33Z</time>
      </trkpt>
      <trkpt lat="45.37772" lon="5.6524">
        <ele>458</ele>
        <time>2009-05-30T11:54:47Z</time>
      </trkpt>
      <trkpt lat="45.37761" lon="5.65249">
        <ele>457</ele>
        <time>2009-05-30T11:54:52Z</time>
      </trkpt>
      <trkpt lat="45.37759" lon="5.65255">
        <ele>457</ele>
        <time>2009-05-30T11:54:53Z</time>
      </trkpt>
      <trkpt lat="45.37755" lon="5.653">
        <ele>456</ele>
        <time>2009-05-30T11:54:59Z</time>
      </trkpt>
      <trkpt lat="45.37738" lon="5.65405">
        <ele>450</ele>
        <time>2009-05-30T11:55:08Z</time>
      </trkpt>
      <trkpt lat="45.37671" lon="5.65508">
        <ele>442</ele>
        <time>2009-05-30T11:55:18Z</time>
      </trkpt>
      <trkpt lat="45.37564" lon="5.65618">
        <ele>434</ele>
        <time>2009-05-30T11:55:31Z</time>
      </trkpt>
      <trkpt lat="45.37484" lon="5.65686">
        <ele>426</ele>
        <time>2009-05-30T11:55:40Z</time>
      </trkpt>
      <trkpt lat="45.37441" lon="5.65697">
        <ele>421</ele>
        <time>2009-05-30T11:55:44Z</time>
      </trkpt>
      <trkpt lat="45.37431" lon="5.65699">
        <ele>419</ele>
        <time>2009-05-30T11:55:45Z</time>
      </trkpt>
      <trkpt lat="45.37386" lon="5.65695">
        <ele>414</ele>
        <time>2009-05-30T11:55:51Z</time>
      </trkpt>
      <trkpt lat="45.37377" lon="5.65674">
        <ele>413</ele>
        <time>2009-05-30T11:55:53Z</time>
      </trkpt>
      <trkpt lat="45.37345" lon="5.6553">
        <ele>411</ele>
        <time>2009-05-30T11:56:08Z</time>
      </trkpt>
      <trkpt lat="45.37334" lon="5.65459">
        <ele>411</ele>
        <time>2009-05-30T11:56:21Z</time>
      </trkpt>
      <trkpt lat="45.37323" lon="5.65388">
        <ele>415</ele>
        <time>2009-05-30T11:56:42Z</time>
      </trkpt>
      <trkpt lat="45.37319" lon="5.65356">
        <ele>417</ele>
        <time>2009-05-30T11:56:52Z</time>
      </trkpt>
      <trkpt lat="45.37311" lon="5.65309">
        <ele>420</ele>
        <time>2009-05-30T11:57:07Z</time>
      </trkpt>
      <trkpt lat="45.37308" lon="5.653">
        <ele>420</ele>
        <time>2009-05-30T11:57:10Z</time>
      </trkpt>
      <trkpt lat="45.37287" lon="5.65232">
        <ele>423</ele>
        <time>2009-05-30T11:57:24Z</time>
      </trkpt>
      <trkpt lat="45.37257" lon="5.65105">
        <ele>426</ele>
        <time>2009-05-30T11:57:44Z</time>
      </trkpt>
      <trkpt lat="45.37233" lon="5.65051">
        <ele>428</ele>
        <time>2009-05-30T11:57:54Z</time>
      </trkpt>
      <trkpt lat="45.3721" lon="5.65015">
        <ele>428</ele>
        <time>2009-05-30T11:58:02Z</time>
      </trkpt>
      <trkpt lat="45.37203" lon="5.64998">
        <ele>429</ele>
        <time>2009-05-30T11:58:05Z</time>
      </trkpt>
      <trkpt lat="45.37165" lon="5.64899">
        <ele>430</ele>
        <time>2009-05-30T11:58:22Z</time>
      </trkpt>
      <trkpt lat="45.37105" lon="5.648">
        <ele>430</ele>
        <time>2009-05-30T11:58:38Z</time>
      </trkpt>
      <trkpt lat="45.37038" lon="5.64727">
        <ele>424</ele>
        <time>2009-05-30T11:58:50Z</time>
      </trkpt>
      <trkpt lat="45.37036" lon="5.64667">
        <ele>421</ele>
        <time>2009-05-30T11:58:56Z</time>
      </trkpt>
      <trkpt lat="45.37045" lon="5.64648">
        <ele>418</ele>
        <time>2009-05-30T11:58:58Z</time>
      </trkpt>
      <trkpt lat="45.37057" lon="5.64631">
        <ele>416</ele>
        <time>2009-05-30T11:59:00Z</time>
      </trkpt>
      <trkpt lat="45.37094" lon="5.64586">
        <ele>409</ele>
        <time>2009-05-30T11:59:05Z</time>
      </trkpt>
      <trkpt lat="45.37171" lon="5.64481">
        <ele>402</ele>
        <time>2009-05-30T11:59:16Z</time>
      </trkpt>
      <trkpt lat="45.37186" lon="5.64463">
        <ele>402</ele>
        <time>2009-05-30T11:59:20Z</time>
      </trkpt>
      <trkpt lat="45.37186" lon="5.64444">
        <ele>402</ele>
        <time>2009-05-30T11:59:26Z</time>
      </trkpt>
      <trkpt lat="45.37184" lon="5.6444">
        <ele>401</ele>
        <time>2009-05-30T11:59:27Z</time>
      </trkpt>
      <trkpt lat="45.3718" lon="5.64423">
        <ele>402</ele>
        <time>2009-05-30T11:59:31Z</time>
      </trkpt>
      <trkpt lat="45.3713" lon="5.6436">
        <ele>401</ele>
        <time>2009-05-30T11:59:48Z</time>
      </trkpt>
      <trkpt lat="45.37038" lon="5.64292">
        <ele>398</ele>
        <time>2009-05-30T12:00:10Z</time>
      </trkpt>
      <trkpt lat="45.37027" lon="5.64279">
        <ele>399</ele>
        <time>2009-05-30T12:00:13Z</time>
      </trkpt>
      <trkpt lat="45.37023" lon="5.64277">
        <ele>398</ele>
        <time>2009-05-30T12:00:14Z</time>
      </trkpt>
      <trkpt lat="45.36961" lon="5.64193">
        <ele>396</ele>
        <time>2009-05-30T12:00:33Z</time>
      </trkpt>
      <trkpt lat="45.36909" lon="5.64086">
        <ele>395</ele>
        <time>2009-05-30T12:00:55Z</time>
      </trkpt>
      <trkpt lat="45.36871" lon="5.63974">
        <ele>399</ele>
        <time>2009-05-30T12:01:14Z</time>
      </trkpt>
      <trkpt lat="45.36815" lon="5.63903">
        <ele>400</ele>
        <time>2009-05-30T12:01:31Z</time>
      </trkpt>
      <trkpt lat="45.36729" lon="5.63833">
        <ele>399</ele>
        <time>2009-05-30T12:01:52Z</time>
      </trkpt>
      <trkpt lat="45.36665" lon="5.63772">
        <ele>400</ele>
        <time>2009-05-30T12:02:08Z</time>
      </trkpt>
      <trkpt lat="45.36643" lon="5.6374">
        <ele>401</ele>
        <time>2009-05-30T12:02:14Z</time>
      </trkpt>
      <trkpt lat="45.36585" lon="5.63616">
        <ele>399</ele>
        <time>2009-05-30T12:02:34Z</time>
      </trkpt>
      <trkpt lat="45.36542" lon="5.63521">
        <ele>399</ele>
        <time>2009-05-30T12:02:49Z</time>
      </trkpt>
      <trkpt lat="45.36538" lon="5.63498">
        <ele>399</ele>
        <time>2009-05-30T12:02:52Z</time>
      </trkpt>
      <trkpt lat="45.36536" lon="5.63444">
        <ele>399</ele>
        <time>2009-05-30T12:02:59Z</time>
      </trkpt>
      <trkpt lat="45.36549" lon="5.63408">
        <ele>401</ele>
        <time>2009-05-30T12:03:05Z</time>
      </trkpt>
      <trkpt lat="45.36551" lon="5.63403">
        <ele>401</ele>
        <time>2009-05-30T12:03:06Z</time>
      </trkpt>
      <trkpt lat="45.36553" lon="5.63378">
        <ele>403</ele>
        <time>2009-05-30T12:03:11Z</time>
      </trkpt>
      <trkpt lat="45.36534" lon="5.63363">
        <ele>403</ele>
        <time>2009-05-30T12:03:18Z</time>
      </trkpt>
      <trkpt lat="45.36459" lon="5.63365">
        <ele>402</ele>
        <time>2009-05-30T12:03:34Z</time>
      </trkpt>
      <trkpt lat="45.36405" lon="5.63371">
        <ele>401</ele>
        <time>2009-05-30T12:03:44Z</time>
      </trkpt>
      <trkpt lat="45.36392" lon="5.63375">
        <ele>401</ele>
        <time>2009-05-30T12:03:47Z</time>
      </trkpt>
      <trkpt lat="45.36371" lon="5.6338">
        <ele>401</ele>
        <time>2009-05-30T12:03:52Z</time>
      </trkpt>
      <trkpt lat="45.3636" lon="5.63371">
        <ele>402</ele>
        <time>2009-05-30T12:03:56Z</time>
      </trkpt>
      <trkpt lat="45.36347" lon="5.63358">
        <ele>401</ele>
        <time>2009-05-30T12:04:01Z</time>
      </trkpt>
      <trkpt lat="45.36334" lon="5.6333">
        <ele>400</ele>
        <time>2009-05-30T12:04:12Z</time>
      </trkpt>
      <trkpt lat="45.3633" lon="5.63315">
        <ele>400</ele>
        <time>2009-05-30T12:04:22Z</time>
      </trkpt>
      <trkpt lat="45.3633" lon="5.63298">
        <ele>400</ele>
        <time>2009-05-30T12:04:31Z</time>
      </trkpt>
      <trkpt lat="45.36328" lon="5.63292">
        <ele>399</ele>
        <time>2009-05-30T12:04:35Z</time>
      </trkpt>
      <trkpt lat="45.36326" lon="5.63281">
        <ele>398</ele>
        <time>2009-05-30T12:04:42Z</time>
      </trkpt>
      <trkpt lat="45.36324" lon="5.63275">
        <ele>398</ele>
        <time>2009-05-30T12:04:44Z</time>
      </trkpt>
      <trkpt lat="45.36321" lon="5.63268">
        <ele>398</ele>
        <time>2009-05-30T12:04:48Z</time>
      </trkpt>
      <trkpt lat="45.36321" lon="5.63264">
        <ele>398</ele>
        <time>2009-05-30T12:04:50Z</time>
      </trkpt>
      <trkpt lat="45.36313" lon="5.63247">
        <ele>399</ele>
        <time>2009-05-30T12:04:59Z</time>
      </trkpt>
      <trkpt lat="45.36287" lon="5.6321">
        <ele>398</ele>
        <time>2009-05-30T12:05:16Z</time>
      </trkpt>
      <trkpt lat="45.36259" lon="5.63161">
        <ele>401</ele>
        <time>2009-05-30T12:05:33Z</time>
      </trkpt>
      <trkpt lat="45.36244" lon="5.63139">
        <ele>405</ele>
        <time>2009-05-30T12:05:42Z</time>
      </trkpt>
      <trkpt lat="45.3624" lon="5.63131">
        <ele>408</ele>
        <time>2009-05-30T12:05:45Z</time>
      </trkpt>
      <trkpt lat="45.36214" lon="5.63099">
        <ele>413</ele>
        <time>2009-05-30T12:05:59Z</time>
      </trkpt>
      <trkpt lat="45.36208" lon="5.6309">
        <ele>414</ele>
        <time>2009-05-30T12:06:02Z</time>
      </trkpt>
      <trkpt lat="45.36163" lon="5.63041">
        <ele>419</ele>
        <time>2009-05-30T12:06:20Z</time>
      </trkpt>
      <trkpt lat="45.3609" lon="5.62991">
        <ele>426</ele>
        <time>2009-05-30T12:06:43Z</time>
      </trkpt>
      <trkpt lat="45.3607" lon="5.62987">
        <ele>426</ele>
        <time>2009-05-30T12:06:48Z</time>
      </trkpt>
      <trkpt lat="45.35997" lon="5.62983">
        <ele>428</ele>
        <time>2009-05-30T12:07:09Z</time>
      </trkpt>
      <trkpt lat="45.35974" lon="5.62974">
        <ele>428</ele>
        <time>2009-05-30T12:07:15Z</time>
      </trkpt>
      <trkpt lat="45.35961" lon="5.62961">
        <ele>429</ele>
        <time>2009-05-30T12:07:21Z</time>
      </trkpt>
      <trkpt lat="45.35957" lon="5.62959">
        <ele>429</ele>
        <time>2009-05-30T12:07:22Z</time>
      </trkpt>
      <trkpt lat="45.35946" lon="5.62955">
        <ele>429</ele>
        <time>2009-05-30T12:07:25Z</time>
      </trkpt>
      <trkpt lat="45.35862" lon="5.62925">
        <ele>429</ele>
        <time>2009-05-30T12:07:45Z</time>
      </trkpt>
      <trkpt lat="45.35813" lon="5.62933">
        <ele>429</ele>
        <time>2009-05-30T12:07:58Z</time>
      </trkpt>
      <trkpt lat="45.35768" lon="5.62946">
        <ele>433</ele>
        <time>2009-05-30T12:08:15Z</time>
      </trkpt>
      <trkpt lat="45.35764" lon="5.62946">
        <ele>434</ele>
        <time>2009-05-30T12:08:17Z</time>
      </trkpt>
      <trkpt lat="45.35759" lon="5.62948">
        <ele>434</ele>
        <time>2009-05-30T12:08:19Z</time>
      </trkpt>
      <trkpt lat="45.35746" lon="5.62948">
        <ele>435</ele>
        <time>2009-05-30T12:08:24Z</time>
      </trkpt>
      <trkpt lat="45.35714" lon="5.62953">
        <ele>436</ele>
        <time>2009-05-30T12:08:38Z</time>
      </trkpt>
      <trkpt lat="45.3571" lon="5.62955">
        <ele>437</ele>
        <time>2009-05-30T12:08:42Z</time>
      </trkpt>
      <trkpt lat="45.35697" lon="5.62961">
        <ele>437</ele>
        <time>2009-05-30T12:08:49Z</time>
      </trkpt>
      <trkpt lat="45.35695" lon="5.62966">
        <ele>438</ele>
        <time>2009-05-30T12:08:52Z</time>
      </trkpt>
      <trkpt lat="45.35693" lon="5.62966">
        <ele>438</ele>
        <time>2009-05-30T12:08:56Z</time>
      </trkpt>
      <trkpt lat="45.35688" lon="5.62968">
        <ele>438</ele>
        <time>2009-05-30T12:08:59Z</time>
      </trkpt>
      <trkpt lat="45.35678" lon="5.62976">
        <ele>440</ele>
        <time>2009-05-30T12:09:05Z</time>
      </trkpt>
      <trkpt lat="45.35671" lon="5.62985">
        <ele>440</ele>
        <time>2009-05-30T12:09:09Z</time>
      </trkpt>
      <trkpt lat="45.35665" lon="5.62994">
        <ele>442</ele>
        <time>2009-05-30T12:09:14Z</time>
      </trkpt>
      <trkpt lat="45.35663" lon="5.62998">
        <ele>444</ele>
        <time>2009-05-30T12:09:17Z</time>
      </trkpt>
      <trkpt lat="45.35661" lon="5.63006">
        <ele>445</ele>
        <time>2009-05-30T12:09:20Z</time>
      </trkpt>
      <trkpt lat="45.3565" lon="5.63026">
        <ele>448</ele>
        <time>2009-05-30T12:09:28Z</time>
      </trkpt>
      <trkpt lat="45.35643" lon="5.63036">
        <ele>450</ele>
        <time>2009-05-30T12:09:33Z</time>
      </trkpt>
      <trkpt lat="45.3563" lon="5.63036">
        <ele>451</ele>
        <time>2009-05-30T12:09:40Z</time>
      </trkpt>
      <trkpt lat="45.35626" lon="5.63036">
        <ele>451</ele>
        <time>2009-05-30T12:09:43Z</time>
      </trkpt>
      <trkpt lat="45.35615" lon="5.63034">
        <ele>451</ele>
        <time>2009-05-30T12:09:48Z</time>
      </trkpt>
      <trkpt lat="45.35581" lon="5.63028">
        <ele>453</ele>
        <time>2009-05-30T12:10:05Z</time>
      </trkpt>
      <trkpt lat="45.35577" lon="5.63026">
        <ele>454</ele>
        <time>2009-05-30T12:10:07Z</time>
      </trkpt>
      <trkpt lat="45.3557" lon="5.63026">
        <ele>454</ele>
        <time>2009-05-30T12:10:10Z</time>
      </trkpt>
      <trkpt lat="45.35525" lon="5.63011">
        <ele>459</ele>
        <time>2009-05-30T12:10:32Z</time>
      </trkpt>
      <trkpt lat="45.35487" lon="5.63">
        <ele>462</ele>
        <time>2009-05-30T12:10:50Z</time>
      </trkpt>
      <trkpt lat="45.35424" lon="5.62985">
        <ele>467</ele>
        <time>2009-05-30T12:11:17Z</time>
      </trkpt>
      <trkpt lat="45.35416" lon="5.62983">
        <ele>468</ele>
        <time>2009-05-30T12:11:21Z</time>
      </trkpt>
      <trkpt lat="45.35369" lon="5.62985">
        <ele>471</ele>
        <time>2009-05-30T12:11:42Z</time>
      </trkpt>
      <trkpt lat="45.35317" lon="5.62989">
        <ele>475</ele>
        <time>2009-05-30T12:12:03Z</time>
      </trkpt>
      <trkpt lat="45.35309" lon="5.62991">
        <ele>476</ele>
        <time>2009-05-30T12:12:07Z</time>
      </trkpt>
      <trkpt lat="45.35289" lon="5.62994">
        <ele>477</ele>
        <time>2009-05-30T12:12:15Z</time>
      </trkpt>
      <trkpt lat="45.3527" lon="5.62996">
        <ele>478</ele>
        <time>2009-05-30T12:12:23Z</time>
      </trkpt>
      <trkpt lat="45.35266" lon="5.62996">
        <ele>479</ele>
        <time>2009-05-30T12:12:25Z</time>
      </trkpt>
      <trkpt lat="45.3524" lon="5.63">
        <ele>480</ele>
        <time>2009-05-30T12:12:36Z</time>
      </trkpt>
      <trkpt lat="45.35203" lon="5.63011">
        <ele>483</ele>
        <time>2009-05-30T12:12:52Z</time>
      </trkpt>
      <trkpt lat="45.35195" lon="5.63015">
        <ele>483</ele>
        <time>2009-05-30T12:12:56Z</time>
      </trkpt>
      <trkpt lat="45.3518" lon="5.63021">
        <ele>483</ele>
        <time>2009-05-30T12:13:03Z</time>
      </trkpt>
      <trkpt lat="45.35167" lon="5.63017">
        <ele>483</ele>
        <time>2009-05-30T12:13:08Z</time>
      </trkpt>
      <trkpt lat="45.35111" lon="5.62979">
        <ele>482</ele>
        <time>2009-05-30T12:13:22Z</time>
      </trkpt>
      <trkpt lat="45.35107" lon="5.62944">
        <ele>482</ele>
        <time>2009-05-30T12:13:25Z</time>
      </trkpt>
      <trkpt lat="45.35107" lon="5.62897">
        <ele>482</ele>
        <time>2009-05-30T12:13:29Z</time>
      </trkpt>
      <trkpt lat="45.35092" lon="5.62858">
        <ele>481</ele>
        <time>2009-05-30T12:13:33Z</time>
      </trkpt>
      <trkpt lat="45.35088" lon="5.6285">
        <ele>481</ele>
        <time>2009-05-30T12:13:34Z</time>
      </trkpt>
      <trkpt lat="45.35081" lon="5.62839">
        <ele>480</ele>
        <time>2009-05-30T12:13:36Z</time>
      </trkpt>
      <trkpt lat="45.35096" lon="5.62835">
        <ele>482</ele>
        <time>2009-05-30T12:13:40Z</time>
      </trkpt>
      <trkpt lat="45.35113" lon="5.6282">
        <ele>481</ele>
        <time>2009-05-30T12:13:43Z</time>
      </trkpt>
      <trkpt lat="45.35118" lon="5.62785">
        <ele>479</ele>
        <time>2009-05-30T12:13:46Z</time>
      </trkpt>
      <trkpt lat="45.35115" lon="5.62762">
        <ele>478</ele>
        <time>2009-05-30T12:13:48Z</time>
      </trkpt>
      <trkpt lat="45.35122" lon="5.62678">
        <ele>471</ele>
        <time>2009-05-30T12:13:56Z</time>
      </trkpt>
      <trkpt lat="45.35158" lon="5.62509">
        <ele>450</ele>
        <time>2009-05-30T12:14:05Z</time>
      </trkpt>
      <trkpt lat="45.35178" lon="5.62472">
        <ele>441</ele>
        <time>2009-05-30T12:14:09Z</time>
      </trkpt>
      <trkpt lat="45.35184" lon="5.62457">
        <ele>438</ele>
        <time>2009-05-30T12:14:11Z</time>
      </trkpt>
      <trkpt lat="45.35167" lon="5.62438">
        <ele>434</ele>
        <time>2009-05-30T12:14:15Z</time>
      </trkpt>
      <trkpt lat="45.35096" lon="5.62358">
        <ele>419</ele>
        <time>2009-05-30T12:14:26Z</time>
      </trkpt>
      <trkpt lat="45.35051" lon="5.62354">
        <ele>413</ele>
        <time>2009-05-30T12:14:31Z</time>
      </trkpt>
      <trkpt lat="45.3504" lon="5.62358">
        <ele>412</ele>
        <time>2009-05-30T12:14:32Z</time>
      </trkpt>
      <trkpt lat="45.35032" lon="5.62365">
        <ele>411</ele>
        <time>2009-05-30T12:14:33Z</time>
      </trkpt>
      <trkpt lat="45.34989" lon="5.6235">
        <ele>408</ele>
        <time>2009-05-30T12:14:38Z</time>
      </trkpt>
      <trkpt lat="45.34982" lon="5.62341">
        <ele>408</ele>
        <time>2009-05-30T12:14:39Z</time>
      </trkpt>
      <trkpt lat="45.34972" lon="5.62324">
        <ele>407</ele>
        <time>2009-05-30T12:14:41Z</time>
      </trkpt>
      <trkpt lat="45.3495" lon="5.62313">
        <ele>405</ele>
        <time>2009-05-30T12:14:45Z</time>
      </trkpt>
      <trkpt lat="45.34935" lon="5.62311">
        <ele>404</ele>
        <time>2009-05-30T12:14:48Z</time>
      </trkpt>
      <trkpt lat="45.34942" lon="5.6229">
        <ele>401</ele>
        <time>2009-05-30T12:14:53Z</time>
      </trkpt>
      <trkpt lat="45.34948" lon="5.62285">
        <ele>401</ele>
        <time>2009-05-30T12:14:54Z</time>
      </trkpt>
      <trkpt lat="45.34955" lon="5.62283">
        <ele>400</ele>
        <time>2009-05-30T12:14:55Z</time>
      </trkpt>
      <trkpt lat="45.34989" lon="5.62303">
        <ele>398</ele>
        <time>2009-05-30T12:15:01Z</time>
      </trkpt>
      <trkpt lat="45.35017" lon="5.62318">
        <ele>395</ele>
        <time>2009-05-30T12:15:05Z</time>
      </trkpt>
      <trkpt lat="45.35025" lon="5.62315">
        <ele>394</ele>
        <time>2009-05-30T12:15:06Z</time>
      </trkpt>
      <trkpt lat="45.35047" lon="5.62288">
        <ele>393</ele>
        <time>2009-05-30T12:15:09Z</time>
      </trkpt>
      <trkpt lat="45.35062" lon="5.62275">
        <ele>391</ele>
        <time>2009-05-30T12:15:12Z</time>
      </trkpt>
      <trkpt lat="45.3506" lon="5.62236">
        <ele>388</ele>
        <time>2009-05-30T12:15:18Z</time>
      </trkpt>
      <trkpt lat="45.35051" lon="5.62172">
        <ele>387</ele>
        <time>2009-05-30T12:15:29Z</time>
      </trkpt>
      <trkpt lat="45.3506" lon="5.62165">
        <ele>386</ele>
        <time>2009-05-30T12:15:32Z</time>
      </trkpt>
      <trkpt lat="45.35141" lon="5.62131">
        <ele>386</ele>
        <time>2009-05-30T12:15:54Z</time>
      </trkpt>
      <trkpt lat="45.35152" lon="5.6212">
        <ele>385</ele>
        <time>2009-05-30T12:15:58Z</time>
      </trkpt>
      <trkpt lat="45.35158" lon="5.62109">
        <ele>384</ele>
        <time>2009-05-30T12:16:01Z</time>
      </trkpt>
      <trkpt lat="45.35163" lon="5.62105">
        <ele>384</ele>
        <time>2009-05-30T12:16:02Z</time>
      </trkpt>
      <trkpt lat="45.35178" lon="5.62086">
        <ele>381</ele>
        <time>2009-05-30T12:16:06Z</time>
      </trkpt>
      <trkpt lat="45.35201" lon="5.62049">
        <ele>375</ele>
        <time>2009-05-30T12:16:13Z</time>
      </trkpt>
      <trkpt lat="45.35212" lon="5.62045">
        <ele>374</ele>
        <time>2009-05-30T12:16:15Z</time>
      </trkpt>
      <trkpt lat="45.35218" lon="5.62032">
        <ele>373</ele>
        <time>2009-05-30T12:16:18Z</time>
      </trkpt>
      <trkpt lat="45.35218" lon="5.62024">
        <ele>373</ele>
        <time>2009-05-30T12:16:20Z</time>
      </trkpt>
      <trkpt lat="45.35203" lon="5.62013">
        <ele>373</ele>
        <time>2009-05-30T12:16:24Z</time>
      </trkpt>
      <trkpt lat="45.35201" lon="5.62009">
        <ele>373</ele>
        <time>2009-05-30T12:16:25Z</time>
      </trkpt>
      <trkpt lat="45.35197" lon="5.62002">
        <ele>373</ele>
        <time>2009-05-30T12:16:27Z</time>
      </trkpt>
      <trkpt lat="45.35197" lon="5.61996">
        <ele>373</ele>
        <time>2009-05-30T12:16:31Z</time>
      </trkpt>
      <trkpt lat="45.35203" lon="5.61998">
        <ele>372</ele>
        <time>2009-05-30T12:16:35Z</time>
      </trkpt>
      <trkpt lat="45.35195" lon="5.61972">
        <ele>372</ele>
        <time>2009-05-30T12:16:40Z</time>
      </trkpt>
      <trkpt lat="45.35236" lon="5.61901">
        <ele>372</ele>
        <time>2009-05-30T12:16:51Z</time>
      </trkpt>
      <trkpt lat="45.35257" lon="5.61886">
        <ele>371</ele>
        <time>2009-05-30T12:16:55Z</time>
      </trkpt>
      <trkpt lat="45.35272" lon="5.61876">
        <ele>368</ele>
        <time>2009-05-30T12:16:59Z</time>
      </trkpt>
      <trkpt lat="45.35281" lon="5.61831">
        <ele>364</ele>
        <time>2009-05-30T12:17:06Z</time>
      </trkpt>
      <trkpt lat="45.35279" lon="5.61798">
        <ele>363</ele>
        <time>2009-05-30T12:17:10Z</time>
      </trkpt>
      <trkpt lat="45.35272" lon="5.61785">
        <ele>362</ele>
        <time>2009-05-30T12:17:12Z</time>
      </trkpt>
      <trkpt lat="45.35199" lon="5.61689">
        <ele>352</ele>
        <time>2009-05-30T12:17:30Z</time>
      </trkpt>
      <trkpt lat="45.35191" lon="5.61676">
        <ele>351</ele>
        <time>2009-05-30T12:17:33Z</time>
      </trkpt>
      <trkpt lat="45.35182" lon="5.61665">
        <ele>351</ele>
        <time>2009-05-30T12:17:38Z</time>
      </trkpt>
      <trkpt lat="45.3518" lon="5.61663">
        <ele>349</ele>
        <time>2009-05-30T12:17:39Z</time>
      </trkpt>
      <trkpt lat="45.35146" lon="5.61616">
        <ele>345</ele>
        <time>2009-05-30T12:17:51Z</time>
      </trkpt>
      <trkpt lat="45.35154" lon="5.61599">
        <ele>344</ele>
        <time>2009-05-30T12:17:55Z</time>
      </trkpt>
      <trkpt lat="45.35173" lon="5.61575">
        <ele>342</ele>
        <time>2009-05-30T12:18:00Z</time>
      </trkpt>
      <trkpt lat="45.35199" lon="5.61513">
        <ele>341</ele>
        <time>2009-05-30T12:18:08Z</time>
      </trkpt>
      <trkpt lat="45.35203" lon="5.61496">
        <ele>340</ele>
        <time>2009-05-30T12:18:10Z</time>
      </trkpt>
      <trkpt lat="45.35225" lon="5.61404">
        <ele>333</ele>
        <time>2009-05-30T12:18:19Z</time>
      </trkpt>
      <trkpt lat="45.35221" lon="5.61339">
        <ele>327</ele>
        <time>2009-05-30T12:18:23Z</time>
      </trkpt>
      <trkpt lat="45.35221" lon="5.61307">
        <ele>326</ele>
        <time>2009-05-30T12:18:25Z</time>
      </trkpt>
      <trkpt lat="45.35223" lon="5.61273">
        <ele>324</ele>
        <time>2009-05-30T12:18:28Z</time>
      </trkpt>
      <trkpt lat="45.35227" lon="5.61258">
        <ele>322</ele>
        <time>2009-05-30T12:18:33Z</time>
      </trkpt>
      <trkpt lat="45.35238" lon="5.61273">
        <ele>320</ele>
        <time>2009-05-30T12:18:40Z</time>
      </trkpt>
      <trkpt lat="45.35242" lon="5.61273">
        <ele>320</ele>
        <time>2009-05-30T12:18:41Z</time>
      </trkpt>
      <trkpt lat="45.35283" lon="5.61273">
        <ele>318</ele>
        <time>2009-05-30T12:18:52Z</time>
      </trkpt>
      <trkpt lat="45.35291" lon="5.61258">
        <ele>317</ele>
        <time>2009-05-30T12:18:55Z</time>
      </trkpt>
      <trkpt lat="45.35304" lon="5.61232">
        <ele>316</ele>
        <time>2009-05-30T12:19:01Z</time>
      </trkpt>
      <trkpt lat="45.3533" lon="5.61215">
        <ele>315</ele>
        <time>2009-05-30T12:19:09Z</time>
      </trkpt>
      <trkpt lat="45.35339" lon="5.61206">
        <ele>315</ele>
        <time>2009-05-30T12:19:12Z</time>
      </trkpt>
      <trkpt lat="45.35352" lon="5.61219">
        <ele>316</ele>
        <time>2009-05-30T12:19:17Z</time>
      </trkpt>
      <trkpt lat="45.35354" lon="5.61223">
        <ele>316</ele>
        <time>2009-05-30T12:19:18Z</time>
      </trkpt>
      <trkpt lat="45.35358" lon="5.6123">
        <ele>315</ele>
        <time>2009-05-30T12:19:20Z</time>
      </trkpt>
      <trkpt lat="45.35373" lon="5.61253">
        <ele>315</ele>
        <time>2009-05-30T12:19:26Z</time>
      </trkpt>
      <trkpt lat="45.35403" lon="5.6129">
        <ele>316</ele>
        <time>2009-05-30T12:19:38Z</time>
      </trkpt>
      <trkpt lat="45.35407" lon="5.61294">
        <ele>316</ele>
        <time>2009-05-30T12:19:40Z</time>
      </trkpt>
      <trkpt lat="45.35405" lon="5.61309">
        <ele>314</ele>
        <time>2009-05-30T12:19:47Z</time>
      </trkpt>
      <trkpt lat="45.35405" lon="5.61309">
        <ele>315</ele>
        <time>2009-05-30T12:19:55Z</time>
      </trkpt>
      <trkpt lat="45.35463" lon="5.61255">
        <ele>326</ele>
        <time>2009-05-30T07:55:06Z</time>
      </trkpt>
      <trkpt lat="45.35459" lon="5.61255">
        <ele>316</ele>
        <time>2009-05-30T07:57:25Z</time>
      </trkpt>
      <trkpt lat="45.35463" lon="5.61253">
        <ele>315</ele>
        <time>2009-05-30T07:57:32Z</time>
      </trkpt>
      <trkpt lat="45.35463" lon="5.61258">
        <ele>315</ele>
        <time>2009-05-30T07:57:35Z</time>
      </trkpt>
      <trkpt lat="45.35463" lon="5.61258">
        <ele>314</ele>
        <time>2009-05-30T07:57:39Z</time>
      </trkpt>
      <trkpt lat="45.35455" lon="5.61255">
        <ele>314</ele>
        <time>2009-05-30T07:57:43Z</time>
      </trkpt>
      <trkpt lat="45.35452" lon="5.61253">
        <ele>314</ele>
        <time>2009-05-30T07:57:44Z</time>
      </trkpt>
      <trkpt lat="45.35442" lon="5.61236">
        <ele>314</ele>
        <time>2009-05-30T07:57:49Z</time>
      </trkpt>
      <trkpt lat="45.35439" lon="5.61232">
        <ele>314</ele>
        <time>2009-05-30T07:57:50Z</time>
      </trkpt>
      <trkpt lat="45.35424" lon="5.61195">
        <ele>313</ele>
        <time>2009-05-30T07:57:58Z</time>
      </trkpt>
      <trkpt lat="45.35409" lon="5.6118">
        <ele>313</ele>
        <time>2009-05-30T07:58:03Z</time>
      </trkpt>
      <trkpt lat="45.35403" lon="5.61167">
        <ele>312</ele>
        <time>2009-05-30T07:58:06Z</time>
      </trkpt>
      <trkpt lat="45.35399" lon="5.61152">
        <ele>312</ele>
        <time>2009-05-30T07:58:09Z</time>
      </trkpt>
      <trkpt lat="45.35392" lon="5.61133">
        <ele>312</ele>
        <time>2009-05-30T07:58:13Z</time>
      </trkpt>
      <trkpt lat="45.35373" lon="5.61135">
        <ele>311</ele>
        <time>2009-05-30T07:58:20Z</time>
      </trkpt>
      <trkpt lat="45.35343" lon="5.61193">
        <ele>311</ele>
        <time>2009-05-30T07:58:34Z</time>
      </trkpt>
      <trkpt lat="45.35347" lon="5.6121">
        <ele>311</ele>
        <time>2009-05-30T07:58:39Z</time>
      </trkpt>
      <trkpt lat="45.35349" lon="5.61215">
        <ele>311</ele>
        <time>2009-05-30T07:58:40Z</time>
      </trkpt>
      <trkpt lat="45.35362" lon="5.61232">
        <ele>311</ele>
        <time>2009-05-30T07:58:45Z</time>
      </trkpt>
      <trkpt lat="45.35399" lon="5.61283">
        <ele>312</ele>
        <time>2009-05-30T07:59:04Z</time>
      </trkpt>
      <trkpt lat="45.35403" lon="5.61288">
        <ele>313</ele>
        <time>2009-05-30T07:59:06Z</time>
      </trkpt>
      <trkpt lat="45.35403" lon="5.61288">
        <ele>313</ele>
        <time>2009-05-30T07:59:09Z</time>
      </trkpt>
      <trkpt lat="45.35401" lon="5.61292">
        <ele>311</ele>
        <time>2009-05-30T07:59:13Z</time>
      </trkpt>
      <trkpt lat="45.35401" lon="5.61294">
        <ele>311</ele>
        <time>2009-05-30T07:59:14Z</time>
      </trkpt>
      <trkpt lat="45.35399" lon="5.61294">
        <ele>311</ele>
        <time>2009-05-30T07:59:16Z</time>
      </trkpt>
      <trkpt lat="45.35399" lon="5.61296">
        <ele>311</ele>
        <time>2009-05-30T07:59:19Z</time>
      </trkpt>
      <trkpt lat="45.35407" lon="5.61305">
        <ele>314</ele>
        <time>2009-05-30T08:00:03Z</time>
      </trkpt>
    </trkseg>
  </trk>
</gpx>